[[{"header":{"parameterUnit":"m.s-1","parameterCategory":1,"la1":30.6,"la2":28.766,"lo1":-90.7593,"lo2":-88.6598,"dy":0.0162,"dx":0.0183,"nx":116,"ny":114,"refTime":"2023-08-25T12:00:00:Z","depth":0,"parameterNumber":2,"parameterNumberName":"U-component_of_WINDS"},"data":[0.0,0.0,0.0,0.0,0.0,0.0,0.0,0.0,0.0,0.0,0.0,0.0,0.0,0.0,0.0,0.0,0.0,0.0,0.0,0.0,0.0,0.0,0.0,0.0,0.0,0.0,0.0,0.0,0.0,0.0,0.0,0.0,0.0,0.0,0.0,0.0,0.0,0.0,0.0,0.0,0.0,0.0,0.0,0.0,0.0,0.0,0.0,0.0,0.0,0.0,0.0,0.0,0.0,0.0,0.0,0.0,0.0,0.0,0.0,0.0,0.0,0.0,0.0,0.0,0.0,0.0,0.0,0.0,0.0,0.0,0.0,0.0,0.0,0.0,0.0,0.0,0.0,0.0,0.0,0.0,0.0,0.0,0.0,0.0,0.0,0.0,0.0,0.0,0.0,0.0,0.0,0.0,0.0,0.0,0.0,0.0,0.0,0.0,0.0,0.0,0.0,0.0,0.0,0.0,0.0,0.0,0.0,0.0,0.0,0.0,0.0,0.0,0.0,0.0,0.0,0.0,0.0,0.0,0.0,0.0,0.0,0.0,0.0,0.0,0.0,0.0,0.0,0.0,0.0,0.0,0.0,0.0,0.0,0.0,0.0,0.0,0.0,0.0,0.0,0.0,0.0,0.0,0.0,0.0,0.0,0.0,0.0,0.0,0.0,0.0,0.0,0.0,0.0,0.0,0.0,0.0,0.0,0.0,0.0,0.0,0.0,0.0,0.0,0.0,0.0,0.0,0.0,0.0,0.0,0.0,0.0,0.0,0.0,0.0,0.0,0.0,0.0,0.0,0.0,0.0,0.0,0.0,0.0,0.0,0.0,0.0,0.0,0.0,0.0,0.0,0.0,0.0,0.0,0.0,0.0,0.0,0.0,0.0,0.0,0.0,0.0,0.0,0.0,0.0,0.0,0.0,0.0,0.0,0.0,0.0,0.0,0.0,0.0,0.0,0.0,0.0,0.0,0.0,0.0,0.0,0.0,0.0,0.0,0.0,0.0,0.0,0.0,0.0,0.0,0.0,0.0,0.0,0.0,0.0,0.0,0.0,0.0,0.0,0.0,0.0,0.0,0.0,0.0,0.0,0.0,0.0,0.0,0.0,0.0,0.0,0.0,0.0,0.0,0.0,0.0,0.0,0.0,0.0,0.0,0.0,0.0,0.0,0.0,0.0,0.0,0.0,0.0,0.0,0.0,0.0,0.0,0.0,0.0,0.0,0.0,0.0,0.0,0.0,0.0,0.0,0.0,0.0,0.0,0.0,0.0,0.0,0.0,0.0,0.0,0.0,0.0,0.0,0.0,0.0,0.0,0.0,0.0,0.0,0.0,0.0,0.0,0.0,0.0,0.0,0.0,0.0,0.0,0.0,0.0,0.0,0.0,0.0,0.0,0.0,0.0,0.0,0.0,0.0,0.0,0.0,0.0,0.0,0.0,0.0,0.0,0.0,0.0,0.0,0.0,0.0,0.0,0.0,0.0,0.0,0.0,0.0,0.0,0.0,0.0,0.0,0.0,0.0,0.0,0.0,0.0,0.0,0.0,0.0,0.0,0.0,0.0,0.0,0.0,0.0,0.0,0.0,0.0,0.0,0.0,0.0,0.0,0.0,0.0,0.0,0.0,0.0,0.0,0.0,0.0,0.0,0.0,0.0,0.0,0.0,0.0,0.0,0.0,0.0,0.0,0.0,0.0,0.0,0.0,0.0,0.0,0.0,0.0,0.0,0.0,0.0,0.0,0.0,0.0,0.0,0.0,0.0,0.0,0.0,0.0,0.0,0.0,0.0,0.0,0.0,0.0,0.0,0.0,0.0,0.0,0.0,0.0,0.0,0.0,0.0,0.0,0.0,0.0,0.0,0.0,0.0,0.0,0.0,0.0,0.0,0.0,0.0,0.0,0.0,0.0,0.0,0.0,0.0,0.0,0.0,0.0,0.0,0.0,0.0,0.0,0.0,0.0,0.0,0.0,0.0,0.0,0.0,0.0,0.0,0.0,0.0,0.0,0.0,0.0,0.0,0.0,0.0,0.0,0.0,0.0,0.0,0.0,0.0,0.0,0.0,0.0,0.0,0.0,0.0,0.0,0.0,0.0,0.0,0.0,0.0,0.0,0.0,0.0,0.0,0.0,0.0,0.0,0.0,0.0,0.0,0.0,0.0,0.0,0.0,0.0,0.0,0.0,0.0,0.0,0.0,0.0,0.0,0.0,0.0,0.0,0.0,0.0,0.0,0.0,0.0,0.0,0.0,0.0,0.0,0.0,0.0,0.0,0.0,0.0,0.0,0.0,0.0,0.0,0.0,0.0,0.0,0.0,0.0,0.0,0.0,0.0,0.0,0.0,0.0,0.0,0.0,0.0,0.0,0.0,0.0,0.0,0.0,0.0,0.0,0.0,0.0,0.0,0.0,0.0,0.0,0.0,0.0,0.0,0.0,0.0,0.0,0.0,0.0,0.0,0.0,0.0,0.0,0.0,0.0,0.0,0.0,0.0,0.0,0.0,0.0,0.0,0.0,0.0,0.0,0.0,0.0,0.0,0.0,0.0,0.0,0.0,0.0,0.0,0.0,0.0,0.0,0.0,0.0,0.0,0.0,0.0,0.0,0.0,0.0,0.0,0.0,0.0,0.0,0.0,0.0,0.0,0.0,0.0,0.0,0.0,0.0,0.0,0.0,0.0,0.0,0.0,0.0,0.0,0.0,0.0,0.0,0.0,0.0,0.0,0.0,0.0,0.0,0.0,0.0,0.0,0.0,0.0,0.0,0.0,0.0,0.0,0.0,0.0,0.0,0.0,0.0,0.0,0.0,0.0,0.0,0.0,0.0,0.0,0.0,0.0,0.0,0.0,0.0,0.0,0.0,0.0,0.0,0.0,0.0,0.0,0.0,0.0,0.0,0.0,0.0,0.0,0.0,0.0,0.0,0.0,0.0,0.0,0.0,0.0,0.0,0.0,0.0,0.0,0.0,0.0,0.0,0.0,0.0,0.0,0.0,0.0,0.0,0.0,0.0,0.0,0.0,0.0,0.0,0.0,0.0,0.0,0.0,0.0,0.0,0.0,0.0,0.0,0.0,0.0,0.0,0.0,0.0,0.0,0.0,0.0,0.0,0.0,0.0,0.0,0.0,0.0,0.0,0.0,0.0,0.0,0.0,0.0,0.0,0.0,0.0,0.0,0.0,0.0,0.0,0.0,0.0,0.0,0.0,0.0,0.0,0.0,0.0,0.0,0.0,0.0,0.0,0.0,0.0,0.0,0.0,0.0,0.0,0.0,0.0,0.0,0.0,0.0,0.0,0.0,0.0,0.0,0.0,0.0,0.0,0.0,0.0,0.0,0.0,0.0,0.0,0.0,0.0,0.0,0.0,0.0,0.0,0.0,0.0,0.0,0.0,0.0,0.0,0.0,0.0,0.0,0.0,0.0,0.0,0.0,0.0,0.0,0.0,0.0,0.0,0.0,0.0,0.0,0.0,0.0,0.0,0.0,0.0,0.0,0.0,0.0,0.0,0.0,0.0,0.0,0.0,0.0,0.0,0.0,0.0,0.0,0.0,0.0,0.0,0.0,0.0,0.0,0.0,0.0,0.0,0.0,0.0,0.0,0.0,0.0,0.0,0.0,0.0,0.0,0.0,0.0,0.0,0.0,0.0,0.0,0.0,0.0,0.0,0.0,0.0,0.0,0.0,0.0,0.0,0.0,0.0,0.0,0.0,0.0,0.0,0.0,0.0,0.0,0.0,0.0,0.0,0.0,0.0,0.0,0.0,0.0,0.0,0.0,0.0,0.0,0.0,0.0,0.0,0.0,0.0,0.0,0.0,0.0,0.0,0.0,0.0,0.0,0.0,0.0,0.0,0.0,0.0,0.0,0.0,0.0,0.0,0.0,0.0,0.0,0.0,0.0,0.0,0.0,0.0,0.0,0.0,0.0,0.0,0.0,0.0,0.0,0.0,0.0,0.0,0.0,0.0,0.0,0.0,0.0,0.0,0.0,0.0,0.0,0.0,0.0,0.0,0.0,0.0,0.0,0.0,0.0,0.0,0.0,0.0,0.0,0.0,0.0,0.0,0.0,0.0,0.0,0.0,0.0,0.0,0.0,0.0,0.0,0.0,0.0,0.0,0.0,0.0,0.0,0.0,0.0,0.0,0.0,0.0,0.0,0.0,0.0,0.0,0.0,0.0,0.0,0.0,0.0,0.0,0.0,0.0,0.0,0.0,0.0,0.0,0.0,0.0,0.0,0.0,0.0,0.0,0.0,0.0,0.0,0.0,0.0,0.0,0.0,0.0,0.0,0.0,0.0,0.0,0.0,0.0,0.0,0.0,0.0,0.0,0.0,0.0,0.0,0.0,0.0,0.0,0.0,0.0,0.0,0.0,0.0,0.0,0.0,0.0,0.0,0.0,0.0,0.0,0.0,0.0,0.0,0.0,0.0,0.0,0.0,0.0,0.0,0.0,0.0,0.0,0.0,0.0,0.0,0.0,0.0,0.0,0.0,0.0,0.0,0.0,0.0,0.0,0.0,0.0,0.0,0.0,0.0,0.0,0.0,0.0,0.0,0.0,0.0,0.0,0.0,0.0,0.0,0.0,0.0,0.0,0.0,0.0,0.0,0.0,0.0,0.0,0.0,0.0,0.0,0.0,0.0,0.0,0.0,0.0,0.0,0.0,0.0,0.0,0.0,0.0,0.0,0.0,0.0,0.0,0.0,0.0,0.0,0.0,0.0,0.0,0.0,0.0,0.0,0.0,0.0,0.0,0.0,0.0,0.0,0.0,0.0,0.0,0.0,0.0,0.0,0.0,0.0,0.0,0.0,0.0,0.0,0.0,0.0,0.0,0.0,0.0,0.0,0.0,0.0,0.0,0.0,0.0,0.0,0.0,0.0,0.0,0.0,0.0,0.0,0.0,0.0,0.0,0.0,0.0,0.0,0.0,0.0,0.0,0.0,0.0,0.0,0.0,0.0,0.0,0.0,0.0,0.0,0.0,0.0,0.0,0.0,0.0,0.0,0.0,0.0,0.0,0.0,0.0,0.0,0.0,0.0,0.0,0.0,0.0,0.0,0.0,0.0,0.0,0.0,0.0,0.0,0.0,0.0,0.0,0.0,0.0,0.0,0.0,0.0,0.0,0.0,0.0,0.0,0.0,0.0,0.0,0.0,0.0,0.0,0.0,0.0,0.0,0.0,0.0,0.0,0.0,0.0,0.0,0.0,0.0,0.0,0.0,0.0,0.0,0.0,0.0,0.0,0.0,0.0,0.0,0.0,0.0,0.0,0.0,0.0,0.0,0.0,0.0,0.0,0.0,0.0,0.0,0.0,0.0,0.0,0.0,0.0,0.0,0.0,0.0,0.0,0.0,0.0,0.0,0.0,0.0,0.0,0.0,0.0,0.0,0.0,0.0,0.0,0.0,0.0,0.0,0.0,0.0,0.0,0.0,0.0,0.0,0.0,0.0,0.0,0.0,0.0,0.0,0.0,0.0,0.0,0.0,0.0,0.0,0.0,0.0,0.0,0.0,0.0,0.0,0.0,0.0,0.0,0.0,0.0,0.0,0.0,0.0,0.0,0.0,0.0,0.0,0.0,0.0,0.0,0.0,0.0,0.0,0.0,0.0,0.0,0.0,0.0,0.0,0.0,0.0,0.0,0.0,0.0,0.0,0.0,0.0,0.0,0.0,0.0,0.0,0.0,0.0,0.0,0.0,0.0,0.0,0.0,0.0,0.0,0.0,0.0,0.0,0.0,0.0,0.0,0.0,0.0,0.0,0.0,0.0,0.0,0.0,0.0,0.0,0.0,0.0,0.0,0.0,0.0,0.0,0.0,0.0,0.0,0.0,0.0,0.0,0.0,0.0,0.0,0.0,0.0,0.0,0.0,0.0,0.0,0.0,0.0,0.0,0.0,0.0,0.0,0.0,0.0,0.0,0.0,0.0,0.0,0.0,0.0,0.0,0.0,0.0,0.0,0.0,0.0,0.0,0.0,0.0,0.0,0.0,0.0,0.0,0.0,0.0,0.0,0.0,0.0,0.0,0.0,0.0,0.0,0.0,0.0,0.0,0.0,0.0,0.0,0.0,0.0,0.0,0.0,0.0,0.0,0.0,0.0,0.0,0.0,0.0,1.027,1.8027,0.0,0.0,0.0,0.0,0.0,0.0,0.0,0.0,0.0,0.0,0.0,0.0,0.0,0.0,0.0,0.0,0.0,0.0,0.0,0.0,0.0,0.0,0.0,0.0,0.0,0.0,0.0,0.0,0.0,0.0,0.0,0.0,0.0,0.0,0.0,0.0,0.0,3.9708,3.9654,4.007,4.1038,4.1447,4.1707,4.1839,0.0,0.0,0.0,0.0,0.0,0.0,0.0,0.0,0.0,0.0,0.0,0.0,0.0,0.0,0.0,0.0,0.0,0.0,0.0,0.0,0.0,0.0,0.0,0.0,0.0,0.0,0.0,0.0,0.0,0.0,0.0,0.0,0.0,0.0,0.0,0.0,0.0,0.0,0.0,0.0,0.0,0.0,0.0,0.0,0.0,0.0,0.0,0.0,0.0,0.0,0.0,0.0,0.0,0.0,0.0,0.0,0.0,0.0,0.0,0.0,0.0,0.0,0.0,0.0,0.0,0.0,0.0,0.0,0.0,0.0,-0.3218,0.3923,0.0,0.0,0.0,0.0,0.0,0.0,0.0,0.0,0.0,0.0,0.0,0.0,0.0,0.0,0.0,0.0,0.0,0.0,0.0,0.0,0.0,0.0,0.0,4.1162,4.0612,4.0488,3.9485,3.8772,0.0,0.0,0.0,0.0,0.0,0.0,3.7646,3.7369,3.7586,3.8254,3.858,3.9264,4.0311,4.0555,4.089,4.1276,4.1511,0.0,0.0,0.0,0.0,0.0,0.0,0.0,0.0,0.0,0.0,0.0,0.0,0.0,0.0,0.0,0.0,0.0,0.0,0.0,0.0,0.0,0.0,0.0,0.0,0.0,0.0,0.0,0.0,0.0,0.0,0.0,0.0,0.0,0.0,0.0,0.0,0.0,0.0,0.0,0.0,0.0,0.0,0.0,0.0,0.0,0.0,0.0,0.0,0.0,0.0,0.0,0.0,0.0,0.0,0.0,0.0,0.0,0.0,0.0,0.0,0.0,0.0,0.0,-2.4378,-2.5277,-2.5073,-2.7597,-2.9077,-2.894,-1.6983,-1.2136,-1.2069,-0.3069,0.0,0.0,0.0,0.0,0.0,0.0,0.0,0.0,0.0,0.0,0.0,0.0,0.0,0.0,0.0,0.0,0.0,0.0,0.0,0.0,0.0,4.0438,3.9949,3.9303,3.8691,3.8322,3.8311,0.0,0.0,0.0,0.0,0.0,3.7369,3.7085,3.7369,3.8196,3.9403,3.9928,3.9868,4.0131,4.0468,4.0805,4.1107,4.1595,4.2124,0.0,0.0,0.0,0.0,0.0,0.0,0.0,0.0,0.0,0.0,0.0,0.0,0.0,0.0,0.0,0.0,0.0,0.0,0.0,0.0,0.0,0.0,0.0,0.0,0.0,0.0,0.0,0.0,0.0,0.0,0.0,0.0,0.0,0.0,0.0,0.0,0.0,0.0,0.0,0.0,0.0,1.3341,1.1794,0.0,0.0,0.0,0.0,0.0,0.0,0.0,0.0,0.0,0.0,0.0,0.0,0.0,-2.811,-2.8944,-3.1055,-3.2175,-3.2276,-3.3486,-3.3958,-3.3861,-3.4661,-3.5152,-3.5287,-3.4707,0.0,-2.7528,-1.5996,0.0,0.0,0.0,0.0,0.0,0.0,0.0,0.0,0.0,0.0,0.0,0.0,0.0,0.0,0.0,0.0,0.0,0.0,0.0,0.0,0.0,3.9835,3.9258,3.8287,3.7868,3.7438,3.6921,3.6786,0.0,0.0,0.0,3.5843,3.5646,3.5939,3.6678,3.7822,3.9031,3.9601,3.9533,3.9984,4.0321,4.054,4.0768,4.1248,4.1926,4.2594,0.0,0.0,0.0,0.0,0.0,0.0,0.0,0.0,0.0,0.0,0.0,0.0,0.0,0.0,0.0,0.0,0.0,0.0,0.0,0.0,0.0,0.0,0.0,0.0,0.0,0.0,0.0,0.0,0.0,0.0,0.0,0.0,0.0,0.0,0.0,0.0,0.0,0.0,0.0,0.802,0.492,-0.1736,-0.9308,-1.5257,0.0,0.0,0.0,0.0,0.0,0.0,0.0,0.0,0.0,-3.7199,-3.7958,-3.797,-3.7232,-3.8762,-3.9607,-3.9674,-4.0396,-4.0643,-4.0458,-4.0822,-4.0942,-4.0883,-4.1603,-4.0637,-3.8161,-3.1981,-2.5062,-1.8627,0.0,0.0,0.0,0.0,-0.2061,0.5567,0.0,0.0,0.0,0.0,0.0,0.0,0.0,0.0,0.0,0.0,0.0,0.0,3.96,3.918,3.8579,3.7554,3.7251,3.6741,3.5881,3.5793,3.5453,3.4691,3.4691,3.4546,3.43,3.5215,3.6365,3.7593,3.8729,3.9323,3.9439,3.9977,4.031,4.046,4.0585,4.1031,4.1749,4.2545,4.2957,4.3156,0.0,0.0,0.0,0.0,0.0,0.0,0.0,0.0,0.0,0.0,0.0,0.0,0.0,0.0,0.0,0.0,0.0,0.0,0.0,0.0,0.0,0.0,0.0,0.0,0.0,0.0,0.0,0.0,0.0,0.0,0.0,0.0,0.0,0.0,0.0,0.0,0.0,-0.1752,-0.5191,-1.424,-1.8699,-2.2961,0.0,0.0,0.0,0.0,0.0,0.0,-4.274,-4.4285,-4.4635,-4.3431,-4.4308,-4.4265,-4.3175,-4.3988,-4.444,-4.4498,-4.4877,-4.4951,-4.4767,-4.4977,-4.4908,-4.4691,-4.4671,-4.4672,-4.4522,-4.3069,-3.63,-2.7894,-3.7667,-2.9048,-1.1997,-1.9404,-1.5269,-0.554,0.0,0.0,0.0,0.0,0.0,0.0,0.0,0.0,0.0,0.0,0.0,3.9842,3.8945,3.8447,3.7865,3.711,3.6952,3.6603,3.595,3.5759,3.5357,3.4546,3.4643,3.4546,3.43,3.5667,3.6867,3.7856,3.8952,3.958,3.9775,4.0129,4.0406,4.0598,4.0665,4.0961,4.1479,4.2402,4.2811,4.2937,4.4225,0.0,0.0,0.0,0.0,0.0,0.0,0.0,0.0,0.0,0.0,0.0,0.0,0.0,0.0,0.0,0.0,0.0,0.0,0.0,0.0,0.0,0.0,0.0,0.0,0.0,0.0,0.0,0.0,0.0,0.0,0.0,0.0,0.0,0.0,0.0,0.0,0.0,0.0,-2.3301,-2.7817,0.0,0.0,0.0,0.0,-4.1586,-4.3118,-4.3964,-4.3834,-4.4817,-4.5266,-4.4998,-4.5346,-4.564,-4.58,-4.5799,-4.5891,-4.6086,-4.6053,-4.6026,-4.6013,-4.603,-4.591,-4.5716,-4.5714,-4.5653,-4.546,-4.455,-4.3999,-4.3849,-4.4444,-4.346,-4.1575,-3.9808,-3.6655,-3.2595,0.0,0.0,0.0,0.0,0.0,0.0,0.0,0.0,4.1226,4.1041,4.0537,3.9861,3.9094,3.8832,3.8342,3.7352,3.7523,3.7395,3.6719,3.6028,3.5397,3.4767,3.4086,3.4087,3.4901,3.6452,3.7524,3.8162,3.9063,3.9513,3.9552,4.0176,4.0526,4.0602,4.0711,4.113,4.184,4.2513,4.3073,4.3576,4.4391,4.4615,0.0,0.0,0.0,0.0,0.0,0.0,0.0,0.0,0.0,0.0,0.0,0.0,0.0,0.0,0.0,0.0,0.0,0.0,0.0,0.0,0.0,0.0,0.0,0.0,0.0,0.0,0.0,0.0,0.0,0.0,0.0,0.0,0.0,0.0,0.0,0.0,0.0,-2.7666,-3.0966,0.0,-3.8145,-3.9863,-4.1297,-4.2526,-4.3517,-4.4148,-4.4346,-4.5027,-4.5414,-4.5417,-4.5725,-4.5906,-4.5998,-4.6064,-4.6131,-4.6198,-4.6187,-4.6163,-4.6152,-4.6129,-4.6053,-4.5992,-4.6049,-4.6017,-4.5894,-4.5637,-4.5138,-4.4542,-4.4506,-4.3848,-4.2655,-4.0597,-3.8284,-3.5719,0.0,0.0,0.0,0.0,0.0,0.0,0.0,0.0,4.1163,4.1088,4.0411,3.9764,3.9322,3.895,3.8385,3.7631,3.7915,3.7703,3.6689,3.6061,3.5301,3.4414,3.3869,3.4349,3.5924,3.6879,3.7823,3.8737,3.9178,3.9542,3.9811,4.0408,4.0664,4.0638,4.0742,4.1228,4.1975,4.2106,4.2828,4.3906,4.441,4.4608,4.4639,0.0,0.0,0.0,0.0,0.0,0.0,0.0,0.0,0.0,0.0,0.0,0.0,0.0,0.0,0.0,0.0,0.0,0.0,0.0,0.0,0.0,0.0,0.0,0.0,0.0,0.0,0.0,0.0,0.0,0.0,0.0,0.0,0.0,0.0,-2.1272,-2.5902,-3.0916,-3.3307,-3.5937,-3.9343,-4.0391,-4.142,-4.2755,-4.3502,-4.4139,-4.4756,-4.5208,-4.5584,-4.5808,-4.5978,-4.6072,-4.6059,-4.6139,-4.6172,-4.619,-4.6152,-4.6153,-4.6202,-4.6133,-4.6103,-4.6104,-4.6152,-4.6147,-4.6108,-4.6171,-4.5531,-4.4498,-4.4436,-4.3511,-4.2049,-4.064,-3.8937,-3.6876,0.0,0.0,0.0,0.0,0.0,0.0,0.0,4.1272,4.1255,4.1391,4.0253,3.9511,3.97,3.8669,3.7935,3.7935,3.809,3.7524,3.5831,3.5805,3.5132,3.3382,3.4036,3.5329,3.7142,3.689,3.7698,3.9575,3.9344,3.9698,4.0575,4.0735,4.0759,4.0691,4.0752,4.1195,4.1835,4.1163,4.1987,4.3781,4.4166,4.4583,4.4953,0.0,0.0,0.0,0.0,0.0,0.0,0.0,0.0,0.0,0.0,0.0,0.0,0.0,0.0,0.0,0.0,0.0,0.0,0.0,0.0,0.0,0.0,0.0,0.0,0.0,0.0,0.0,0.0,0.0,0.0,0.0,0.0,0.0,-2.2332,-2.5809,-2.9593,-3.3132,-3.5228,-3.7286,-3.9766,-4.0383,-4.1133,-4.2354,-4.3173,-4.4055,-4.5035,-4.5409,-4.579,-4.6189,-4.6196,-4.6201,-4.6204,-4.613,-4.6134,-4.6202,-4.6052,-4.606,-4.6195,-4.613,-4.6096,-4.6084,-4.6092,-4.6098,-4.6105,-4.6162,-4.5679,-4.4874,-4.4663,-4.3559,-4.2033,-4.1481,-4.0094,-3.7864,0.0,0.0,0.0,0.0,0.0,0.0,4.1215,4.1076,4.1088,4.1346,4.0795,4.0471,4.0735,3.9715,3.8992,3.8992,3.8484,3.7685,3.6492,3.5797,3.4835,3.336,3.5064,3.6208,3.6492,3.7488,3.8319,3.9007,3.9449,3.9891,4.0391,4.0668,4.0742,4.0622,4.0597,4.0967,4.157,4.0953,4.1387,4.2486,4.2478,4.2661,4.2996,0.0,0.0,0.0,0.0,0.0,0.0,0.0,0.0,0.0,0.0,0.0,0.0,0.0,0.0,0.0,0.0,0.0,0.0,0.0,0.0,0.0,0.0,0.0,0.0,0.0,0.0,0.0,0.0,0.0,0.0,0.0,-1.7983,-2.0278,-2.2044,-2.6564,-3.0436,-3.2444,-3.5153,-3.7598,-3.9529,-4.0804,-4.1949,-4.3173,-4.3757,-4.4388,-4.5189,-4.5514,-4.579,-4.6056,-4.615,-4.6192,-4.6209,-4.6132,-4.6128,-4.6197,-4.6008,-4.596,-4.5977,-4.5905,-4.588,-4.5898,-4.5988,-4.6027,-4.6036,-4.6098,-4.564,-4.4836,-4.4194,-4.3212,-4.2032,-4.0965,-3.9353,-3.7311,0.0,0.0,0.0,0.0,0.0,0.0,4.1093,4.0953,4.1012,4.1552,4.0997,4.0772,4.1348,4.0492,3.9731,3.9423,3.8689,3.7662,3.6307,3.5318,3.4772,3.4751,3.5949,3.6826,3.7416,3.8038,3.8736,3.9444,3.9716,4.0062,4.0505,4.0718,4.0706,4.0558,4.0496,4.0651,4.0921,4.0457,4.0597,4.1098,4.091,4.1388,4.224,4.2306,4.2397,4.249,4.2455,4.2319,4.2029,4.1356,0.0,0.0,0.0,0.0,0.0,0.0,0.0,0.0,0.0,0.0,0.0,0.0,0.0,0.0,0.0,0.0,0.0,0.0,0.0,0.0,0.0,0.0,0.0,0.0,-1.9823,-2.1611,-2.3557,-2.6858,-2.9954,-3.2174,-3.4651,-3.6862,-3.8805,-3.987,-4.1136,-4.2982,-4.3318,-4.3976,-4.5207,-4.5503,-4.5722,-4.5956,-4.6099,-4.6167,-4.6202,-4.613,-4.6089,-4.6068,-4.5977,-4.5899,-4.5805,-4.5833,-4.5776,-4.5629,-4.5835,-4.5873,-4.5796,-4.5939,-4.5741,-4.5214,0.0,0.0,0.0,0.0,-3.9394,-3.793,0.0,0.0,0.0,0.0,0.0,0.0,4.1093,4.0858,4.0948,4.1796,4.1049,4.0778,4.172,4.1126,4.0347,3.9586,3.8738,3.7486,3.5606,3.4822,3.5121,3.6735,3.665,3.7399,3.9026,3.8559,3.8939,4.0293,4.0057,4.0248,4.08,4.0797,4.0684,4.0463,4.0406,4.0308,4.0118,3.987,3.9826,3.987,3.967,4.0589,4.2056,4.2005,4.2155,4.2396,4.2269,4.2092,4.1846,4.151,0.0,0.0,0.0,0.0,0.0,0.0,0.0,0.0,0.0,0.0,0.0,0.0,0.0,0.0,0.0,0.0,0.0,0.0,0.0,0.0,0.0,0.0,0.0,0.0,-2.163,-2.3919,-2.5692,-2.6944,-2.8973,-3.2305,-3.3994,-3.5706,-3.7938,-3.8401,-3.964,-4.2226,-4.2427,-4.325,-4.5067,-4.538,0.0,0.0,0.0,-4.6117,-4.6191,-4.6127,-4.605,-4.5919,-4.5966,-4.5905,-4.5731,-4.5841,-4.5733,-4.5472,-4.5708,-4.5708,-4.556,-4.5796,-4.5782,-4.5464,-4.4122,-4.3038,-4.2086,-4.0827,-3.9915,-3.918,0.0,0.0,0.0,0.0,0.0,0.0,4.1093,4.0793,4.0884,4.1796,4.1551,4.1616,4.2571,4.1959,4.1162,4.0365,3.8968,3.7388,3.5606,3.5924,3.6377,3.6773,3.7471,3.8176,3.8857,3.8887,3.9339,4.0133,4.026,4.0474,4.0801,4.0793,4.0607,4.0255,4.0302,4.012,3.9785,3.967,3.967,3.9717,3.9575,3.9973,4.06,4.0588,4.0848,4.1238,4.1197,4.1229,4.1153,4.0397,4.0076,3.9743,3.8327,3.6536,0.0,0.0,0.0,0.0,0.0,0.0,0.0,0.0,0.0,0.0,0.0,0.0,0.0,0.0,0.0,0.0,0.0,0.0,0.0,-2.0498,-2.1727,-2.3078,-2.5516,-2.6904,-2.8982,-3.2452,-3.4284,-3.6084,-3.8094,-3.8738,-4.0018,-4.2226,-4.2557,-4.3343,-4.4962,-4.5225,-4.5432,-4.565,-4.5836,-4.601,-4.6202,-4.6132,-4.6081,-4.6059,-4.5968,0.0,-4.5866,-4.5838,-4.5776,-4.5731,-4.5771,-4.5771,-4.575,-4.5791,-4.5021,-4.3788,-4.3588,-4.2578,-4.116,-4.0883,-4.0499,-3.997,0.0,0.0,0.0,0.0,0.0,0.0,4.1,4.0728,4.0741,4.1356,4.1139,4.1056,4.1304,4.0955,4.0187,3.9,3.7737,3.6641,3.5865,3.6429,3.7088,3.7835,3.8162,3.864,3.9287,3.9383,3.9766,4.0357,4.0519,4.0706,4.0892,4.0831,4.061,4.0252,4.0248,4.008,3.9785,3.9804,3.9826,3.9848,3.9895,4.0101,4.0404,4.0338,4.0556,4.0922,4.0983,4.1012,4.0968,4.0471,4.0144,3.9718,3.8322,3.6969,3.541,0.0,0.0,0.0,0.0,0.0,0.0,0.0,0.0,0.0,0.0,0.0,0.0,0.0,0.0,-1.1022,-1.4151,0.0,-1.7848,-2.1171,-2.1952,-2.3114,-2.5983,-2.7433,-2.9162,-3.1557,-3.3126,-3.4839,-3.6894,-3.7465,-3.8787,-4.1409,-4.1859,-4.2789,-4.4587,-4.5049,-4.5361,-4.5596,-4.577,-4.5949,-4.6206,-4.6133,-4.6069,-4.6,-4.5969,-4.5899,-4.5791,-4.5833,-4.5757,-4.5613,-4.5737,-4.5737,-4.5626,-4.5291,-4.4134,-4.2596,-4.2673,-4.1974,-4.0936,-4.0878,-4.073,-4.0518,0.0,0.0,0.0,0.0,0.0,0.0,0.0,4.068,4.0597,4.0943,4.0642,4.0288,4.0054,3.9783,3.8922,3.7195,3.6483,3.6118,3.6052,3.6781,3.7718,3.8862,3.8725,3.898,3.9735,3.9813,4.01,4.0565,4.0721,4.0873,4.101,4.0855,4.0623,4.03,4.0248,4.012,3.9916,3.9996,4.0036,4.0038,4.0234,4.0386,4.0577,4.0496,4.0662,4.095,4.1058,4.093,4.0695,4.0731,4.0397,3.9757,3.8633,3.7703,3.6239,3.2374,3.0702,0.0,0.0,0.0,0.0,0.0,0.0,0.0,0.0,-0.0712,-0.3371,-0.575,-0.8822,-1.2043,-1.5141,-1.648,-1.8266,-2.1659,-2.2414,-2.3543,-2.6382,-2.7879,-2.9163,-3.0676,-3.2007,-3.3636,-3.5565,-3.602,-3.7391,-4.0215,-4.0969,-4.2169,-4.4064,-4.4806,-4.5262,-4.5519,-4.5679,-4.5897,-4.6162,-4.613,-4.608,-4.5952,-4.5994,-4.5925,-4.578,-4.5861,-4.5742,-4.5505,-4.5514,-4.5364,-4.5004,-4.4299,-4.3163,-4.1873,-4.1699,-4.1353,-4.0939,-4.0847,-4.0851,-4.0832,0.0,0.0,0.0,0.0,0.0,0.0,0.0,0.0,4.0566,4.0802,4.0611,4.0494,4.0735,4.0049,3.8677,3.6454,3.6693,3.6681,3.595,3.7453,3.8473,3.8862,3.9045,3.9264,3.9626,3.9916,4.0196,4.043,4.0688,4.0873,4.101,4.0855,4.061,4.029,4.0356,4.0233,3.9982,4.0058,4.0118,4.0196,4.0196,4.0336,4.0506,4.0623,4.0843,4.1084,4.1087,4.0443,3.9689,4.0401,3.9769,3.8783,3.9202,3.7785,3.549,3.2999,2.9608,2.5879,2.2327,1.7704,1.2819,0.845,0.6295,0.3993,0.0,-0.3457,-0.5838,-0.9789,-1.2541,-1.4823,-1.6724,-1.8585,-2.042,-2.2349,-2.3084,-2.4085,-2.6146,-2.7365,-2.8807,-3.0719,-3.2377,-3.3836,-3.5174,-3.5856,-3.7026,-3.8977,-4.0519,-4.1967,-4.3257,-4.4336,-4.5068,-4.5323,-4.5519,-4.575,-4.6008,-4.6132,-4.6189,-4.6171,-4.6099,-4.6084,-4.6041,-4.5956,-4.5873,-4.5809,-4.4993,-4.4187,-4.3389,-4.253,-4.2036,-4.1732,-4.0962,-4.0693,-4.0757,-4.0855,-4.0866,-4.0806,0.0,0.0,0.0,0.0,0.0,0.0,0.0,0.0,0.0,4.0645,4.0402,4.0017,3.9394,3.7968,3.6638,3.5578,3.6127,3.64,3.6052,3.747,3.8515,3.8862,3.8979,3.9202,3.9577,3.9958,4.0213,4.0336,4.0684,4.0909,4.0995,4.0889,4.0682,4.0361,4.0431,4.0304,4.0,4.0099,4.0177,4.0215,4.0341,4.0476,4.0636,4.0776,4.0924,4.1051,4.0603,3.9993,0.0,3.9879,3.9337,3.8609,3.9289,3.7594,3.4823,3.2288,2.9405,2.594,2.0707,1.5967,1.1787,0.8229,0.6122,0.3903,-0.0267,-0.3022,-0.5593,-0.8674,-1.1514,-1.3981,-1.5808,-1.8009,-2.0178,-2.2027,-2.2999,-2.429,-2.668,-2.7841,-2.9157,-3.0896,-3.2493,-3.3887,-3.5081,-3.5582,-3.6634,-3.8465,-3.9441,-4.0588,-4.2136,-4.331,-4.4123,-4.4518,-4.5235,-4.5708,-4.5936,-4.6119,-4.6204,-4.6204,-4.6173,-4.6137,-4.6079,-4.5472,-4.4896,-4.437,-4.3982,-4.3289,-4.242,-4.2039,-4.161,-4.1123,-4.0669,-4.061,-4.077,-4.082,-4.0855,-4.087,0.0,0.0,0.0,0.0,0.0,0.0,0.0,0.0,0.0,0.0,4.0288,3.9649,3.8245,3.6738,3.5606,3.4989,3.571,3.6148,3.6069,3.7434,3.8465,3.8862,3.9007,3.9248,3.9577,4.0,4.023,4.0293,4.0694,4.0935,4.1008,4.0922,4.0777,4.0537,4.0565,4.045,4.0196,4.0251,4.0269,4.027,4.0454,4.0583,4.0698,4.0846,4.0818,4.0677,4.0164,3.9554,3.9031,3.9037,3.8405,3.7729,3.8163,3.6541,3.3913,3.1031,2.7861,2.4001,1.8366,1.442,1.1203,0.8345,0.6036,0.3549,0.0534,-0.2493,-0.5429,-0.8154,-1.0909,-1.3471,-1.5396,-1.8,-2.0333,-2.18,-2.3084,-2.4672,-2.6963,-2.8036,-2.9157,-3.0763,-3.229,-3.3582,-3.4576,-3.522,-3.6199,-3.7734,-3.8507,-3.9524,-4.0929,-4.2184,-4.3058,-4.3454,-4.4362,-4.4916,-4.513,-4.5332,-4.546,-4.5512,-4.5487,-4.5464,-4.5387,-4.4674,-4.3831,-4.2969,-4.295,-4.2414,-4.1533,-4.1533,-4.1195,-4.0629,-4.0534,-4.0623,-4.0761,-4.08,-4.084,-4.0887,0.0,0.0,0.0,0.0,0.0,0.0,0.0,0.0,0.0,0.0,0.0,0.0,0.0,3.7551,3.6713,3.4862,3.581,3.6333,3.5917,3.747,3.8548,3.891,3.9328,3.9596,3.9602,4.0,4.023,4.0312,4.0694,4.0925,4.0994,4.0929,4.089,4.0883,4.0811,4.075,4.0673,4.0545,4.0454,4.0394,4.054,4.059,4.0617,4.081,4.0467,3.9859,3.9882,3.9097,3.7984,3.7735,3.6684,3.5462,3.5369,3.4305,3.253,2.9406,2.3862,1.817,1.5194,1.2547,1.026,0.8615,0.5513,0.2314,-0.0089,-0.2932,-0.6136,-0.9966,-1.2281,-1.4219,-1.6495,-1.9376,-2.1507,-2.2178,-2.3706,-2.5253,-2.6731,-2.7591,-2.8593,-3.0228,-3.1645,-3.2741,-3.3375,-3.4624,-3.5688,-3.6416,-3.7962,-3.9152,-3.9713,-4.1213,-4.2077,-4.2172,-4.2619,-4.2989,-4.3187,-4.3393,-4.3576,-4.3773,-4.3702,-4.3672,-4.3671,-4.3506,-4.2965,-4.2131,-4.2059,-4.1506,-4.0626,-4.0626,-4.0583,-4.0504,-4.0504,-4.0574,-4.0718,-4.0771,-4.0849,-4.079,0.0,0.0,0.0,0.0,0.0,0.0,0.0,0.0,0.0,0.0,0.0,0.0,0.0,0.0,0.0,0.0,3.6911,3.6836,3.6887,3.7719,3.8296,3.8548,3.9165,3.9539,3.9665,4.0101,4.0336,4.037,4.0784,4.0971,4.1003,4.1015,4.0994,4.089,4.0875,4.0801,4.0706,4.0706,4.0694,4.0668,4.0703,4.0789,4.0846,4.0635,4.033,3.9901,0.0,3.8245,3.7466,3.7523,3.672,3.5617,3.5214,3.3106,2.9714,2.4474,2.0845,1.7857,1.4815,1.2906,1.1177,0.8782,0.596,0.3027,0.0178,-0.2662,-0.5681,-0.886,-1.1946,-1.4393,-1.5651,-1.8867,-2.1583,-2.2178,-2.3717,-2.5265,-2.6501,-2.7445,-2.8427,-2.9566,-3.0955,-3.2018,-3.2376,-3.3953,-3.5328,-3.6197,-3.6921,-3.7791,-3.8844,-4.0007,-4.0784,-4.1167,-4.205,-4.2716,-4.3033,-4.3275,-4.3491,-4.369,-4.3626,-4.3301,-4.2733,-4.2685,-4.2163,-4.1298,-4.1276,-4.1059,-4.0723,-4.0642,-4.0681,-4.0757,-4.0668,-4.077,-4.0896,-4.0285,-4.0081,-4.0069,0.0,0.0,0.0,0.0,0.0,0.0,0.0,0.0,0.0,0.0,0.0,0.0,0.0,0.0,0.0,0.0,0.0,3.7644,3.7404,3.794,3.8253,3.8227,3.8799,3.9181,3.9294,3.9757,3.9965,3.9965,4.0463,4.0742,4.0749,4.098,4.1051,4.0967,4.0942,4.0871,4.0762,4.0789,4.0733,4.0649,4.0714,4.0725,4.068,4.0349,3.9968,0.0,3.8612,3.7804,3.7092,3.6725,3.595,3.488,3.3549,3.0474,2.6538,2.2252,1.9713,1.7966,1.5953,1.3797,1.1494,0.9253,0.6337,0.3307,0.0695,-0.2342,-0.5462,-0.8308,-1.1651,-1.4489,-1.5805,-1.8855,-2.142,-2.2253,-2.3717,-2.5052,-2.6114,-2.7178,-2.8168,-2.8839,-3.0375,-3.1522,-3.1777,-3.3287,-3.464,-3.5586,-3.6163,-3.6929,-3.798,-3.8921,-3.9612,-4.008,-4.0929,-4.1608,-4.2021,-4.2291,-4.2507,-4.2773,-4.2739,-4.2419,-4.1875,-4.1861,-4.1503,-4.0944,-4.094,-4.0904,-4.0839,-4.074,-4.0761,-4.0866,-4.078,-4.0671,-4.0491,-3.9883,-3.9271,-3.8746,0.0,0.0,0.0,0.0,0.0,0.0,0.0,0.0,0.0,0.0,0.0,0.0,0.0,0.0,0.0,0.0,0.0,0.0,3.7508,3.8183,3.8419,3.7967,3.836,3.8609,3.8609,3.9017,3.9231,3.9231,3.9884,4.0243,4.0317,4.0821,4.1074,4.109,4.1007,4.0954,4.0889,4.0816,4.0643,4.043,4.0546,4.0441,4.0202,3.9966,3.9395,3.8683,3.8385,3.7729,3.6794,3.5476,3.4526,3.3361,3.0714,2.6945,2.3387,2.2669,2.0473,1.8286,1.8158,1.5025,1.1329,0.9832,0.6555,0.3175,0.1253,-0.1999,-0.5482,-0.8405,-1.1427,-1.4335,-1.6756,-1.9149,-2.111,-2.2328,-2.3588,-2.4659,-2.5429,-2.6761,-2.7762,-2.8103,-2.9922,-3.1218,-3.1564,-3.2648,-3.3668,-3.451,-3.5674,-3.6568,-3.7135,-3.7998,-3.8579,-3.8952,-3.9338,-3.9791,-4.0264,-4.0506,-4.0751,-4.1086,-4.1081,-4.1097,-4.1097,-4.1035,-4.1009,-4.1001,-4.1008,-4.0968,-4.0915,-4.0889,-4.0848,-4.0816,-4.0757,-4.0282,-3.9604,-3.9516,-3.8427,-3.7004,0.0,0.0,0.0,0.0,0.0,0.0,0.0,0.0,0.0,0.0,0.0,0.0,0.0,0.0,0.0,0.0,0.0,0.0,3.9264,3.8836,3.8595,3.8582,3.8774,3.8896,3.8896,3.9432,3.9709,3.9645,4.008,4.0268,4.0322,4.0529,4.0704,4.0792,4.073,4.0723,4.0745,4.0687,4.0639,4.0625,4.0554,4.0487,4.0353,3.9804,3.9252,3.8696,3.818,3.7506,3.6736,3.6182,3.4755,3.2918,3.1096,2.8123,2.4925,2.2987,2.1105,1.9134,1.6495,1.4615,1.2491,0.8842,0.641,0.3926,0.0334,-0.2495,-0.5301,-0.8513,-1.1564,-1.4273,-1.5907,-1.7899,-1.9782,-2.1296,-2.2539,-2.3651,-2.4654,-2.6126,-2.7124,-2.7191,-2.8862,-3.0101,-3.0283,-3.1519,-3.2415,-3.2725,-3.4589,-3.6028,-3.6724,-3.7323,-3.7789,-3.8237,-3.8674,-3.9289,-3.9986,-4.0448,-4.0707,-4.0791,-4.0857,-4.0933,-4.1022,-4.1019,-4.1023,-4.1074,-4.1077,-4.1055,-4.1046,-4.0942,-4.0915,-4.0869,-4.0221,-3.9889,-3.9598,-3.8349,-3.7516,-3.6908,0.0,0.0,0.0,0.0,0.0,0.0,0.0,0.0,0.0,0.0,0.0,0.0,0.0,0.0,0.0,0.0,0.0,0.0,0.0,3.9543,3.9102,3.8528,3.8839,3.886,3.8524,3.9125,3.9421,3.9352,3.9796,4.0023,4.0038,4.038,4.0612,4.0699,4.0655,4.0673,4.074,4.0635,4.0611,0.0,0.0,4.0319,4.0119,3.9477,3.9033,3.8665,3.8044,3.7413,3.6882,3.6597,3.4895,3.2579,3.0624,2.8008,2.536,2.3816,2.1724,1.9396,1.6786,1.4836,1.257,0.8339,0.6144,0.4053,0.0243,-0.2503,-0.514,-0.8181,-1.1265,-1.388,-1.5622,-1.7335,-1.9029,-2.0603,-2.1804,-2.2833,-2.3614,-2.5271,-2.6496,-2.6563,-2.8034,-2.9233,-2.9747,-3.0406,-3.1144,-3.1946,-3.3956,-3.5335,-3.5839,-3.6591,-3.7195,-3.763,-3.814,-3.8888,-3.9888,-4.0076,-4.0337,-4.0707,-4.0626,-4.0692,-4.091,-4.0915,-4.095,-4.1055,-4.1053,-4.1093,-4.1144,-4.1058,-4.082,-4.0464,-3.9981,-3.9302,-3.8509,-3.7539,-3.6844,-3.6319,0.0,0.0,0.0,0.0,0.0,0.0,0.0,0.0,0.0,0.0,0.0,0.0,0.0,0.0,0.0,0.0,0.0,0.0,0.0,0.0,3.9686,3.8339,3.8829,3.8741,3.7964,3.8585,3.8892,3.8833,3.937,3.9667,3.9699,4.0251,4.055,4.0636,4.0655,4.0699,4.0746,4.0643,4.0556,4.0502,4.0351,4.0114,3.9785,0.0,3.8857,3.8609,3.7844,3.7323,3.6932,3.6701,3.5121,3.28,3.0286,2.7826,2.571,2.4959,2.2298,1.9253,1.7908,1.5196,1.1932,0.8085,0.5899,0.3738,0.039,-0.2408,-0.5024,-0.7854,-1.061,-1.3243,-1.5552,-1.694,-1.8356,-2.0001,-2.1107,-2.198,-2.2536,-2.4238,-2.5539,-2.5892,-2.7131,-2.8373,-2.9407,-2.9414,-2.9911,-3.1405,-3.3077,-3.4251,-3.4764,-3.5839,-3.6631,-3.7124,-3.77,-3.8545,-3.9662,-3.9539,-3.9852,-4.0565,-4.0333,-4.0403,-4.074,-4.0733,-4.0813,-4.0939,-4.0955,-4.1003,-4.1087,-4.0992,-4.0526,-3.9824,-3.9627,-3.8531,-3.7077,-3.6893,-3.6313,-3.5589,0.0,0.0,0.0,0.0,0.0,0.0,0.0,0.0,0.0,0.0,3.9935,3.9986,0.0,0.0,0.0,0.0,0.0,0.0,0.0,0.0,0.0,3.9147,3.9135,3.8862,3.815,3.8748,3.9045,3.9045,3.9279,3.9445,3.9618,3.9895,4.0119,4.0304,4.0404,4.0491,4.0549,4.0533,4.0546,4.0557,4.0332,4.0157,4.0001,3.9489,3.9045,0.0,3.7377,3.6614,3.6149,3.589,3.5693,3.5111,3.2853,3.0552,2.8217,2.5909,2.2488,1.9031,1.7271,1.4379,1.1144,0.809,0.5742,0.3348,0.0,-0.233,-0.4807,-0.8192,-1.0207,-1.2183,-1.4665,-1.5677,-1.6863,-1.8788,-1.9603,-2.0529,-2.1875,-2.2488,-2.3438,-2.5093,-2.5769,-2.6568,-2.7749,-2.8519,-2.9016,-2.9331,-3.0141,-3.1673,-3.4054,-3.4922,-3.5865,-3.6904,-3.7701,-3.82,-3.8504,-3.9051,-3.951,-3.988,-3.9819,-4.0005,-4.0391,-4.0395,-4.0462,-4.0586,-4.0712,-4.0645,-4.0422,-3.9979,-3.9708,-3.9447,-3.818,-3.7399,-3.6946,-3.627,-3.5796,-3.5522,0.0,0.0,0.0,0.0,0.0,0.0,0.0,3.9468,3.9468,3.9468,3.9537,3.9642,3.9781,3.9884,4.0037,0.0,0.0,0.0,0.0,0.0,0.0,3.9256,3.9638,3.9365,3.8216,3.8884,3.9229,3.9156,0.0,3.9575,3.9712,3.9937,4.0139,4.0307,4.0408,4.0489,4.0554,4.0552,4.061,4.0675,4.0453,4.0293,4.0157,3.9728,3.898,0.0,3.7362,3.6759,3.6143,3.5073,3.5177,3.5392,3.3192,3.0603,2.7921,2.577,2.2154,1.8502,1.6797,1.393,1.0799,0.7947,0.5979,0.3738,-0.0156,-0.2096,-0.418,-0.8192,-1.0104,-1.1742,-1.3845,-1.4958,-1.5965,-1.7394,-1.833,-1.9219,-2.0225,-2.1163,-2.2105,-2.3042,-2.4268,-2.5436,-2.6435,-2.7168,-2.7881,-2.8583,-2.8693,-2.984,-3.2377,-3.3655,-3.4841,-3.5976,-3.6504,-3.7088,-3.7783,-3.8085,-3.8444,-3.8868,-3.8823,-3.9037,-3.9467,-3.9472,-3.9681,-4.0018,-3.9735,-3.9625,-3.9623,-3.8976,-3.8384,-3.7832,-3.7228,-3.6591,-3.5969,-3.5578,-3.5373,-3.5293,0.0,0.0,0.0,0.0,0.0,0.0,0.0,3.9202,3.9202,3.9202,3.9202,3.9255,3.9451,3.9625,3.9677,0.0,0.0,0.0,0.0,0.0,0.0,0.0,0.0,0.0,3.8201,0.0,0.0,3.9237,3.9502,0.0,0.0,0.0,0.0,0.0,4.0531,4.0588,4.064,4.0665,4.074,0.0,0.0,4.0494,4.0293,0.0,0.0,0.0,0.0,3.6802,3.6035,3.4411,3.4137,3.41,3.188,2.9387,2.687,2.4812,2.1238,1.7649,1.6318,1.3509,1.0364,0.7884,0.6063,0.3895,-0.0078,-0.1709,-0.3639,-0.774,-0.9653,-1.1143,-1.2903,-1.4155,-1.518,-1.6158,-1.7111,-1.7997,-1.869,-1.986,-2.0797,-2.1319,-2.2865,-2.4202,-2.5031,-2.5654,-2.6471,-2.7696,-2.7577,-2.8488,-3.0793,-3.2447,-3.3705,-3.4506,-3.4994,-3.5702,-3.6664,-3.6784,-3.709,-3.7652,-3.7641,-3.7925,-3.8493,-3.8376,-3.851,-3.8826,-3.8165,-3.8004,-3.8169,-3.7464,-3.6685,-3.5967,-3.6029,-3.5383,-3.4432,-3.4481,-3.425,-3.3916,0.0,0.0,0.0,0.0,0.0,0.0,0.0,3.8914,3.886,3.886,3.886,3.886,3.886,3.9255,3.9501,0.0,0.0,0.0,0.0,0.0,0.0,0.0,0.0,0.0,0.0,0.0,0.0,3.9298,3.9324,0.0,0.0,0.0,0.0,0.0,0.0,4.0769,4.0796,4.0904,0.0,0.0,0.0,0.0,0.0,0.0,0.0,0.0,0.0,3.6219,3.5036,3.4202,3.2692,3.076,2.864,2.7385,2.6133,2.3008,1.9413,1.6251,1.5679,1.2704,0.9417,0.8062,0.5607,0.2891,0.0466,-0.1246,-0.3198,-0.6689,-0.8223,-0.9502,-1.152,-1.2983,-1.4155,-1.5188,-1.5956,-1.6844,-1.7842,-1.8046,-1.8846,-2.0963,-2.1459,-2.2084,-2.3316,-2.3964,-2.4696,-2.5499,-2.6271,-2.7774,-3.0247,-3.1723,-3.2439,-3.2377,-3.3777,-3.4457,-3.4388,-3.5199,-3.5838,-3.6289,-3.6404,-3.6966,-3.7845,-3.7301,-3.6851,-3.6472,-3.578,-3.5469,-3.5339,-3.4706,-3.4455,-3.4415,-3.3846,-3.3025,-3.2209,-3.2466,-3.1474,-3.0053,0.0,0.0,0.0,0.0,0.0,0.0,3.8914,3.875,3.8694,3.8694,3.86,3.86,3.8694,3.886,3.9094,3.9325,0.0,0.0,0.0,0.0,0.0,0.0,0.0,0.0,0.0,0.0,3.8921,3.9165,3.935,0.0,0.0,0.0,0.0,0.0,0.0,4.0688,4.0694,4.0874,0.0,0.0,0.0,0.0,0.0,0.0,0.0,0.0,0.0,0.0,3.4994,3.2945,3.1774,3.0397,2.6122,2.4293,2.3364,2.1773,1.868,1.5756,1.5782,1.2753,0.9417,0.8737,0.6056,0.3047,0.0856,-0.0857,-0.2961,-0.6297,-0.7766,-0.9059,-1.0645,-1.1909,-1.2938,-1.3658,-1.4593,-1.5517,-1.6262,-1.7257,-1.8163,-1.8809,-2.0175,-2.1235,-2.1627,-2.2569,-2.3352,-2.3779,-2.4222,-2.4967,-2.6205,-2.8614,-3.044,-3.1456,-3.2191,-3.2562,-3.265,-3.3064,-3.3077,-3.2602,-3.3053,-3.3477,-3.3843,-3.3934,-3.4108,-3.4237,-3.3528,-3.3054,-3.2789,-3.2331,-3.186,-3.1393,-3.0628,-3.0057,-2.9538,-2.886,-2.8163,-2.7334,0.0,0.0,0.0,0.0,0.0,3.8821,3.8711,3.8528,3.8399,3.8359,3.8205,3.8132,3.823,3.8303,3.8472,3.8931,3.9094,0.0,0.0,0.0,0.0,0.0,0.0,0.0,0.0,0.0,3.9073,3.9101,3.9376,3.9632,0.0,0.0,4.0323,4.0534,0.0,0.0,0.0,0.0,0.0,0.0,0.0,0.0,0.0,0.0,0.0,0.0,0.0,0.0,0.0,0.0,0.0,2.9782,2.4443,2.1823,2.0629,1.9987,1.7571,1.5021,1.4988,1.2271,0.9336,0.858,0.5899,0.289,0.1013,-0.0779,-0.2884,-0.5684,-0.723,-0.8456,-0.9674,-1.0807,-1.17,-1.2198,-1.323,-1.4171,-1.4657,-1.6131,-1.706,-1.6872,-1.8795,-1.999,-1.9627,-2.0924,-2.1898,-2.2195,-2.2321,-2.2581,-2.3144,-2.4942,-2.7008,-2.9206,-2.9725,-2.9997,-3.0117,-3.0388,-3.0183,-2.9546,-2.9915,-3.0208,-3.0492,-3.0545,-3.0826,-3.1153,-3.0185,-2.961,-2.9399,-2.89,-2.841,-2.7968,-2.7397,-2.6535,-2.5604,-2.4745,-2.3741,-2.2512,0.0,0.0,0.0,0.0,0.0,0.0,3.8391,3.8132,3.7828,3.7759,3.7551,3.7417,3.7417,3.7567,3.7801,3.8116,3.8678,0.0,0.0,0.0,0.0,0.0,0.0,0.0,0.0,0.0,3.9504,3.9101,3.9376,3.9679,3.9983,4.0139,4.0339,4.0588,0.0,0.0,0.0,0.0,0.0,0.0,0.0,0.0,0.0,0.0,0.0,0.0,0.0,0.0,0.0,0.0,0.0,0.0,0.0,2.0485,1.836,1.7385,1.572,1.3897,1.2795,1.0941,0.8949,0.746,0.483,0.2188,0.0857,-0.1014,-0.2971,-0.4688,-0.616,-0.7468,-0.8304,-0.9599,-1.0663,-1.1037,-1.1929,-1.2739,-1.3077,-1.4371,-1.5305,-1.5376,-1.7216,-1.8082,-1.7153,-1.8936,-2.0398,-2.0783,-2.0854,-2.1263,-2.215,-2.1172,-2.1922,-2.4898,-2.6222,-2.6666,-2.6331,-2.6992,-2.7479,-2.7697,-2.7326,-2.7696,-2.8793,-2.7571,-2.703,-2.6891,-2.5334,-2.4745,-2.481,-2.4082,-2.3987,-2.4231,-2.4231,-2.2514,-2.0018,-2.0249,-1.7894,-1.4547,0.0,0.0,0.0,0.0,0.0,0.0,0.0,3.7401,3.7417,3.7373,3.721,3.715,3.7254,3.7314,3.7492,3.7801,3.8262,0.0,0.0,0.0,0.0,0.0,0.0,0.0,0.0,0.0,3.9557,3.9851,3.9471,3.9489,3.988,4.0002,4.0232,4.0534,4.0707,4.0769,0.0,0.0,0.0,0.0,0.0,0.0,4.0005,0.0,0.0,0.0,0.0,0.0,0.0,0.0,0.0,0.0,0.0,0.0,0.0,1.5392,1.3556,1.2111,1.1617,0.9675,0.7512,0.6367,0.4053,0.1722,0.0469,-0.1329,-0.3127,-0.4683,-0.5696,-0.6707,-0.8165,-0.8851,-0.9458,-1.0143,-1.1111,-1.1855,-1.1916,-1.3571,-1.472,-1.4442,-1.5791,-1.6768,-1.6731,-1.7437,-1.8072,-1.8438,-1.8508,-1.8705,-1.9291,-1.9097,-2.029,-2.319,-2.3758,-2.3949,-2.3779,-2.4003,-2.3815,-2.3341,-2.3374,-2.3394,-2.3556,-2.3443,-2.3483,-2.3541,-2.3141,-2.2489,-2.1584,-2.1068,-2.0331,-1.9508,-1.8533,-1.7536,-1.6599,-1.5495,-1.394,-1.2046,0.0,0.0,0.0,0.0,0.0,0.0,0.0,3.6937,3.6952,3.6815,3.6723,3.6662,3.6831,3.6892,3.7089,3.7405,3.7801,0.0,0.0,0.0,0.0,0.0,0.0,0.0,4.098,4.0509,4.03,4.0443,3.9984,3.9902,4.0204,4.0156,4.0248,4.0504,4.07,4.0792,0.0,0.0,0.0,0.0,0.0,0.0,3.9943,0.0,0.0,0.0,0.0,0.0,0.0,0.0,0.0,0.0,0.0,0.0,0.0,0.0,1.1588,1.0179,1.0375,0.8793,0.6831,0.5825,0.3663,0.1489,0.047,-0.1175,-0.2818,-0.4059,-0.4919,-0.5857,-0.7246,-0.7859,-0.8394,-0.9236,-0.9981,-1.0582,-1.0887,-1.2412,-1.3542,-1.3733,-1.4225,-1.4705,-1.5345,-1.5513,-1.5852,-1.6507,-1.6367,-1.6437,-1.6982,-1.6697,-1.7348,-1.9221,-2.0368,-2.0986,-2.1,-2.0772,-2.0433,-1.9997,-1.9791,-1.9641,-1.9523,-1.9512,-1.9597,-1.9905,-1.9725,-1.9233,0.0,-1.7292,-1.6395,-1.5566,-1.4104,-1.3119,-1.2407,-1.1284,-1.0131,-0.8632,0.0,0.0,0.0,0.0,0.0,0.0,0.0,3.6585,3.6461,3.6133,3.6022,3.5958,3.6148,3.6289,3.6554,3.6938,0.0,0.0,0.0,0.0,0.0,0.0,0.0,0.0,4.0584,4.1369,4.1522,4.0998,4.0773,4.079,4.0976,4.0616,4.0488,4.0581,4.0803,4.0856,0.0,0.0,0.0,0.0,0.0,0.0,0.0,0.0,0.0,0.0,0.0,0.0,0.0,0.0,0.0,0.0,0.0,0.0,0.0,0.0,0.0,0.0,0.0,0.8214,0.6678,0.5671,0.3509,0.1411,0.0705,-0.0705,0.0,-0.282,-0.3832,-0.4844,-0.5625,-0.6472,-0.7318,-0.8169,-0.8623,-0.915,-0.9992,-1.0962,-1.2026,-1.3188,-1.2533,-1.2337,-1.3299,-1.3343,-1.3825,-1.4935,-1.4513,-1.4497,-1.5188,-1.4122,-1.3615,-1.3818,-1.6269,-1.7716,-1.8083,-1.7484,-1.7262,-1.7484,-1.6665,-1.6459,-1.6716,-1.5817,-1.567,-1.6095,-1.5441,-1.5184,-1.5114,-1.3035,-1.2151,-1.2065,-1.063,-0.9075,-0.7605,-0.7605,-0.635,-0.4698,0.0,0.0,0.0,0.0,0.0,0.0,0.0,0.0,0.0,0.0,3.5154,3.5285,3.5544,3.5608,3.5943,0.0,0.0,0.0,0.0,0.0,0.0,0.0,0.0,0.0,4.1271,4.1399,4.1596,4.1839,4.1514,4.1557,4.1901,4.1949,4.1781,4.1431,4.1635,4.1471,0.0,0.0,0.0,0.0,0.0,0.0,0.0,0.0,0.0,0.0,3.6821,3.4234,0.0,0.0,0.0,0.0,0.0,0.0,0.0,0.0,1.019,0.8304,0.8071,0.0,0.5079,0.4142,0.2895,0.1568,0.0,-0.0548,-0.1568,-0.2116,-0.2976,-0.3912,-0.4608,-0.5386,-0.6318,-0.7318,-0.7698,-0.8152,-0.915,-1.0282,-1.1358,-1.2305,-1.2022,-1.2117,-1.2993,-1.2932,-1.3154,-1.4081,-1.3376,-1.3029,-1.3248,-1.2457,-1.2052,-1.2145,-1.233,-1.3187,-1.4798,-1.4348,-1.4277,-1.4419,-1.4387,-1.4395,-1.4466,-1.3591,-1.3295,-1.336,-1.2919,-1.2171,-1.1052,-0.9468,-0.8196,-0.7147,-0.5854,-0.5098,-0.4645,-0.4342,-0.3575,-0.2497,0.0,0.0,0.0,0.0,0.0,0.0,0.0,0.0,0.0,0.0,0.0,3.4327,3.4993,3.5139,0.0,0.0,0.0,0.0,0.0,0.0,0.0,0.0,0.0,4.0995,4.1356,4.1706,4.2082,4.2414,4.2329,4.2426,4.2674,4.261,4.2449,4.2195,4.2105,4.1898,0.0,0.0,0.0,0.0,4.061,0.0,0.0,0.0,0.0,0.0,3.6863,3.4078,0.0,2.8207,2.46,2.0837,0.0,0.0,0.0,0.0,0.989,0.8228,0.7468,0.6086,0.4618,0.3602,0.2821,0.2038,0.0863,0.0078,-0.0627,-0.1489,-0.2037,-0.274,-0.3752,-0.43,-0.4999,-0.6388,-0.6696,-0.7153,-0.8156,-0.9153,-1.0033,-1.0628,-1.0944,-1.1276,-1.1872,-1.1848,-1.2211,-1.3146,-1.2105,-1.1629,-1.2188,-1.1071,-1.0245,-0.9997,-0.9479,-1.0262,-1.2576,-1.1844,-1.155,-1.1624,-1.1476,-1.1169,-1.0781,-1.0267,-0.9889,-0.9723,-0.9734,-0.9285,-0.8609,-0.7399,-0.6183,-0.5041,-0.3661,-0.3042,-0.2809,-0.2497,-0.2029,-0.1325,0.0,0.0,0.0,0.0,0.0,0.0,0.0,0.0,0.0,0.0,0.0,0.0,0.0,0.0,0.0,0.0,0.0,0.0,0.0,0.0,0.0,0.0,4.0337,4.0823,4.118,4.2015,4.2562,4.281,4.3082,4.3297,4.3388,4.3168,4.3022,4.2948,4.2435,4.2214,0.0,0.0,0.0,0.0,4.0743,0.0,0.0,0.0,0.0,0.0,0.0,0.0,0.0,2.787,2.3801,1.9676,1.7336,0.0,0.0,0.0,0.0,0.0,0.7208,0.6136,0.4969,0.3765,0.3136,0.2431,0.1178,0.0707,0.0235,-0.0862,-0.1176,-0.1645,-0.2899,-0.329,-0.3912,-0.5461,-0.5864,-0.6342,-0.7273,-0.8055,-0.8666,-0.8936,-0.956,-1.0009,-1.0239,-1.0376,-1.0843,-1.1831,-1.0621,-1.0116,-1.0869,-0.9423,-0.8191,-0.7433,-0.7126,-0.7977,-1.034,-0.9497,-0.9115,-0.9039,-0.8737,-0.804,-0.719,-0.7046,-0.6656,-0.6259,-0.6503,-0.6659,-0.6576,-0.5665,-0.474,-0.3732,-0.2425,-0.1725,-0.1411,-0.1254,-0.086,-0.0156,0.0,0.0,0.0,0.0,0.0,0.0,0.0,0.0,0.0,0.0,0.0,0.0,0.0,0.0,0.0,0.0,0.0,0.0,0.0,0.0,0.0,3.9032,3.9986,4.0728,4.1093,4.1839,4.2422,4.281,4.3578,4.4071,4.4308,4.4549,4.435,4.3771,4.3037,4.2429,4.1969,4.1892,0.0,0.0,4.0742,0.0,0.0,0.0,0.0,0.0,0.0,0.0,0.0,2.6625,2.2524,1.8505,1.661,0.0,0.0,0.0,0.0,0.0,0.7541,0.6767,0.5828,0.4184,0.3287,0.2429,0.1178,0.0628,0.0236,-0.0157,-0.0628,-0.1177,-0.196,-0.2663,-0.3522,-0.4696,-0.5874,-0.6665,-0.6821,-0.7446,-0.802,-0.8334,-0.8243,-0.8376,-0.8776,-0.8658,-0.8883,-0.9388,-0.862,-0.7943,-0.7359,-0.6518,-0.5701,-0.4824,-0.4741,-0.5094,-0.5924,-0.6443,-0.6696,-0.6696,-0.7383,-0.7218,-0.636,-0.621,-0.5668,-0.4969,-0.4675,-0.4059,-0.32,-0.2497,-0.164,-0.0625,0.0314,0.0785,0.0785,0.0864,0.1333,0.2425,0.0,0.0,0.0,0.0,0.0,0.0,0.0,0.0,0.0,0.0,0.0,0.0,0.0,0.0,0.0,0.0,0.0,0.0,0.0,0.0,3.7806,3.9086,3.9662,4.0353,4.1261,4.1966,4.2559,4.2903,4.3721,4.4258,4.4515,4.4846,4.4859,4.4553,4.3866,4.3442,4.3201,4.2438,4.1888,4.1516,0.0,0.0,0.0,0.0,0.0,0.0,0.0,0.0,0.0,0.0,1.9956,1.7001,1.5813,0.0,0.0,0.0,0.0,0.0,0.716,0.6644,0.6083,0.4243,0.378,0.3338,0.1808,0.1178,0.0867,0.024,-0.008,-0.0563,-0.1382,-0.2117,-0.293,-0.423,-0.5246,-0.5776,-0.5776,-0.6552,-0.7256,-0.7499,-0.7862,-0.8103,-0.844,-0.838,-0.8269,-0.8074,-0.7379,-0.6555,-0.5872,-0.5095,-0.427,-0.35,-0.3325,-0.312,-0.297,-0.3221,-0.3793,-0.4681,-0.4518,-0.4048,-0.3352,-0.2879,-0.2492,-0.2108,-0.1718,-0.1406,-0.1173,-0.1174,-0.0704,0.0157,0.047,0.0785,0.1178,0.2116,0.3054,0.4222,0.0,0.0,0.0,0.0,0.0,0.0,0.0,0.0,0.0,0.0,0.0,0.0,0.0,0.0,0.0,0.0,0.0,0.0,0.0,3.6477,3.7456,3.9032,3.9385,4.0103,4.1318,4.1966,4.248,4.2865,4.3656,4.421,4.4515,4.4796,4.4948,4.4966,4.4535,4.4245,4.3964,4.2884,4.2233,4.1844,0.0,0.0,0.0,0.0,0.0,0.0,0.0,0.0,0.0,0.0,0.0,0.0,0.0,0.0,0.0,1.0249,0.9461,0.8804,0.7,0.6696,0.6457,0.4564,0.4318,0.4063,0.2161,0.1597,0.1364,0.0572,0.041,0.0082,-0.0838,-0.1512,-0.2351,-0.3861,-0.4468,-0.4826,-0.4994,-0.5858,-0.6455,-0.6711,-0.7246,-0.758,-0.7485,-0.7482,-0.7207,-0.6398,-0.5786,-0.5166,-0.4628,-0.3926,-0.3195,-0.2538,-0.2095,-0.1728,-0.1186,-0.0666,-0.13,-0.2838,-0.2195,-0.1409,-0.0549,-0.0156,0.0156,0.0392,0.0626,0.0626,0.0235,-0.0235,-0.0078,0.0549,0.0392,0.0706,0.1491,0.3359,0.4678,0.5922,0.0,0.0,0.0,0.0,0.0,0.0,0.0,0.0,0.0,0.0,0.0,0.0,0.0,0.0,0.0,0.0,0.0,0.0,0.0,3.5928,3.6935,3.8044,3.9373,4.0446,4.1209,4.1498,4.1941,4.2519,4.323,4.3868,4.4515,4.4659,4.4685,4.464,4.4789,4.4138,4.2926,4.3062,4.2295,4.1007,4.1077,0.0,0.0,0.0,0.0,0.0,0.0,0.0,0.0,0.0,0.0,0.0,0.0,0.0,1.1477,1.0114,0.9354,0.8679,0.7499,0.727,0.7082,0.5815,0.4932,0.3851,0.1675,0.1256,0.1256,0.0756,0.0672,0.0504,-0.0168,-0.1007,-0.2013,-0.3442,-0.3757,-0.4151,-0.5102,-0.5553,-0.5808,-0.5808,-0.5816,-0.5552,-0.4654,-0.4565,-0.4206,-0.3312,-0.3309,-0.3129,-0.2416,-0.2506,-0.2238,-0.1522,-0.0894,-0.0708,-0.0953,0.0259,0.0085,-0.1376,-0.1505,-0.0862,0.047,0.0156,0.0547,0.1489,0.1332,0.1255,0.1178,0.0864,0.1099,0.1492,0.1257,0.1727,0.2665,0.5143,0.6524,0.7439,0.0,0.0,0.0,0.0,0.0,0.0,0.0,0.0,0.0,0.0,0.0,0.0,0.0,0.0,0.0,0.0,0.0,0.0,0.0,3.4993,3.6213,3.8189,3.8728,3.9681,4.1146,4.1762,4.2228,4.2573,4.3194,4.3786,4.4317,4.4477,4.4659,4.4777,4.4302,4.395,4.3682,4.2729,4.2085,4.1671,4.1167,3.8712,0.0,0.0,0.0,0.0,0.0,0.0,0.0,0.0,1.4018,1.3613,1.3203,1.2287,1.1277,1.0157,0.9384,0.8616,0.732,0.6776,0.6318,0.5119,0.4615,0.4099,0.2444,0.1849,0.1435,0.0943,0.086,0.0604,-0.0175,-0.07,-0.1312,-0.2098,-0.2376,-0.274,-0.3183,-0.3559,-0.3757,-0.3941,-0.3941,-0.3851,-0.3494,-0.3403,-0.3045,-0.2062,-0.2061,-0.1792,-0.1075,-0.0537,-0.0358,-0.0538,0.0717,0.116,0.0532,0.1487,0.1894,0.1689,0.1221,0.1191,0.1646,0.2425,0.2737,0.2741,0.2821,0.2666,0.2356,0.1884,0.204,0.2586,0.2741,0.3054,0.3521,0.4919,0.6307,0.7621,0.0,0.0,0.0,0.0,0.0,0.0,0.0,0.0,0.0,0.0,0.0,0.0,0.0,0.0,0.0,0.0,0.0,0.0,3.3602,3.4403,3.5806,3.7758,3.843,3.9492,4.11,4.1596,4.2002,4.2391,4.2996,4.3419,4.3786,4.4072,4.4298,4.4392,4.3756,4.3566,4.3618,4.236,4.083,3.9199,3.837,3.4687,0.0,0.0,0.0,0.0,0.0,0.0,0.0,0.0,1.1671,1.2272,1.21,1.1585,1.089,0.9927,0.9235,0.8368,0.7146,0.6458,0.588,0.4816,0.4429,0.4102,0.2924,0.2316,0.1897,0.1226,0.1143,0.0883,0.0179,0.0,-0.0269,-0.0985,-0.1253,-0.1522,-0.197,-0.2235,-0.2503,-0.2774,-0.2774,-0.2686,-0.2419,-0.2419,-0.2062,-0.0987,-0.0718,-0.0359,0.009,0.0984,0.1253,0.0717,0.188,0.2239,0.1793,0.2211,0.2886,0.3637,0.3255,0.3157,0.3243,0.4081,0.4226,0.3839,0.3997,0.3686,0.3062,0.2589,0.2665,0.321,0.4064,0.4297,0.445,0.5844,0.7003,0.8165,0.0,0.0,0.0,0.0,0.0,0.0,0.0,0.0,0.0,0.0,0.0,0.0,0.0,0.0,0.0,0.0,0.0,0.0,3.2236,3.4249,3.5761,3.643,3.846,4.0053,4.0972,4.0849,4.1174,4.1874,4.2519,4.281,4.281,4.3422,4.3575,4.3385,4.3249,4.2895,4.2362,4.1981,3.8348,3.2824,3.2128,2.8989,2.4628,0.0,0.0,0.0,0.0,0.0,0.0,0.0,1.0722,1.1241,1.0717,1.0549,1.0371,0.9497,0.8715,0.8025,0.7058,0.6609,0.6163,0.5275,0.4472,0.3669,0.2686,0.2688,0.2598,0.1614,0.1436,0.1345,0.1166,0.1256,0.0987,-0.0179,-0.0358,-0.0716,-0.1611,-0.1966,-0.2144,-0.2412,-0.2502,-0.2147,-0.1435,-0.1345,-0.0987,-0.009,0.0898,0.1345,0.1163,0.1967,0.2412,0.2144,0.2416,0.2508,0.2508,0.2511,0.3016,0.39,0.4155,0.4637,0.525,0.4896,0.4693,0.4701,0.4701,0.4077,0.3062,0.2904,0.2901,0.3288,0.4921,0.5464,0.5613,0.83,0.915,0.9226,0.0,0.0,0.0,0.0,0.0,0.0,0.0,0.0,0.0,0.0,0.0,0.0,0.0,0.0,0.0,0.0,0.0,0.0,2.9363,3.1765,3.3633,3.4535,3.7329,3.9315,4.04,4.0497,4.0926,4.1753,4.2151,4.2458,4.2732,4.3051,4.2988,4.2595,4.2136,4.1884,4.1493,3.7171,3.4221,3.2191,2.876,2.3669,1.8144,0.0,0.0,0.0,0.0,0.0,0.0,0.0,0.0,0.0,1.0037,0.9919,0.9772,0.8982,0.8372,0.7672,0.6786,0.6186,0.5785,0.5341,0.4687,0.3868,0.2946,0.2331,0.1793,0.1436,0.1436,0.1346,0.1345,0.1345,0.1256,0.0897,0.0896,0.0717,0.0269,0.0179,0.009,-0.0179,-0.0358,-0.0358,0.0,0.0359,0.0807,0.1254,0.1972,0.2419,0.2329,0.3223,0.3578,0.3129,0.358,0.3939,0.4293,0.3941,0.4548,0.6189,0.5797,0.5627,0.5497,0.5529,0.555,0.555,0.4932,0.4384,0.3837,0.4068,0.4144,0.4375,0.5931,0.6086,0.5696,0.7084,0.8313,0.9301,0.0,0.0,0.0,0.0,0.0,0.0,0.0,0.0,0.0,0.0,2.4155,2.4317,0.0,0.0,0.0,0.0,0.0,0.0,0.0,2.9088,3.0998,3.2944,3.5337,3.7486,3.9315,4.0019,4.0446,4.0651,4.1383,4.1796,4.1888,4.2342,4.2226,4.1596,4.0742,3.9571,3.8016,3.3924,3.0165,2.6655,2.3339,1.8376,1.3044,0.0,0.0,0.0,0.0,0.0,0.0,0.0,0.0,0.0,0.9637,0.9597,0.9428,0.8627,0.8017,0.7319,0.652,0.5931,0.5539,0.4989,0.4429,0.3789,0.2591,0.1793,0.1436,0.1436,0.1436,0.1436,0.1436,0.1436,0.1436,0.1436,0.1436,0.1345,0.1256,0.1524,0.1703,0.1434,0.1611,0.179,0.1701,0.1971,0.2149,0.2326,0.3044,0.3492,0.358,0.4387,0.4746,0.4474,0.483,0.5097,0.5275,0.5097,0.5719,0.7136,0.6639,0.637,0.6309,0.6189,0.6096,0.586,0.5318,0.4927,0.4844,0.5229,0.5384,0.5386,0.663,0.6934,0.685,0.777,0.8836,0.997,0.0,0.0,0.0,0.0,0.0,0.0,0.0,0.0,0.0,0.0,2.3387,2.3299,0.0,0.0,0.0,0.0,0.0,0.0,0.0,2.6199,2.7928,3.0756,3.2642,3.4871,3.752,3.9113,3.958,3.8842,4.03,4.0849,4.0514,4.1276,4.1147,4.02,3.8849,3.6357,3.3008,3.1207,2.5857,1.8402,1.6779,1.3461,0.934,0.8017,0.0,0.0,0.0,0.0,0.0,0.0,0.0,0.0,0.9492,0.9501,0.9336,0.8448,0.7661,0.6962,0.626,0.5991,0.5542,0.4383,0.4028,0.3491,0.1883,0.1436,0.1436,0.1436,0.1436,0.1436,0.1436,0.1436,0.1436,0.1436,0.1436,0.1436,0.1436,0.224,0.2777,0.2597,0.3307,0.3751,0.3307,0.3309,0.3396,0.3396,0.4115,0.4652,0.4917,0.5458,0.5822,0.5908,0.6074,0.6071,0.5897,0.616,0.6602,0.7228,0.689,0.7,0.7439,0.6878,0.6342,0.586,0.5777,0.5851,0.6002,0.6388,0.6468,0.6549,0.7326,0.8012,0.868,0.9588,1.0265,1.0938,0.0,0.0,0.0,0.0,0.0,0.0,0.0,0.0,0.0,0.0,0.0,0.0,0.0,0.0,0.0,0.0,0.0,0.0,0.0,2.268,2.3824,2.4087,2.9503,3.2743,3.3354,3.5952,3.7239,3.7093,3.8863,3.9681,3.9578,3.9699,3.9057,3.7675,3.515,3.2918,3.0647,2.4315,1.9814,1.6506,1.3094,1.0368,0.846,0.8197,0.8552,0.0,0.0,0.0,0.0,0.0,0.0,0.0,0.8815,0.8962,0.8907,0.7929,0.7577,0.7224,0.6346,0.6349,0.6435,0.5985,0.4917,0.3671,0.2777,0.1973,0.1436,0.1436,0.1436,0.1436,0.1436,0.1436,0.1436,0.1436,0.1436,0.1436,0.1436,0.224,0.2867,0.2777,0.3487,0.3929,0.402,0.4376,0.4732,0.4912,0.5539,0.6163,0.6517,0.6697,0.6962,0.7309,0.7037,0.7126,0.7669,0.7309,0.758,0.8292,0.7889,0.7639,0.7604,0.6998,0.6445,0.5938,0.6538,0.6769,0.6703,0.6546,0.7234,0.8385,0.8394,0.8922,0.9593,0.982,1.0346,1.1105,0.0,0.0,0.0,0.0,0.0,0.0,0.0,0.0,0.0,0.0,0.0,0.0,0.0,0.0,0.0,0.0,0.0,0.0,0.0,0.0,2.0613,2.2298,2.7212,3.0246,3.101,3.2755,3.4032,3.4646,3.5643,3.6786,3.7963,3.7842,3.6812,3.4838,3.2033,2.8879,2.5293,2.0027,1.6321,1.3632,1.0763,0.9157,0.8456,0.8201,0.8376,0.8727,0.846,0.0,0.0,0.0,0.0,0.0,0.0,0.0,0.8907,0.7925,0.7397,0.7048,0.6523,0.626,0.6083,0.5985,0.4914,0.3848,0.3578,0.2776,0.2152,0.2152,0.1704,0.1436,0.1436,0.1436,0.1436,0.1436,0.1436,0.1524,0.2062,0.2955,0.3757,0.4204,0.4912,0.5445,0.545,0.5716,0.5894,0.6074,0.6251,0.6782,0.7573,0.7312,0.7401,0.8089,0.8006,0.8097,0.8372,0.8456,0.8552,0.8736,0.8446,0.8218,0.812,0.7153,0.6794,0.7011,0.746,0.777,0.7931,0.777,0.8003,0.8551,0.8479,0.915,1.019,1.0051,1.0807,1.1781,0.0,0.0,0.0,0.0,0.0,0.0,0.0,0.0,0.0,0.0,0.0,0.0,0.0,0.0,0.0,0.0,0.0,0.0,0.0,0.0,0.0,2.1392,2.4843,2.7281,2.8568,2.9699,3.0831,3.2003,3.2031,3.3111,3.504,3.5304,3.4211,3.1772,2.8692,2.4554,1.9688,1.6846,1.3817,1.0717,0.941,0.889,0.8719,0.8025,0.8025,0.8376,0.8113,0.8201,0.8376,0.846,0.0,0.0,0.0,0.0,0.9082,0.8101,0.7397,0.6959,0.6789,0.6083,0.5458,0.5539,0.4825,0.4115,0.4378,0.3757,0.3045,0.3045,0.2152,0.1436,0.1614,0.1704,0.1704,0.1882,0.1882,0.2151,0.3044,0.3935,0.4825,0.563,0.6517,0.7054,0.6881,0.6881,0.6881,0.6881,0.6786,0.7217,0.8356,0.7925,0.8097,0.8873,0.9061,0.9065,0.8719,0.934,0.9345,0.8911,0.8768,0.8704,0.8631,0.7622,0.7553,0.8232,0.8461,0.8689,0.9074,0.9003,0.878,0.8479,0.8479,0.9448,1.072,1.0657,1.1484,1.2599,0.0,0.0,0.0,0.0,0.0,0.0,0.0,0.0,0.0,0.0,1.9712,1.8796,0.0,0.0,0.0,0.0,0.0,0.0,1.554,0.0,0.0,1.639,2.0615,2.3217,2.3846,2.7079,2.8892,2.9083,2.9478,2.9453,2.9098,3.1122,3.092,2.8612,2.3601,2.001,1.7433,1.3635,1.0758,0.889,0.9061,0.8803,0.8197,0.7492,0.8025,0.8995,0.7944,0.812,0.8732,0.8376,0.864,0.0,0.0,0.0,0.9082,0.8113,0.776,0.7584,0.6697,0.6077,0.5722,0.6163,0.545,0.465,0.483,0.4295,0.3758,0.3758,0.2509,0.1704,0.2509,0.2688,0.2956,0.3755,0.3933,0.3933,0.4111,0.4914,0.5542,0.5719,0.6517,0.7051,0.7051,0.7051,0.7051,0.7051,0.7753,0.8452,0.9056,0.9758,1.0197,1.0284,1.0371,1.0115,0.9423,0.9515,0.9345,0.8907,0.9047,0.8898,0.8421,0.9003,0.9069,0.8922,0.983,0.983,0.9226,0.9074,0.9382,0.9916,1.0121,1.072,1.1626,1.2298,1.2673,1.2893,0.0,0.0,0.0,0.0,0.0,0.0,0.0,0.0,0.0,0.0,0.0,1.8249,0.0,0.0,0.0,1.5458,1.5077,1.4981,1.5083,1.5172,1.5724,1.6835,1.8827,2.0749,2.2621,2.4366,2.5821,2.699,2.7348,2.7094,2.6304,2.6656,2.6175,2.4827,2.1286,1.7937,1.4856,1.2008,0.9845,0.8452,0.8189,0.8017,0.7937,0.7316,0.7669,0.838,0.7852,0.794,0.8292,0.8376,0.8636,0.8903,0.8652,0.0,0.0,0.0,0.7852,0.7231,0.6251,0.6251,0.6432,0.6254,0.5811,0.5544,0.5719,0.5097,0.4561,0.4739,0.3667,0.2955,0.3578,0.3667,0.3846,0.42,0.4289,0.4448,0.4922,0.5354,0.5793,0.6322,0.676,0.7051,0.7132,0.758,0.7841,0.7841,0.8711,0.9579,1.0366,1.0544,1.0722,1.0982,1.0722,1.0381,0.9864,0.9864,0.9493,0.8763,0.9247,0.9334,0.9286,0.9976,1.0056,0.9685,1.0143,1.0212,0.9981,0.9906,0.9911,1.0067,1.0507,1.1174,1.1929,1.2378,1.29,1.3346,0.0,0.0,0.0,0.0,0.0,0.0,0.0,0.0,0.0,0.0,0.0,0.0,0.0,0.0,0.0,0.0,1.479,1.4688,1.4885,1.5267,1.6204,1.7777,1.8334,1.9604,2.1863,2.2403,2.3424,2.5031,2.5294,2.4925,2.4033,2.3172,2.2045,2.0604,1.8846,1.6126,1.2735,1.06,0.8969,0.7925,0.7136,0.7224,0.7753,0.7316,0.7669,0.8376,0.8025,0.8025,0.8201,0.846,0.8723,0.8811,0.8823,0.874,0.0,0.0,0.0,0.7136,0.6517,0.6605,0.6786,0.6346,0.6171,0.5994,0.6169,0.5722,0.5366,0.5542,0.5097,0.4739,0.4914,0.4823,0.4734,0.5001,0.5001,0.524,0.5854,0.593,0.6192,0.6893,0.7152,0.7368,0.7482,0.8277,0.889,0.889,0.9753,1.0534,1.1235,1.1149,1.1149,1.1327,1.0982,1.0549,1.0038,0.9951,0.9658,0.9082,0.9648,1.0048,1.0271,1.0881,1.0962,1.0663,1.0513,1.0588,1.0663,1.0738,1.0513,1.0368,1.1031,1.17,1.2291,1.2592,1.3258,1.3783,0.0,0.0,0.0,0.0,0.0,0.0,0.0,0.0,0.0,0.0,0.0,0.0,1.7037,1.677,1.6211,1.5178,1.4592,1.4298,1.4298,1.5724,1.6676,1.7037,1.8812,0.0,2.0727,2.1872,2.2589,2.2969,2.3406,2.2853,2.1507,2.1418,1.9538,1.6118,1.513,1.3573,1.1547,0.8956,0.7394,0.6517,0.6248,0.6858,0.7731,0.7309,0.8364,1.0033,0.8636,0.864,0.917,0.8723,0.8986,0.9515,0.9345,0.9262,0.9174,0.0,0.0,0.0,0.8021,0.7312,0.6517,0.6691,0.6257,0.5733,0.5733,0.5908,0.6083,0.6083,0.6349,0.6615,0.6704,0.6077,0.5897,0.6786,0.6962,0.6959,0.7041,0.7037,0.7041,0.7041,0.7918,0.8444,0.8452,0.9231,0.9836,0.9836,1.0712,1.1235,1.1327,1.21,1.2186,1.1322,1.1241,1.0895,1.0038,0.9777,0.9819,1.0126,1.0536,1.092,1.1329,1.1929,1.2077,1.1855,1.1484,1.126,1.1111,1.126,1.1335,1.1409,1.2425,1.2792,1.2938,1.3688,1.4057,1.4057,0.0,0.0,0.0,0.0,0.0,0.0,0.0,0.0,0.0,0.0,0.0,0.0,0.0,1.4956,1.4478,1.41,1.3329,1.284,1.3022,1.4184,1.5229,1.6163,1.749,1.8711,1.9894,2.0799,2.1516,2.2059,2.2059,2.1615,2.0637,1.9803,1.7856,1.5095,1.5068,1.3127,0.9822,0.8694,0.739,0.5985,0.6163,0.6599,0.7214,0.7319,0.8025,0.8986,0.9074,0.899,0.8899,0.9506,0.9428,0.9174,0.9262,0.9262,0.9262,0.8999,0.8819,0.8636,0.8288,0.8017,0.7661,0.7482,0.6782,0.6169,0.6343,0.6083,0.5908,0.6083,0.626,0.6438,0.6707,0.67,0.6697,0.7051,0.7139,0.7109,0.7017,0.7004,0.7004,0.7004,0.7771,0.8414,0.8532,0.9932,1.0799,1.0799,1.1666,1.2186,1.2186,1.2528,1.2443,1.1757,1.1499,1.0895,1.0038,1.0463,1.0493,1.0201,1.149,1.193,1.1632,1.2378,1.2526,1.215,1.2003,1.1706,1.126,1.126,1.1409,1.1855,1.2592,1.3178,1.3535,1.4057,1.4353,1.4418,0.0,0.0,0.0,0.0,0.0,0.0,0.0,0.0,1.5108,1.4912,0.0,0.0,0.0,0.0,1.2522,1.2431,1.2058,1.1965,1.2047,1.3113,1.4268,1.5494,1.6648,1.787,1.9072,1.9903,2.0619,2.106,2.0881,2.0339,1.9538,1.8427,1.6593,1.4212,1.427,1.2248,0.8694,0.8082,0.6858,0.5453,0.5361,0.5891,0.6773,0.6694,0.7312,0.8368,0.8978,0.924,0.941,1.0453,1.0544,1.0371,1.0202,0.9772,0.9345,0.9257,0.9345,0.9345,0.8986,0.8807,0.854,0.8097,0.7482,0.6871,0.6782,0.6435,0.6083,0.6169,0.6169,0.6346,0.6707,0.6969,0.7139,0.7139,0.7139,0.7105,0.7014,0.7,0.7087,0.7429,0.8279,0.9004,0.9401,1.0885,1.1757,1.1757,1.2357,1.2705,1.2705,1.2705,1.2443,1.2015,1.1585,1.0982,1.0207,1.0895,1.1085,1.0686,1.1976,1.2402,1.2231,1.2673,1.2746,1.2526,1.2378,1.1929,1.1409,1.1706,1.2003,1.2378,1.3185,1.3695,1.4129,1.4353,1.4497,1.4569,0.0,0.0,0.0,0.0,0.0,0.0,0.0,0.0,1.4327,1.3741,0.0,0.0,0.0,0.0,0.0,1.0266,1.1063,1.1468,1.1463,1.2716,1.3872,1.4848,1.6351,1.7483,1.8241,1.9247,1.9795,1.9795,1.9803,1.9147,1.794,1.721,1.5577,1.3314,1.2489,1.0765,0.8348,0.7031,0.5888,0.4919,0.3762,0.4643,0.6587,0.5528,0.6495,0.8436,0.8524,0.9392,1.0697,1.1381,1.2322,1.3014,1.1986,1.0712,0.9689,0.9951,0.9777,0.9689,0.0,0.0,0.0,0.8627,0.8189,0.7661,0.6966,0.6874,0.6779,0.6517,0.6432,0.652,0.6792,0.6966,0.7139,0.7139,0.7139,0.7139,0.7228,0.7228,0.7577,0.8456,0.9405,1.0361,1.1235,1.2186,1.2705,1.2705,1.2705,1.2705,1.2705,1.2705,1.2443,1.2015,1.1585,1.1068,1.0636,1.1154,1.1506,1.1742,1.2068,1.2563,1.32,1.3046,1.29,1.29,1.2526,1.2003,1.1558,1.2673,1.3119,1.3039,1.4209,1.4641,1.4641,1.4641,1.4641,1.4569,0.0,0.0,0.0,0.0,0.0,1.3608,1.3511,1.2678,1.1853,0.0,0.0,0.0,0.9878,0.9387,0.87,0.7912,0.8517,0.8916,0.8711,1.0087,1.1263,1.1945,1.3295,1.4543,1.5697,1.6539,1.7289,1.8041,1.7684,1.7498,1.7483,1.6177,1.4746,1.3223,1.1935,0.9949,0.7474,0.6678,0.5622,0.4476,0.4476,0.483,0.5364,0.616,0.6956,0.7749,0.9405,0.984,0.9923,1.2157,1.2083,1.1058,1.0804,1.0202,0.9689,0.9951,0.9951,0.9951,1.0038,0.0,0.0,0.0,0.0,0.0,0.8281,0.7753,0.7224,0.6962,0.6874,0.6874,0.6792,0.7401,0.7921,0.8105,0.8105,0.8452,0.9318,0.9401,0.9575,1.0009,1.088,1.1494,1.1757,1.2619,1.3222,1.3222,1.3052,1.2966,1.2966,1.279,1.2443,1.2015,1.1843,1.1843,1.1837,1.2601,1.308,1.3166,1.3724,1.3877,1.3645,1.3419,1.3273,1.3119,1.2973,1.2959,1.3091,1.3025,1.3171,1.3608,1.4474,1.4911,1.5062,1.5062,1.4856,1.4641,0.0,0.0,0.0,0.0,0.0,1.1086,1.0587,1.0199,0.9505,0.0,0.0,0.0,0.6913,0.6816,0.6423,0.5732,0.6431,0.693,0.6825,0.8315,0.9501,1.0284,1.1556,1.2823,1.4166,1.5026,1.5785,1.6358,1.6183,1.6089,1.5981,1.4634,1.3426,1.2398,1.0918,0.8976,0.6861,0.5703,0.491,0.4208,0.3491,0.358,0.4297,0.4914,0.5536,0.6248,0.8965,0.9749,1.0,1.2681,1.2522,1.1322,1.1488,1.089,1.0125,1.0212,1.0212,1.012,1.0294,1.0125,0.9951,0.9864,0.0,0.0,0.8632,0.8452,0.8277,0.7753,0.7925,0.8097,0.8101,0.8532,0.9056,0.9584,0.9758,0.9932,1.0269,1.0356,1.0616,1.1139,1.166,1.2186,1.2528,1.3052,1.3398,1.3398,1.3222,1.3052,1.2966,1.2875,1.2705,1.2272,1.2534,1.2699,1.2613,1.3626,1.4001,1.3724,1.4358,1.4418,1.3928,1.3783,1.3702,1.3557,1.3419,1.3622,1.4027,1.3882,1.4027,1.4386,1.5037,1.5338,1.548,1.548,1.5267,1.5133,0.0,0.0,1.0485,1.0583,0.9895,0.9008,0.8018,0.7822,0.7223,0.0,0.4822,0.4121,0.3323,0.3624,0.3825,0.3627,0.4524,0.5222,0.5322,0.6722,0.8113,0.9193,1.0378,1.1648,1.3,1.3957,1.4441,1.4657,1.493,1.4734,1.4052,1.2869,1.1973,1.1171,0.9514,0.7986,0.6511,0.4372,0.3666,0.3941,0.1702,0.188,0.34,0.2865,0.3401,0.4828,0.7727,0.9383,1.0504,1.2772,1.3215,1.2869,1.3021,1.2169,1.0895,1.0814,1.0641,1.0554,1.0641,1.0381,1.0038,0.9689,0.9777,0.0,0.8636,0.8978,0.941,0.8719,0.9152,0.9579,0.9749,0.9923,1.0274,1.1149,1.1585,1.158,1.0794,1.0783,1.1305,1.218,1.2272,1.2613,1.3476,1.3561,1.3561,1.3476,1.3307,1.3052,1.279,1.2966,1.2966,1.2705,1.3392,1.3561,1.3215,1.4314,1.4522,1.4009,1.4308,1.444,1.4191,1.4152,1.4129,1.4057,1.371,1.4057,1.4816,1.5125,1.533,1.5376,1.5824,1.5974,1.5903,1.5903,1.5903,1.5833,0.0,0.9296,0.87,0.9099,0.8301,0.7604,0.7409,0.6617,0.5724,0.4728,0.3016,0.1608,0.0803,0.0803,0.1004,0.1408,0.2009,0.2611,0.332,0.442,0.562,0.6623,0.7319,0.8605,1.0284,1.0574,1.1161,1.2237,1.2528,1.2635,1.2552,1.2225,1.1414,0.994,0.8812,0.7355,0.5534,0.3307,0.2685,0.3045,0.197,0.2059,0.2776,0.3223,0.4113,0.5447,0.7109,0.8686,1.0265,1.2009,1.3124,1.3542,1.2351,1.226,1.2339,1.1235,1.1327,1.1499,1.0636,1.0467,1.0467,1.0038,0.9777,0.0,0.9689,0.9598,0.9515,0.917,0.9257,0.934,0.9152,0.985,1.0631,1.0982,1.2186,1.296,1.2784,1.2954,1.3294,1.3886,1.3971,1.4055,1.4398,1.4482,1.4398,1.423,1.3815,1.3392,1.3052,1.3052,1.2966,1.2705,1.3392,1.3899,1.4398,1.5151,1.5532,1.5699,1.5358,1.5019,1.4766,1.4333,1.4129,1.4129,1.3985,1.476,1.5948,1.5895,1.5965,1.6167,1.689,1.6978,1.6691,1.6691,1.6412,1.6132,0.7198,0.6702,0.6307,0.6708,0.581,0.491,0.451,0.361,0.261,0.1508,0.0101,-0.0905,-0.1205,-0.1405,-0.1504,-0.1205,-0.0602,0.01,0.0805,0.221,0.3513,0.4522,0.5724,0.7024,0.8414,0.9209,0.9998,1.0779,1.0974,1.1168,1.1157,1.0664,0.9994,0.8894,0.7814,0.6394,0.4734,0.2772,0.188,0.1703,0.0985,0.1165,0.1882,0.2329,0.3221,0.4378,0.6313,0.8507,1.088,1.2528,1.2869,1.2687,1.2772,1.2601,1.226,1.1752,1.1843,1.1757,1.0906,1.0646,1.0641,1.0381,1.012,0.0,0.0,1.012,1.0381,1.0033,1.0554,1.0982,1.0799,1.158,1.2186,1.2357,1.3294,1.4146,1.4468,1.4223,1.4146,1.4398,1.4482,1.4566,1.465,1.4734,1.4573,1.4243,1.399,1.3899,1.388,1.3555,1.3717,1.4357,1.4538,1.497,1.556,1.6229,1.6555,1.6523,1.5856,1.5507,1.5314,1.4655,1.4561,1.4911,1.4832,1.5675,1.7001,1.6793,1.7001,1.7432,1.7579,1.7451,1.7185,1.7185,1.7047,1.6839,0.3793,0.3704,0.3609,0.3707,0.2808,0.1807,0.0905,0.01,-0.0904,-0.2311,-0.3016,-0.3318,-0.3115,-0.3712,-0.391,-0.3513,-0.3111,-0.2507,-0.1701,-0.01,0.1399,0.2599,0.4198,0.5603,0.6725,0.7987,0.886,0.9453,0.9473,0.956,0.9811,0.8954,0.8348,0.7764,0.6653,0.5359,0.3933,0.2416,0.1344,0.0807,0.009,0.0269,0.0987,0.1166,0.1882,0.3044,0.5606,0.8416,1.1149,1.2613,1.2351,1.1746,1.2936,1.2766,1.2089,1.2095,1.218,1.21,1.1257,1.0911,1.0733,1.0814,1.0641,1.0381,0.0,0.0,0.0,1.0809,1.1666,1.2534,1.2705,1.3137,1.3646,1.3815,1.4405,1.5061,1.5545,1.5213,1.4887,1.4894,1.4817,1.4817,1.4985,1.4985,1.4741,1.4341,1.4496,1.465,1.4629,1.4384,1.4706,1.5756,1.5861,1.6124,1.6468,1.7139,1.7404,1.7104,1.6346,1.5994,1.6005,1.5339,1.5338,1.5895,1.5807,1.6576,1.7774,1.755,1.7901,1.8482,1.8056,1.7794,1.7666,1.7666,1.7676,1.7608,0.0099,0.0702,0.0402,-0.01,-0.0501,-0.1003,-0.1804,-0.2806,-0.4007,-0.5313,-0.5617,-0.5622,-0.5634,-0.6523,-0.6418,-0.473,-0.5425,-0.5085,-0.3244,-0.2355,-0.1079,0.0784,0.1472,0.287,0.5031,0.4948,0.5684,0.7343,0.7102,0.7443,0.8341,0.7833,0.7108,0.6281,0.5542,0.4378,0.2956,0.1883,0.1435,0.1256,0.0538,0.0359,0.0448,0.0538,0.1254,0.2593,0.5689,0.807,0.9845,1.0458,1.1316,1.2077,1.123,1.2242,1.3425,1.166,1.226,1.3197,1.1666,1.1079,1.1003,1.1154,1.1241,1.1154,1.1149,0.0,1.1585,1.1241,0.0,1.1671,1.2528,0.0,0.0,1.423,1.4894,1.5311,1.5387,1.6041,1.6535,1.6706,1.5733,1.5333,1.6147,1.6057,1.565,1.5006,1.6041,1.5951,1.4243,1.553,1.5928,1.4866,1.6116,1.687,1.6952,1.7627,1.7934,1.7883,1.7098,1.6741,1.6757,1.6527,1.6315,1.6237,1.6697,1.7326,1.7969,1.7969,1.825,1.8741,1.8482,1.8414,1.8414,1.8414,1.8212,1.8008,-0.4311,-0.3381,-0.3396,-0.3529,-0.3832,-0.4243,-0.4887,-0.609,-0.7189,-0.7793,-0.8386,-0.8689,-0.8308,-0.9108,-0.9186,-0.7915,-0.7635,-0.707,-0.5953,-0.4395,-0.2822,-0.1443,-0.0385,0.1159,0.2924,0.3573,0.4516,0.5671,0.5751,0.604,0.645,0.6096,0.5768,0.5455,0.465,0.3846,0.2867,0.1793,0.1166,0.0807,0.0538,0.0269,0.018,0.0359,0.1432,0.3304,0.5515,0.7807,0.9836,1.0534,1.0971,1.1402,1.218,1.2169,1.1895,1.2266,1.2443,1.2437,1.1854,1.2339,1.2741,1.1929,1.2498,1.2899,1.1746,1.1843,1.2015,1.1757,0.0,0.0,0.0,0.0,0.0,0.0,1.5733,1.6312,1.6714,1.6788,1.6788,1.6632,1.664,1.6878,1.7423,1.718,1.6772,1.6057,1.6601,1.6601,1.5809,1.6519,1.6993,1.7326,1.7504,1.7683,1.7951,1.8282,1.8371,1.8362,1.7648,1.7268,1.7252,1.7054,1.7021,1.7148,1.7677,1.823,1.8721,1.8721,1.8865,1.8942,1.8875,1.8674,1.8482,1.8482,1.8674,1.8921,-0.9929,-0.8059,-0.7063,-0.7263,-0.7193,-0.7426,-0.8028,-0.9123,-0.9912,-0.9912,-1.05,-1.0812,-1.0475,-1.113,-1.1321,-1.0756,-0.99,-0.8901,-0.8094,-0.6157,-0.4397,-0.2736,-0.179,-0.0472,0.1237,0.1984,0.2918,0.3863,0.4158,0.4483,0.4847,0.4504,0.4385,0.4563,0.358,0.2865,0.233,0.1524,0.0807,0.0448,0.0448,0.0449,0.0269,0.0359,0.1611,0.3393,0.49,0.7017,0.9218,1.0091,1.0448,0.0,1.2351,1.2083,1.1381,1.2693,1.2954,1.2693,1.254,1.3178,1.3659,1.2619,1.3269,1.3827,1.2437,1.2448,1.2705,1.2448,1.2784,0.0,0.0,0.0,1.5235,1.5982,0.0,1.7139,1.77,1.7619,1.7448,1.7359,1.7844,1.8158,1.8301,1.8069,1.7666,1.7025,1.7577,1.7658,1.7196,1.7666,1.8301,1.9054,1.8727,1.8656,1.9011,1.9011,1.9011,1.9002,1.8284,1.7943,1.7989,1.7805,1.7811,1.8114,1.8643,1.9054,1.9351,1.9351,1.9341,1.9208,1.9208,1.9075,1.8808,1.8684,1.8998,1.9441,-1.7152,-1.3429,-1.0702,-1.1293,-1.0847,-1.0683,-1.1482,-1.1676,-1.1676,-1.1676,-1.1589,-1.1482,-1.1492,-1.2167,-1.2625,-1.2534,-1.2088,-1.1012,-0.8914,-0.7788,-0.571,-0.231,-0.2956,-0.2331,0.0095,-0.028,0.0185,0.1567,0.1809,0.2596,0.3933,0.3042,0.2955,0.3578,0.1881,0.1166,0.1166,0.0628,0.0448,0.0448,0.0628,0.0807,0.0987,0.0538,0.1165,0.2417,0.3573,0.5255,0.7115,0.8532,0.9405,0.0,0.0,0.0,1.3074,1.2492,1.3691,1.5054,1.3957,1.3372,1.3045,1.3052,1.3137,1.3137,1.3052,1.3398,1.3568,1.3398,1.3724,1.4223,1.4915,1.5409,1.5982,1.6886,1.7229,0.0,0.0,1.8371,1.8922,1.9668,1.9502,1.9018,1.8381,1.8479,1.8416,1.77,1.9222,1.945,1.7738,1.9283,1.9696,1.8638,1.9371,1.9863,1.9863,1.9863,1.9863,1.9854,1.9275,1.9005,1.9175,1.9041,1.9021,1.9065,1.9605,1.9736,1.9605,1.9605,1.9605,1.9605,1.9605,1.9605,1.955,1.9208,1.8998,1.8942,-2.1381,-1.9459,-1.7376,-1.5133,-1.4248,-1.3887,-1.3848,-1.409,-1.4276,-1.4449,-1.4539,-1.4392,-1.3938,-1.4513,-1.4513,-1.3412,-1.3091,-1.2182,-1.0405,-0.8989,-0.7111,-0.4608,-0.4788,-0.3807,-0.1463,-0.1724,-0.1084,0.0543,0.0719,0.1164,0.179,0.1433,0.1523,0.1881,0.1165,0.0904,0.1099,0.0824,0.0646,0.0653,0.0736,0.1007,0.128,0.0811,0.1344,0.2508,0.3398,0.508,0.0,0.8089,0.9235,1.0284,1.0895,1.123,1.1735,1.2863,1.3281,1.3522,0.0,0.0,1.5335,1.4048,0.0,1.5433,1.3717,1.3652,1.3828,1.3483,1.3808,1.4307,1.5151,1.5484,1.6064,1.7139,1.7465,1.7861,0.0,1.9982,2.1145,2.169,2.1364,2.0981,2.0682,2.0702,2.0304,1.9274,2.0079,2.0157,1.8807,1.9844,2.0167,1.945,1.9784,1.9863,1.9863,1.9863,1.9863,1.9863,1.9722,1.9726,2.0028,1.9817,1.9864,2.0098,2.0074,1.9933,1.9802,1.9802,1.9736,1.9605,1.9605,1.9605,1.9605,1.9473,1.966,2.0172,-2.4472,-2.3441,-2.1748,-1.842,-1.7095,-1.6354,-1.5727,-1.5878,-1.6073,-1.623,-1.6402,-1.6533,-1.6386,-1.6488,-1.6324,-1.5574,-1.4697,-1.3423,-1.1484,-1.0093,-0.8035,-0.5153,-0.5384,-0.4469,-0.2151,-0.2327,-0.188,-0.0628,-0.0179,0.009,0.0269,0.0269,0.0448,0.0718,0.0359,0.0363,0.0555,0.0648,0.0655,0.0666,0.0839,0.111,0.1478,0.1094,0.1444,0.224,0.0,0.4552,0.6316,0.7467,0.8615,0.9854,1.0977,1.123,1.1488,1.3215,1.3626,1.3691,1.4566,1.5703,0.0,1.4803,1.5462,0.0,1.4307,1.4159,1.4412,1.4468,1.4468,1.4963,1.6429,1.637,1.6558,1.7781,1.7942,1.8256,0.0,2.1125,2.2531,2.283,2.2596,2.2295,2.1949,2.1873,2.1318,2.0226,2.0712,2.0634,1.9942,2.042,2.0576,2.0264,2.0186,2.0177,2.0177,2.0177,2.0177,2.0177,2.0108,2.0332,2.0935,2.0627,2.066,2.1063,2.0841,2.0608,2.0388,2.0388,2.0324,2.0194,2.0194,2.0194,2.0129,1.9987,2.0549,2.1428,-2.6793,-2.539,-2.3677,-2.1207,-1.9455,-1.8132,-1.7317,-1.7155,-1.7163,-1.7155,-1.7309,-1.7767,-1.8724,-1.8096,-1.7902,-1.8598,-1.6776,-1.4616,-1.2322,-1.1252,-0.8664,-0.4233,-0.4966,-0.438,-0.2063,-0.2423,-0.2333,-0.1884,-0.1076,-0.0628,-0.0448,-0.0448,-0.0269,-0.009,-0.0538,-0.0544,-0.037,0.0185,0.0468,0.0476,0.0934,0.1297,0.1483,0.1483,0.1465,0.1529,0.2604,0.3582,0.4554,0.6492,0.7735,0.8803,1.0631,1.174,1.2419,1.3385,1.465,1.5567,1.5249,1.5416,1.5658,1.5249,1.5173,0.0,0.0,0.0,1.5409,1.6183,1.5951,1.6191,1.8426,1.798,1.761,1.8798,1.8745,1.8895,2.0119,2.1832,2.3139,2.3327,2.318,2.282,2.2252,2.2004,2.1538,2.0722,2.1041,2.1138,2.0984,2.0906,2.0906,2.0906,2.0731,2.0644,2.0644,2.0566,2.0566,2.0566,2.042,2.0801,2.1722,2.1471,2.1593,2.2016,2.1904,2.1617,2.1256,2.1233,2.1221,2.1221,2.1221,2.1221,2.1221,2.0794,2.1467,2.2652,-2.9066,-2.7087,-2.531,-2.4279,-2.2211,-2.0362,-1.9502,-1.9107,-1.9027,-1.9177,-1.8948,-1.8913,-1.9163,-1.9101,-1.8896,-1.8426,-1.7286,-1.5838,-1.3841,-1.2118,-0.9927,-0.7173,-0.6979,-0.6166,-0.4476,-0.4295,-0.3671,-0.2869,-0.1973,-0.1346,-0.1166,-0.1166,-0.1076,-0.0987,-0.0807,-0.0544,-0.037,0.037,0.0936,0.1239,0.1328,0.142,0.1515,0.0,0.151,0.1687,0.3315,0.4076,0.4554,0.6508,0.7749,0.8715,0.9927,1.088,1.1832,1.3307,1.4321,1.5068,1.5409,1.5989,1.6319,1.5914,1.5997,1.5899,0.0,0.0,0.0,0.0,0.0,0.0,0.0,1.8532,1.8718,1.8496,1.9371,2.0391,2.1431,2.251,2.3582,2.4432,2.4059,2.3486,2.3075,2.2916,2.2617,2.1797,2.1655,2.1655,2.1578,2.1436,2.1282,2.1138,2.0896,2.0819,2.0819,2.0654,2.0566,2.0566,2.0566,2.1257,2.2624,2.1912,2.2259,2.3395,2.2347,2.1812,2.1663,2.1307,2.1221,2.1221,2.1221,2.1463,2.1865,2.1628,2.2224,2.3135,-3.0211,-2.8258,-2.6582,-2.573,-2.4422,-2.3114,-2.1855,-2.1131,-2.0712,-2.0928,-2.0643,-2.0356,-2.0416,-2.0184,-1.959,-1.8532,-1.7585,-1.617,-1.4103,-1.2381,-1.0554,-0.8363,-0.7517,-0.634,-0.4919,-0.4115,-0.3491,-0.3047,-0.1973,-0.1525,-0.1615,-0.1436,-0.1436,-0.1346,-0.1076,-0.0726,-0.0463,0.0942,0.1805,0.2287,0.2785,0.2986,0.0,0.2986,0.2986,0.3174,0.4561,0.4736,0.4523,0.6,0.7397,0.8627,0.9575,1.0534,1.1585,1.2875,1.3977,1.4817,1.5151,1.5982,1.6656,1.6409,1.6484,1.6394,1.5974,1.6312,1.6878,0.0,1.7971,1.8612,0.0,0.0,1.9353,1.9054,1.9923,2.0924,2.1669,2.2809,2.3863,2.4791,2.4731,2.4587,2.4311,2.3434,2.2703,2.2101,2.2252,2.2176,2.1807,2.2014,2.1863,2.1359,2.1205,2.1128,2.1061,2.0896,2.0886,2.0886,2.1242,2.2059,2.3231,2.3039,2.3532,2.4438,2.3625,2.3036,2.2598,2.2313,2.2064,2.1862,2.1862,2.2149,2.2555,2.2445,2.2859,2.3577,-3.0478,-2.8903,-2.7458,-2.6314,-2.6202,-2.5775,-2.4123,-2.3102,-2.246,-2.2428,-2.2179,-2.1916,-2.1837,-2.1104,-2.0148,-1.8841,-1.7747,-1.6156,-1.4056,-1.2629,-1.0855,-0.8812,-0.7443,-0.606,-0.4645,-0.3489,-0.2955,-0.3224,-0.1972,-0.1524,-0.1973,-0.1615,-0.1436,-0.1436,-0.1166,-0.0816,-0.0185,0.1628,0.2793,0.3428,0.4363,0.4787,0.4787,0.4799,0.4803,0.4901,0.5869,0.5431,0.4686,0.5597,0.7061,0.8627,0.9575,1.0534,1.1499,1.2448,1.3717,1.4817,1.4817,1.5816,1.6894,1.6894,1.6894,1.6812,1.664,1.6968,1.7538,1.831,1.8541,1.9316,0.0,0.0,1.9904,2.0001,2.0615,2.1211,2.1886,2.322,2.4337,2.4909,2.5358,0.0,2.5606,2.3852,2.2542,2.2327,2.2777,2.2703,2.1949,2.2606,2.2596,2.1655,2.1578,2.1502,2.1282,2.1282,2.1282,2.1282,2.2069,2.2872,2.3599,2.4337,2.4907,2.521,2.5136,2.457,2.3686,2.355,2.3169,2.2678,2.28,2.2969,2.3185,2.3305,2.3662,2.4015,-3.0115,-2.9022,-2.8105,-2.7149,-2.7136,-2.7002,-2.6264,-2.53,-2.4238,-2.3183,-2.2832,-2.2477,-2.1845,-2.1399,-2.0722,-1.9737,-1.8221,-1.6796,-1.5619,-1.3646,-1.1843,-1.0313,-0.924,-0.8006,-0.6435,-0.5361,-0.4914,-0.5003,-0.3401,-0.2599,-0.2689,-0.2062,-0.1615,-0.1436,-0.1166,-0.0091,0.1571,0.2326,0.329,0.4474,0.4655,0.4787,0.4795,0.4771,0.48,0.4891,0.5894,0.5905,0.5796,0.6788,0.7688,0.8627,0.9575,1.0534,1.1499,1.2705,1.4062,1.5311,1.5462,1.6624,1.7797,1.7797,1.7797,1.7789,1.7708,1.804,1.8603,1.9204,1.9678,2.0138,2.1181,0.0,0.0,2.0874,2.1603,2.2723,2.4447,2.5073,2.5587,2.6214,2.6177,2.5958,2.5627,2.4624,2.3925,2.3593,2.3372,2.3075,2.2553,2.2841,2.2767,2.2252,2.2101,2.1883,2.1731,2.1655,2.1578,2.1436,2.236,2.3147,2.3734,2.4601,2.5228,2.5738,2.5296,2.5001,2.4743,2.3858,2.3169,2.2739,2.3245,2.3471,2.3636,2.4496,2.4894,2.4908,-3.019,-2.9212,-2.8573,-2.857,-2.8143,-2.7776,-2.767,-2.668,-2.5429,-2.4124,-2.3446,-2.2732,-2.1761,-2.1413,-2.0799,-1.9835,-1.8221,-1.6935,-1.6034,-1.3957,-1.2089,-1.0869,-0.9749,-0.8452,-0.6792,-0.5716,-0.5181,-0.5184,-0.3937,-0.3135,-0.2867,-0.251,-0.2062,-0.1346,-0.0907,0.0275,0.2034,0.3115,0.0,0.5603,0.6198,0.6443,0.6448,0.6506,0.6429,0.6523,0.6961,0.7106,0.7101,0.7417,0.8481,0.9632,1.0139,1.123,1.2534,1.3052,1.4062,1.4977,1.5538,1.6542,1.7465,1.7878,1.804,1.804,1.804,1.8442,1.8922,1.9231,2.001,2.0779,2.1603,2.1593,0.0,0.0,2.2113,2.2638,2.4494,2.5448,2.6195,2.6777,2.6845,2.6722,2.6557,2.5697,2.4874,2.407,2.3886,2.3372,2.2628,2.3224,2.3224,2.2402,2.2402,2.2327,2.2101,0.0,2.2241,2.2585,2.3452,2.4169,2.4886,2.5697,2.622,2.6452,2.6189,2.59,2.5586,2.4809,2.4243,2.3917,2.3898,2.4073,2.4393,2.4429,2.4838,2.53,-3.0539,-2.9574,-2.9008,-2.9676,-2.8917,-2.8249,-2.8247,-2.7298,-2.6144,-2.4885,-2.3871,-2.2847,-2.1639,-2.1338,-2.0731,-1.9599,-1.8149,-1.6935,-1.5959,-1.4048,-1.2351,-1.0956,-0.9923,-0.8623,-0.6792,-0.5802,-0.528,-0.5315,-0.4393,-0.3678,-0.3156,-0.2963,-0.2246,-0.1084,-0.0275,0.1021,0.0,0.0,0.5486,0.6792,0.7694,0.8038,0.8038,0.8038,0.8038,0.8137,0.8333,0.855,0.869,0.866,0.95,1.0563,1.0614,1.1929,1.3398,1.3476,1.3977,1.472,1.5455,1.6296,1.7131,1.787,1.8193,1.8362,1.8362,1.8754,1.9152,1.9152,2.0167,2.1242,2.1939,2.2004,0.0,0.0,0.0,2.2914,2.4302,2.5681,2.6697,2.7113,2.7339,2.7378,2.7311,2.6414,2.5441,2.4815,2.4504,2.3886,2.2628,2.3593,2.3666,2.2777,2.2777,2.2777,2.2628,0.0,2.2905,2.3588,2.4409,2.5205,2.5894,2.6714,2.7011,2.7024,2.7024,2.6704,2.614,2.5679,2.5346,2.5129,2.4794,2.4909,2.5282,2.4853,2.526,2.6009,-3.1188,-3.0222,-2.956,-2.9591,-2.9052,-2.8314,-2.7683,-2.6921,-2.6032,-2.4862,-2.379,-2.2788,-2.164,-2.1312,-2.0722,-1.946,-1.8069,-1.6854,-1.5816,-1.4398,-1.2693,-1.0697,-1.0356,-0.9048,-0.652,-0.634,-0.6224,-0.6167,-0.551,-0.4791,0.0,-0.3253,-0.1991,-0.0369,0.0,0.0,0.0,0.5264,0.6611,0.7819,0.7935,0.8038,0.8038,0.8038,0.8137,0.8531,0.9509,0.9989,1.0329,1.1347,1.1283,1.083,1.0619,1.1929,1.3483,1.3652,1.4307,1.5047,1.5304,1.6617,1.7925,1.8006,1.8745,1.9478,1.9478,1.9636,1.9784,1.9784,2.0702,2.1308,2.0991,2.2295,2.3191,0.0,0.0,2.4969,2.5726,2.6642,2.7365,2.7458,2.7445,2.7311,2.7095,2.6,2.5767,2.6735,2.5673,2.4443,2.3298,2.3666,2.3897,2.3751,2.3446,2.3298,2.353,2.315,2.3202,2.3818,2.4779,2.5511,2.6114,2.6918,2.7146,2.7024,2.7024,2.6704,2.6178,2.6114,2.5781,2.5358,2.5831,2.6052,2.6222,2.729,2.774,2.7926,-3.256,-3.1744,-3.1038,-3.0852,-2.9756,-2.8671,0.0,-2.637,-2.5016,-2.394,-2.3294,-2.251,-2.1425,-2.1128,-2.0498,-1.9213,-1.7989,-1.6854,-1.5794,-1.4475,-1.2778,-1.0697,-1.0438,-0.9139,-0.67,-0.652,-0.6409,-0.6276,-0.5967,-0.5155,-0.3876,-0.3388,0.0,0.0,0.0,0.2988,0.4401,0.5637,0.6886,0.8038,0.8038,0.8038,0.8038,0.8726,0.9118,0.9509,1.0587,1.117,1.1623,1.1972,1.2145,1.2193,1.2136,1.2918,1.3828,1.3913,1.4159,1.465,1.5401,1.6453,1.7577,1.8247,1.9143,1.9794,1.9794,1.9951,2.0108,2.0108,2.0557,2.1165,2.1973,2.2209,2.2809,2.4253,0.0,0.0,2.6445,2.7391,2.7934,2.7802,2.7577,2.7298,2.7111,2.6195,2.5873,2.6377,2.5441,2.4671,2.4253,2.4238,2.4116,2.3751,0.0,2.3446,2.3446,2.315,2.335,2.3963,2.4862,2.5652,2.6346,2.7053,2.7403,2.7268,2.7268,2.7139,2.6878,2.6932,2.6789,2.6478,2.6361,2.6535,2.6934,2.7405,2.7794,2.8211,-3.3745,-3.2798,-3.2044,-3.1814,-3.0242,-2.8771,-2.7749,-2.5933,-2.4374,-2.3368,-2.2649,-2.2004,-2.1282,-2.0984,-2.0342,-1.9036,-1.7908,-1.6854,-1.5711,-1.4132,-1.2431,-1.0697,-1.0096,-0.8794,-0.6704,-0.652,-0.634,-0.6239,-0.5836,-0.4943,0.0,0.0,0.0,0.0,0.2432,0.3826,0.5033,0.6299,0.7338,0.8038,0.8333,0.8432,0.8627,0.9706,1.0293,1.0685,1.1755,1.2441,1.2898,1.3104,1.3391,1.3525,1.3175,1.3528,1.4088,1.4166,1.4412,1.4741,1.556,1.6609,1.7658,1.8487,1.9381,2.002,2.002,2.0186,2.042,2.042,2.0489,2.1011,2.2349,2.2274,2.2649,2.4707,0.0,0.0,2.6358,2.7229,2.7762,2.7604,2.7191,2.6909,2.6976,2.6208,2.5955,2.6471,2.5746,2.5099,2.4957,2.4671,2.4334,0.0,0.0,0.0,2.3801,2.3372,2.357,2.4264,2.4933,2.5721,2.6427,2.7188,2.7523,2.7523,2.7523,2.7469,2.7403,2.7469,2.7469,2.7297,2.6868,2.6961,2.7373,2.7776,2.8152,2.8639,-3.4409,-3.3137,-3.2097,-3.2109,-3.0271,-2.8441,-2.7272,-2.5763,-2.4374,-2.3368,-2.2069,-2.1205,-2.1205,-2.0984,-2.0264,-1.8718,-1.7827,-1.6772,-1.5477,-1.3281,-1.1574,-1.0611,-0.9231,-0.7837,-0.6428,-0.6428,-0.6292,-0.6083,-0.5215,0.0,-0.3129,0.0,0.1251,0.2837,0.3913,0.5138,0.6434,0.7537,0.7939,0.8137,0.9118,0.9608,0.9706,1.0783,1.1463,1.215,1.3125,1.3806,1.4388,1.5439,1.5438,1.4731,1.3535,1.3528,1.4166,1.4314,1.5047,1.5703,1.5951,1.7261,1.8559,1.8638,1.945,2.0264,2.0264,2.0411,2.0566,2.0566,2.0566,2.0867,2.169,2.2563,2.3147,2.2925,0.0,0.0,2.531,2.6114,2.6714,2.6714,2.6094,2.5886,2.6645,2.5873,2.6057,2.7842,2.6824,2.5873,2.5004,0.0,0.0,2.4933,2.4683,0.0,2.5016,2.4093,2.3948,2.4707,2.5087,2.5721,2.6427,2.7188,2.7523,2.7523,2.7523,2.7523,2.7523,2.7523,2.7523,2.7523,2.7523,2.7523,2.7643,2.8989,2.949,2.9676,-3.5831,-3.4551,-3.3252,-3.2275,-3.0334,-2.8268,-2.6388,-2.4968,-2.3588,-2.222,-2.1568,-2.0886,-2.0167,-1.9932,-1.9213,0.0,-1.6935,-1.5786,0.0,-1.347,-1.218,-1.0443,-0.9749,-0.8623,-0.67,-0.652,-0.6382,-0.6269,0.0,0.0,0.0,0.0097,0.157,0.3094,0.4187,0.53,0.6437,0.7537,0.8432,0.9118,0.9509,0.9998,1.0779,1.2047,1.2732,1.3216,1.4382,1.5057,1.535,1.5737,1.5444,1.4943,1.4487,1.4642,1.5068,1.5213,1.5861,1.6675,1.709,1.7989,1.8877,1.9054,1.9775,2.0489,2.0489,2.0566,2.0566,2.0566,2.0566,2.0867,2.1863,2.2231,2.2883,2.412,2.5004,0.0,2.6126,2.6496,2.6645,2.6371,2.6025,2.5968,2.6427,2.6025,2.6094,2.704,2.644,2.6082,0.0,0.0,0.0,0.0,2.4874,0.0,2.4694,2.4261,2.4116,2.4394,2.5028,2.5861,2.6837,2.7323,2.7523,2.7523,2.7523,2.7523,2.7523,2.7523,2.7523,2.7523,2.7523,2.7523,2.759,2.8468,2.9079,2.9628,-3.5805,-3.4615,-3.3355,-3.1758,-2.9761,-2.7722,-2.5827,-2.4411,-2.3095,-2.1645,-2.1031,-2.0401,-1.9678,-1.8807,0.0,-1.6854,-1.6281,-1.5296,-1.3822,-1.2869,-1.174,-1.0356,-0.9318,-0.8097,-0.67,-0.6432,0.0,-0.5506,-0.3521,-0.1545,0.0297,0.0893,0.2094,0.3823,0.4524,0.5627,0.7235,0.7836,0.8627,0.941,1.0194,1.0877,1.1658,1.3221,1.3998,1.4382,1.5153,1.5635,1.5812,1.5705,1.5351,1.5033,1.5014,1.5483,1.5959,1.5869,1.6519,1.7407,1.8149,1.8957,1.9599,1.9775,2.0177,2.0566,2.0566,2.0566,2.0644,2.0731,2.0731,2.0964,2.1655,2.2101,2.2745,2.3902,2.4791,2.5441,2.5779,2.622,2.6358,2.5931,2.5873,2.6094,2.6496,2.6302,2.6383,2.6863,2.6521,0.0,0.0,0.0,0.0,2.5382,2.5312,2.5182,2.4909,2.4611,2.4611,2.4743,2.5499,2.6402,2.739,2.7603,2.7736,2.7736,2.7669,2.759,2.759,2.7523,2.7523,2.7523,2.7523,2.7523,2.759,2.8222,2.8903,2.9566,-3.4678,-3.3643,-3.2531,0.0,-2.873,0.0,-2.5448,-2.399,-2.2723,-2.1568,-2.0547,-1.9747,-1.9441,-1.7594,-1.6221,-1.5959,0.0,0.0,0.0,-1.1735,-1.0529,-1.0183,-0.8101,-0.67,-0.6428,-0.608,-0.5292,-0.3798,-0.1483,0.0202,0.1212,0.1515,0.2822,0.4824,0.4924,0.6226,0.8432,0.8528,0.8726,0.9217,1.1268,1.215,1.2441,1.4394,1.5267,1.554,1.554,1.5635,1.5785,1.5498,1.5295,1.5089,1.506,1.5987,1.6919,1.6281,1.6927,1.8069,1.9134,2.001,2.0566,2.0566,2.0566,2.0566,2.0644,2.0644,2.0654,2.0906,2.0906,2.0984,2.1205,2.2014,2.266,2.2734,2.4131,2.5016,2.4492,2.5429,2.5931,2.5417,0.0,0.0,2.6645,2.6714,2.6863,0.0,2.7079,0.0,0.0,0.0,2.5758,2.591,2.591,2.5828,2.5606,2.5229,2.5288,2.5697,2.6526,2.7364,2.8079,2.8079,2.8079,2.8079,2.7921,2.7855,2.7789,2.759,2.7536,2.7536,2.7536,2.7536,2.759,2.8222,2.8903,2.9628,0.0,0.0,-3.136,-3.0451,-2.819,-2.6276,-2.532,-2.3565,-2.1842,-2.045,-1.9913,-1.9036,-1.7359,-1.6535,-1.5718,-1.4887,-1.4727,-1.4048,-1.2528,-1.1923,-1.088,-0.8973,-0.8273,-0.7394,-0.6432,-0.527,-0.3555,-0.1236,-0.0692,0.0303,0.1516,0.2422,0.3626,0.5129,0.5927,0.7226,0.8726,0.9608,1.0489,1.1365,1.2635,1.3613,1.4394,1.5159,1.5452,1.554,1.5635,1.573,1.5785,1.5683,1.591,1.6199,1.6144,1.6802,1.7496,1.7334,1.847,1.9775,2.0167,2.0401,2.0566,2.0566,2.0566,2.0644,2.0819,2.0819,2.0906,2.1051,2.1138,2.1205,2.1359,2.1645,2.2025,2.2767,2.3508,2.4154,2.4564,2.53,2.5676,2.5523,2.5746,2.6107,2.6645,2.6714,2.6726,0.0,0.0,2.6658,2.6302,2.6188,2.6062,2.6131,2.6131,2.605,2.584,2.5758,2.5873,2.6208,2.696,2.7456,2.7669,2.7947,2.8079,2.8079,2.8079,2.8013,2.8013,2.8013,2.7947,2.7947,2.7947,2.7947,2.8013,2.8131,2.8917,2.9889,-3.2788,-3.1453,-3.0125,-2.8933,-2.6873,-2.518,-2.4316,-2.2531,-2.076,-1.9502,-1.8709,-1.7747,-1.6378,-1.5636,-1.488,-1.3873,-1.3717,-1.3124,-1.21,-1.123,-1.0014,-0.8448,-0.7746,-0.7044,-0.6254,-0.4823,-0.2826,-0.0285,0.0294,0.12,0.252,0.3122,0.4323,0.6126,0.6728,0.8018,0.9702,1.0293,1.1268,1.2441,1.3414,1.4196,1.4783,1.5547,1.5832,1.5927,1.6567,1.6664,1.6586,1.6808,1.6999,1.7173,1.708,1.7663,1.831,1.8399,1.9125,1.9942,2.0489,2.0566,2.0644,2.0731,2.0731,2.0819,2.0974,2.1061,2.1051,2.1282,2.1359,2.1436,2.1578,2.1655,2.1959,2.2852,2.3372,2.3801,2.4348,2.4731,2.5111,2.5523,2.5523,2.5804,2.6726,2.693,2.6998,2.6998,2.6998,0.0,2.6589,2.6465,2.6396,2.6339,2.6339,2.627,2.6062,2.6496,2.6812,2.7015,2.796,2.8379,2.8249,2.8457,2.8522,2.8522,2.8327,2.8379,2.8638,2.8276,2.821,2.8341,2.8145,2.8079,2.8079,2.8079,2.8753,2.9608,-3.0881,-2.99,-2.885,-2.7018,-2.5356,-2.3906,-2.2955,-2.1237,-1.965,-1.855,-1.7342,-1.637,-1.5613,-1.4713,-1.3795,-1.2851,-1.2431,-1.2009,-1.158,-1.0014,-0.8794,-0.8006,-0.6956,-0.6166,-0.5902,-0.43,-0.2286,0.0,0.107,0.2277,0.362,0.382,0.512,0.7319,0.7617,0.8901,1.0877,1.117,1.195,1.3022,1.41,1.4586,1.4682,1.5927,1.6407,1.6574,1.771,1.7873,1.7655,1.8213,1.8219,1.8071,1.7946,1.855,1.9283,1.945,1.9539,1.9696,2.0411,2.0644,2.0654,2.0829,2.0906,2.0984,2.1205,2.1282,2.1282,2.1502,2.1578,2.1589,2.1807,2.1949,2.2166,2.2703,2.3298,2.3801,2.3986,0.0,2.4683,2.5569,2.5429,2.5652,2.6807,2.7146,2.7201,2.7268,2.7201,2.7134,2.6943,2.6794,2.6589,2.6533,2.6533,2.6396,2.6213,2.7162,2.767,2.767,2.8881,2.9289,2.9035,2.9099,2.9099,2.9099,2.8688,2.8803,2.9247,2.8587,2.8471,2.8651,2.8406,2.8341,2.8341,2.8341,2.8702,2.9387,-3.0067,-2.8738,-2.7392,-2.6189,-2.4661,-2.3267,-2.2499,-2.0556,-1.8789,-1.7666,-1.6862,-1.5711,-1.3685,-1.3184,-1.2595,-1.1666,-1.0448,-0.9753,-0.9666,-0.8965,-0.8093,-0.7054,-0.6435,-0.5725,-0.4917,-0.2455,-0.0372,0.1239,0.1654,0.2476,0.3621,0.4722,0.6121,0.7614,0.9395,1.0583,1.1268,1.3022,1.3902,1.41,1.5159,1.5737,1.6028,1.7044,1.7591,1.7817,1.8528,1.8653,1.858,1.8261,1.8588,1.9144,1.9092,1.9687,2.0323,2.0401,2.0411,2.0411,2.0566,2.0731,2.0829,2.0906,2.1061,2.1215,2.1436,2.1425,2.1502,2.1731,2.1731,2.1731,2.1807,2.2446,2.2723,2.2101,2.3265,2.4143,2.3728,0.0,2.5312,2.5828,2.6107,2.6371,2.6726,2.6782,2.6863,2.7011,2.6863,2.6794,2.6726,2.6589,2.6521,2.6533,2.6533,2.6396,2.6213,2.7066,2.7443,2.7284,2.83,2.8716,2.8716,2.8972,2.9099,2.9099,2.9289,2.9289,2.9149,2.9289,2.9226,2.9035,2.9289,2.9352,2.9352,2.9352,2.9761,3.0343,-2.8343,-2.7154,-2.5889,-2.4482,-2.325,-2.1985,-2.069,-1.907,-1.7488,-1.5756,-1.4942,-1.3944,-1.2254,-1.1906,-1.1391,-1.0453,-0.9584,-0.8803,-0.8101,-0.7834,-0.7309,-0.6438,-0.5722,-0.4467,-0.2592,-0.1354,0.0092,0.1689,0.2391,0.3505,0.4851,0.609,0.7419,0.8718,1.0288,1.1365,1.2145,1.3794,1.4867,1.5356,1.6021,1.6574,1.7225,1.787,1.8294,1.8725,1.9735,1.9765,1.9364,1.9669,1.9894,2.001,1.9989,2.0245,2.0644,2.0731,2.0741,2.0741,2.0741,2.0896,2.1051,2.1205,2.1282,2.1436,2.1655,2.2035,2.2327,2.2402,2.2756,2.3106,2.318,2.3537,2.3818,2.3829,2.4409,0.0,2.517,2.5158,2.5453,2.6245,2.6025,2.6094,2.6645,2.6714,2.6726,2.6794,2.6875,2.6794,2.6726,2.6658,2.6589,2.6533,2.6533,2.6521,2.6658,2.7364,2.7829,2.7973,2.8766,2.9035,2.8844,2.9035,2.9099,2.9099,2.9099,2.9289,2.9602,2.9415,2.9477,2.9665,2.9602,2.9602,2.9602,2.9602,2.9775,3.0129,-2.6276,-2.525,-2.41,-2.235,-2.1314,-2.009,-1.8355,-1.7139,-1.5749,-1.4008,-1.3178,-1.2248,-1.1058,-1.0707,-1.0178,-0.9231,-0.8715,-0.7925,-0.6691,-0.6514,-0.6251,-0.5813,-0.4559,-0.286,-0.0715,-0.0358,0.0543,0.2127,0.3095,0.449,0.6249,0.7223,0.8481,1.0015,1.1175,1.2242,1.321,1.4561,1.5629,1.6312,1.6763,1.7404,1.8126,1.8692,1.9208,1.9817,2.0802,2.069,2.0223,2.0873,2.085,2.0654,2.0654,2.0731,2.0809,2.0896,2.0984,2.1061,2.0984,2.1138,2.1282,2.1436,2.1655,2.1883,2.2025,2.2767,2.335,2.335,2.3841,2.4325,2.4469,2.4624,2.4909,2.5334,0.0,2.5779,2.6302,2.5721,2.5652,2.6645,2.6151,2.5955,2.6726,2.6726,2.6714,2.6714,2.6794,2.6807,2.6658,2.6658,2.6589,2.6533,2.6533,2.6658,2.704,2.7617,2.8078,2.8522,2.9099,2.9226,2.8972,2.9035,2.9099,2.9099,2.8908,2.9226,2.9865,2.9477,2.9602,2.9988,2.9851,2.9851,2.9851,2.9851,2.9851,2.9974,-2.4186,-2.2859,-2.1466,-1.979,-1.877,-1.7662,-1.6055,-1.4566,-1.3497,-1.3093,-1.2328,-1.13,-0.984,-0.9492,-0.8882,-0.7749,-0.7231,-0.6432,-0.5265,-0.4732,-0.4556,-0.4828,-0.2592,-0.1073,-0.0447,0.0448,0.172,0.3229,0.3513,0.4897,0.7318,0.7624,0.8964,1.1175,1.2441,1.3505,1.4657,1.5906,1.6487,1.6676,1.7584,1.8041,1.8572,2.0015,2.0665,2.1007,2.111,2.1118,2.1092,2.0752,2.0761,2.0906,2.0906,2.0984,2.1128,2.1205,2.1282,2.1436,2.1205,2.1359,2.1502,2.1502,2.2176,2.2927,2.2927,2.3632,2.4276,2.4276,2.4469,2.466,2.466,2.5392,2.5685,2.4886,0.0,0.0,2.5894,2.6126,2.6496,2.6943,2.6943,2.6875,2.6943,2.6794,2.6714,2.6714,2.6589,2.6521,2.6521,2.6533,2.6533,2.6533,2.6533,2.6714,2.7162,2.7443,2.7776,2.8287,2.8573,2.8651,2.8651,2.8972,2.9099,2.9099,2.9415,2.9415,2.9226,2.9803,2.9865,2.9679,3.0266,3.0522,3.0522,3.0522,3.0522,3.0568,-2.2796,-2.1931,-2.071,-1.877,-1.7912,-1.6879,-1.4935,-1.3762,-1.2753,-1.1918,-1.0961,-1.0009,-0.889,-0.783,-0.7034,-0.6419,-0.5531,-0.4643,-0.3751,-0.2949,-0.2413,-0.2234,-0.1341,-0.0179,0.1342,0.1969,0.2962,0.4338,0.5304,0.6391,0.7709,0.9019,1.0238,1.1273,1.3202,1.4221,1.4703,1.6223,1.7037,1.7393,1.7933,1.8685,1.9713,2.0256,2.0745,2.1167,2.1186,2.1144,2.0968,2.0878,2.0896,2.1061,2.1061,2.1128,2.1205,2.1359,2.1502,2.1807,2.2176,2.2402,2.2402,2.2402,2.3054,2.3694,2.3694,2.4348,2.4933,2.4933,2.5429,2.5849,2.607,2.6427,2.6564,2.6333,0.0,2.7053,2.6633,2.6782,2.6985,2.7146,2.7079,2.7011,2.7146,2.7011,2.6875,2.6875,2.6807,2.6739,2.6658,2.6521,2.6533,2.6533,2.6905,2.7284,2.767,2.7736,2.8274,2.9085,2.9149,2.9226,2.9226,2.9352,2.9289,2.9099,2.9226,2.9226,2.9099,2.9352,2.9665,2.9927,3.0158,3.0401,3.0568,3.0568,3.0568,3.0687,-2.0941,-2.0178,-1.9061,-1.6936,-1.6219,-1.5238,-1.3269,-1.2425,-1.1655,-1.0463,-0.941,-0.8444,-0.7665,-0.6331,-0.5445,-0.5085,-0.4107,-0.3217,-0.2413,-0.0983,-0.0179,-0.0179,0.0179,0.1073,0.2685,0.3218,0.4196,0.5617,0.6598,0.7656,0.88,1.0194,1.1308,1.2215,1.3854,1.4767,1.5159,1.6571,1.7447,1.7854,1.8555,1.9531,2.04,2.0615,2.0895,2.1301,2.1164,2.1085,2.0984,2.0984,2.1138,2.1282,2.1282,2.1359,2.1512,2.1883,2.2101,2.2327,2.3128,2.3497,2.3644,2.3423,2.3925,2.4492,2.4492,2.5146,2.5734,2.5734,2.6233,2.6739,2.7011,2.7079,2.7146,2.7335,2.7469,2.7403,2.7214,2.7268,2.7335,2.7335,2.7214,2.7214,2.7335,2.7214,2.7079,2.7079,2.7011,2.6943,2.6794,2.6658,2.6658,2.6918,2.7297,2.7802,2.8519,2.839,2.8803,2.9741,2.9665,2.9602,2.9602,2.9602,2.9477,2.9289,2.9289,2.9289,2.9289,2.9352,2.9665,3.0111,3.0233,3.0401,3.0568,3.0568,3.0568,3.0687,-1.8381,-1.7261,-1.6034,-1.4035,-1.3275,-1.2419,-1.0804,-1.0207,-0.9689,-0.8999,-0.7665,-0.6599,-0.6157,-0.5001,-0.4111,-0.3667,-0.3129,-0.2324,-0.1163,0.1163,0.206,0.1166,0.206,0.2774,0.322,0.4111,0.5442,0.7122,0.7122,0.8436,1.0954,1.0949,1.2053,1.4109,1.4372,1.5102,1.6109,1.7231,1.766,1.7834,1.9639,2.04,2.0448,2.0972,2.1311,2.1481,2.1065,2.1061,2.1205,2.1205,2.1359,2.1502,2.1502,2.1655,2.1949,2.2777,2.3001,2.3139,2.3902,2.4707,2.5087,2.4337,2.4707,2.5312,2.5312,2.6013,2.6714,2.6714,2.6863,2.7079,2.7268,2.7268,2.7335,2.7469,2.7523,2.7523,2.7523,2.7523,2.7523,2.7523,2.7523,2.7523,2.7523,2.7403,2.7268,2.7268,2.7146,2.7024,2.7024,2.6794,2.7053,2.7776,2.7617,2.8195,2.9623,2.9275,2.9415,3.0111,2.9803,2.9602,2.9602,2.9602,2.9602,2.9602,2.9602,2.9602,2.9602,2.9988,3.0111,3.0111,3.0462,3.0568,3.0568,3.0568,3.0568,3.0568,-1.6569,-1.5561,-1.4393,-1.3002,-1.2054,-1.1198,-1.0289,-0.9061,-0.8177,-0.7918,-0.6239,-0.4999,-0.4823,-0.3575,-0.2594,-0.2057,-0.1343,-0.0179,0.1342,0.2416,0.313,0.3576,0.3846,0.4465,0.5437,0.606,0.7204,0.9048,0.9401,1.0391,1.1927,1.2531,1.3274,1.415,1.5064,1.5604,1.598,1.7226,1.7956,1.8398,1.965,2.0404,2.0789,2.1066,2.1251,2.1308,2.1178,2.1205,2.1436,2.1436,2.1502,2.1731,2.1731,2.2101,2.2553,2.2252,2.2894,2.3841,2.4047,2.4707,2.5229,2.5004,2.5523,2.6164,2.6164,2.644,2.6714,2.6714,2.6863,2.7079,2.7268,2.7268,2.7335,2.7469,2.7523,2.7523,2.7523,2.7523,2.7523,2.7523,2.7523,2.7523,2.7523,2.7469,2.7469,2.7469,2.7268,2.7214,2.7214,2.7011,2.7255,2.7934,2.8312,2.8953,2.9747,2.956,2.9761,3.0462,3.0341,3.0266,3.0266,3.0266,3.0158,2.9927,2.9927,2.9803,2.9602,2.9741,2.9865,3.0111,3.0233,3.0401,3.0628,3.0702,3.0762,3.0866,-1.4122,-1.3102,-1.2008,-1.1021,-1.0154,-0.9465,-0.8703,-0.7647,-0.6763,-0.6322,-0.4727,-0.3484,-0.3307,-0.2058,-0.0985,-0.0179,0.0984,0.2236,0.3398,0.4107,0.473,0.5445,0.5802,0.6242,0.6678,0.7647,0.8873,1.0361,1.0966,1.1906,1.3014,1.362,1.4139,1.4664,1.5782,1.6285,1.6461,1.7828,1.8711,1.9156,2.0132,2.0722,2.1061,2.1128,2.1282,2.1359,2.1359,2.1425,2.1655,2.1655,2.1883,2.2252,2.1883,2.2542,2.3338,2.282,2.3683,2.4767,2.4992,2.5499,2.5943,2.5873,2.6164,2.6533,2.6589,2.6658,2.6714,2.6794,2.6943,2.7079,2.7268,2.7268,2.7335,2.7469,2.7523,2.7523,2.7523,2.7523,2.7523,2.7523,2.7523,2.7523,2.7523,2.7523,2.7523,2.7523,2.7403,2.7403,2.7403,2.7214,2.7577,2.8454,2.8812,2.9393,3.0312,3.0129,3.0251,3.0568,3.0568,3.0568,3.0568,3.0568,3.0522,3.028,3.028,3.0158,2.9974,2.9974,3.0097,3.028,3.028,3.0401,3.0642,3.0762,3.0821,3.094,-1.1145,-1.0216,-0.9365,-0.8428,-0.7903,-0.7288,-0.6413,-0.5965,-0.5255,-0.4107,-0.2946,-0.1966,-0.1431,-0.0448,0.0717,0.1879,0.3486,0.4643,0.5171,0.6057,0.677,0.7126,0.8013,0.8189,0.7559,0.9135,1.0361,1.1241,1.2077,1.3099,1.4223,1.4223,1.465,1.559,1.6378,1.6846,1.7245,1.8948,1.9747,1.9982,2.0876,2.1205,2.1205,2.1282,2.1359,2.1502,2.1502,2.1655,2.1807,2.1873,2.2402,2.2927,2.2252,2.3032,2.4181,2.4181,2.4909,2.5849,2.6302,2.6739,2.6943,2.6794,2.6658,2.6602,2.6726,2.6726,2.6794,2.7011,2.7011,2.7079,2.7268,2.7335,2.7335,2.7469,2.7523,2.7523,2.7523,2.7523,2.7523,2.7523,2.7523,2.7523,2.7523,2.7523,2.7523,2.7523,2.7523,2.7523,2.7523,2.7403,2.7908,2.931,2.9142,2.9718,3.1073,3.0955,3.0762,3.0642,3.0628,3.0568,3.0568,3.0568,3.0568,3.0568,3.0568,3.0568,3.0568,3.0568,3.0568,3.0568,3.0568,3.0568,3.0642,3.0762,3.0821,3.0881,-0.9018,-0.8066,-0.7372,-0.6939,-0.6154,-0.5445,-0.5082,-0.3561,-0.2224,-0.1603,-0.0268,0.0983,0.1962,0.2054,0.2413,0.3664,0.4465,0.5523,0.7099,0.7544,0.8511,1.0,1.0611,1.0961,1.0966,1.0626,1.1311,1.3112,1.3535,1.4223,1.509,1.509,1.5575,1.646,1.6772,1.7326,1.8132,1.9344,1.9825,1.9982,2.1031,2.1425,2.1425,2.1578,2.1731,2.1731,2.1731,2.1731,2.1883,2.2553,2.2852,2.3065,2.3621,2.448,2.5193,2.4672,2.5557,2.6577,2.6126,2.6496,2.7024,2.6956,2.6875,2.6875,2.6943,2.7079,2.7201,2.7214,2.7335,2.7403,2.7469,2.7469,2.7469,2.7523,2.7523,2.7523,2.7523,2.7523,2.7523,2.7523,2.7523,2.7523,2.7523,2.7523,2.7523,2.7523,2.7523,2.7523,2.7523,2.7469,2.8091,2.9393,2.938,3.0011,3.1234,3.1234,3.1058,3.0762,3.0642,3.0568,3.0568,3.0568,3.0568,3.0568,3.0568,3.0568,3.0568,3.0568,3.0568,3.0568,3.0568,3.0568,3.0642,3.0762,3.0895,3.1176,-0.6222,-0.5518,-0.4809,-0.445,-0.3387,-0.2409,-0.187,-0.0623,0.0445,0.098,0.1963,0.2858,0.366,0.357,0.4014,0.5354,0.6498,0.7724,0.8943,0.9552,1.0336,1.1472,1.1729,1.2163,1.2778,1.2345,1.2681,1.388,1.4482,1.4992,1.5582,1.5982,1.6453,1.7017,1.7971,1.8691,1.9246,2.0216,2.0702,2.0857,2.1415,2.1655,2.1655,2.1731,2.1807,2.1807,2.1807,2.209,2.2596,2.3548,2.4047,2.4337,2.4469,2.5346,2.6139,2.5463,2.6114,2.6998,2.6496,2.6782,2.7214,2.7146,2.7214,2.7214,2.7146,2.7214,2.7335,2.7403,2.7469,2.7523,2.7523,2.7523,2.7523,2.7523,2.7523,2.7523,2.7523,2.7523,2.7523,2.7523,2.7523,2.7523,2.7523,2.7523,2.7523,2.7523,2.7523,2.7523,2.7523,2.7523,2.8078,2.9442,2.9504,3.0133,3.1409,3.1351,3.1234,3.1058,3.0881,3.0821,3.0821,3.0762,3.0762,3.0821,3.0762,3.0762,3.0821,3.0821,3.0821,3.0821,3.0821,3.0821,3.0821,3.0999,3.1336,3.1838,-0.3482,-0.2858,-0.2233,-0.1783,-0.0624,0.0625,0.1518,0.2139,0.2764,0.3304,0.384,0.4463,0.5082,0.5429,0.6225,0.7562,0.9048,1.0183,1.0783,1.1558,1.2157,1.2498,1.2504,1.3014,1.3957,1.4041,1.4132,1.4314,1.5082,1.5582,1.5974,1.6683,1.7326,1.7819,1.9256,2.0138,2.044,2.1262,2.1655,2.1807,2.1807,2.1807,2.1807,2.1807,2.1883,2.1883,2.2014,2.266,2.3576,2.4589,2.531,2.5742,2.531,2.6045,2.693,2.6252,2.6676,2.7268,2.7146,2.7268,2.7469,2.7335,2.7403,2.7469,2.7335,2.7335,2.7403,2.7469,2.7523,2.7523,2.7523,2.7523,2.7523,2.7523,2.7523,2.7523,2.7523,2.7523,2.7523,2.7523,2.7523,2.7523,2.7523,2.7523,2.7523,2.7523,2.7523,2.7523,2.7523,2.7523,2.8091,2.9268,2.9442,3.0072,3.1351,3.1351,3.1351,3.1351,3.1249,3.1132,3.1087,3.0955,3.0955,3.1087,3.0895,3.0955,3.1087,3.1087,3.1087,3.1087,3.1087,3.1087,3.1146,3.1234,3.1838,3.2547,-0.152,-0.0893,-0.0268,0.0268,0.0981,0.1783,0.2591,0.357,0.4548,0.526,0.5356,0.6242,0.8348,0.9474,1.0341,1.095,1.13,1.1901,1.293,1.3105,1.362,1.4657,1.4657,1.4817,1.5137,1.5311,1.5325,1.5257,1.5492,1.6049,1.6838,1.709,1.806,1.958,1.9963,2.0605,2.1339,2.1655,2.1807,2.1807,2.1807,2.1807,2.1807,2.1949,2.2035,2.2176,2.2947,2.3806,2.4589,2.5392,2.5742,2.5963,2.6688,2.7053,2.7268,2.7255,2.739,2.7469,2.7469,2.7469,2.7523,2.7469,2.7456,2.7523,2.7469,2.7469,2.7469,2.7523,2.7523,2.7523,2.7523,2.7523,2.7523,2.7523,2.7523,2.7523,2.7523,2.7523,2.7523,2.7523,2.7523,2.7523,2.7523,2.7523,2.7523,2.7523,2.7523,2.7523,2.7523,2.7523,2.7842,2.8597,2.9205,2.9889,3.0644,3.1219,3.1467,3.1467,3.1467,3.1307,3.1087,3.1087,3.1087,3.1087,3.1087,3.1087,3.1087,3.1087,3.1087,3.1087,3.1087,3.1087,3.1146,3.1234,3.1992,3.2949,0.0447,0.1071,0.1783,0.2408,0.3299,0.4192,0.4732,0.5965,0.6933,0.72,0.8078,0.9126,1.0265,1.1042,1.1729,1.1986,1.2498,1.3099,1.3944,1.4378,1.4977,1.5673,1.5673,1.5906,1.6445,1.6535,1.6772,1.7172,1.6772,1.709,1.8052,1.8691,1.9413,2.0226,2.0847,2.1328,2.1655,2.1883,2.1959,2.1959,2.2111,2.2111,2.2176,2.267,2.2883,2.3021,2.4457,2.5181,2.5603,2.6458,2.6744,2.6824,2.7255,2.7403,2.7403,2.7469,2.7523,2.7523,2.7523,2.7523,2.7523,2.7523,2.7523,2.7523,2.7523,2.7523,2.7523,2.7523,2.7523,2.7523,2.7523,2.759,2.7656,2.7656,2.7736,2.7815,2.7815,2.7815,2.7815,2.7815,2.7815,2.7815,2.7815,2.7815,2.7815,2.7815,2.7723,2.7656,2.7656,2.759,2.7776,2.8481,2.9142,2.9827,3.0524,3.1161,3.1482,3.1482,3.1482,3.1424,3.1307,3.1249,3.1234,3.1307,3.1234,3.1234,3.1307,3.1307,3.1307,3.1307,3.1307,3.1307,3.1307,3.1409,3.1936,3.2695]},{"header":{"parameterUnit":"m.s-1","parameterCategory":1,"la1":30.6,"la2":28.766,"lo1":-90.7593,"lo2":-88.6598,"dy":0.0162,"dx":0.0183,"nx":116,"ny":114,"refTime":"2023-08-25T12:00:00:Z","depth":0,"parameterNumber":3,"parameterNumberName":"V-component_of_WINDS"},"data":[0.0,0.0,0.0,0.0,0.0,0.0,0.0,0.0,0.0,0.0,0.0,0.0,0.0,0.0,0.0,0.0,0.0,0.0,0.0,0.0,0.0,0.0,0.0,0.0,0.0,0.0,0.0,0.0,0.0,0.0,0.0,0.0,0.0,0.0,0.0,0.0,0.0,0.0,0.0,0.0,0.0,0.0,0.0,0.0,0.0,0.0,0.0,0.0,0.0,0.0,0.0,0.0,0.0,0.0,0.0,0.0,0.0,0.0,0.0,0.0,0.0,0.0,0.0,0.0,0.0,0.0,0.0,0.0,0.0,0.0,0.0,0.0,0.0,0.0,0.0,0.0,0.0,0.0,0.0,0.0,0.0,0.0,0.0,0.0,0.0,0.0,0.0,0.0,0.0,0.0,0.0,0.0,0.0,0.0,0.0,0.0,0.0,0.0,0.0,0.0,0.0,0.0,0.0,0.0,0.0,0.0,0.0,0.0,0.0,0.0,0.0,0.0,0.0,0.0,0.0,0.0,0.0,0.0,0.0,0.0,0.0,0.0,0.0,0.0,0.0,0.0,0.0,0.0,0.0,0.0,0.0,0.0,0.0,0.0,0.0,0.0,0.0,0.0,0.0,0.0,0.0,0.0,0.0,0.0,0.0,0.0,0.0,0.0,0.0,0.0,0.0,0.0,0.0,0.0,0.0,0.0,0.0,0.0,0.0,0.0,0.0,0.0,0.0,0.0,0.0,0.0,0.0,0.0,0.0,0.0,0.0,0.0,0.0,0.0,0.0,0.0,0.0,0.0,0.0,0.0,0.0,0.0,0.0,0.0,0.0,0.0,0.0,0.0,0.0,0.0,0.0,0.0,0.0,0.0,0.0,0.0,0.0,0.0,0.0,0.0,0.0,0.0,0.0,0.0,0.0,0.0,0.0,0.0,0.0,0.0,0.0,0.0,0.0,0.0,0.0,0.0,0.0,0.0,0.0,0.0,0.0,0.0,0.0,0.0,0.0,0.0,0.0,0.0,0.0,0.0,0.0,0.0,0.0,0.0,0.0,0.0,0.0,0.0,0.0,0.0,0.0,0.0,0.0,0.0,0.0,0.0,0.0,0.0,0.0,0.0,0.0,0.0,0.0,0.0,0.0,0.0,0.0,0.0,0.0,0.0,0.0,0.0,0.0,0.0,0.0,0.0,0.0,0.0,0.0,0.0,0.0,0.0,0.0,0.0,0.0,0.0,0.0,0.0,0.0,0.0,0.0,0.0,0.0,0.0,0.0,0.0,0.0,0.0,0.0,0.0,0.0,0.0,0.0,0.0,0.0,0.0,0.0,0.0,0.0,0.0,0.0,0.0,0.0,0.0,0.0,0.0,0.0,0.0,0.0,0.0,0.0,0.0,0.0,0.0,0.0,0.0,0.0,0.0,0.0,0.0,0.0,0.0,0.0,0.0,0.0,0.0,0.0,0.0,0.0,0.0,0.0,0.0,0.0,0.0,0.0,0.0,0.0,0.0,0.0,0.0,0.0,0.0,0.0,0.0,0.0,0.0,0.0,0.0,0.0,0.0,0.0,0.0,0.0,0.0,0.0,0.0,0.0,0.0,0.0,0.0,0.0,0.0,0.0,0.0,0.0,0.0,0.0,0.0,0.0,0.0,0.0,0.0,0.0,0.0,0.0,0.0,0.0,0.0,0.0,0.0,0.0,0.0,0.0,0.0,0.0,0.0,0.0,0.0,0.0,0.0,0.0,0.0,0.0,0.0,0.0,0.0,0.0,0.0,0.0,0.0,0.0,0.0,0.0,0.0,0.0,0.0,0.0,0.0,0.0,0.0,0.0,0.0,0.0,0.0,0.0,0.0,0.0,0.0,0.0,0.0,0.0,0.0,0.0,0.0,0.0,0.0,0.0,0.0,0.0,0.0,0.0,0.0,0.0,0.0,0.0,0.0,0.0,0.0,0.0,0.0,0.0,0.0,0.0,0.0,0.0,0.0,0.0,0.0,0.0,0.0,0.0,0.0,0.0,0.0,0.0,0.0,0.0,0.0,0.0,0.0,0.0,0.0,0.0,0.0,0.0,0.0,0.0,0.0,0.0,0.0,0.0,0.0,0.0,0.0,0.0,0.0,0.0,0.0,0.0,0.0,0.0,0.0,0.0,0.0,0.0,0.0,0.0,0.0,0.0,0.0,0.0,0.0,0.0,0.0,0.0,0.0,0.0,0.0,0.0,0.0,0.0,0.0,0.0,0.0,0.0,0.0,0.0,0.0,0.0,0.0,0.0,0.0,0.0,0.0,0.0,0.0,0.0,0.0,0.0,0.0,0.0,0.0,0.0,0.0,0.0,0.0,0.0,0.0,0.0,0.0,0.0,0.0,0.0,0.0,0.0,0.0,0.0,0.0,0.0,0.0,0.0,0.0,0.0,0.0,0.0,0.0,0.0,0.0,0.0,0.0,0.0,0.0,0.0,0.0,0.0,0.0,0.0,0.0,0.0,0.0,0.0,0.0,0.0,0.0,0.0,0.0,0.0,0.0,0.0,0.0,0.0,0.0,0.0,0.0,0.0,0.0,0.0,0.0,0.0,0.0,0.0,0.0,0.0,0.0,0.0,0.0,0.0,0.0,0.0,0.0,0.0,0.0,0.0,0.0,0.0,0.0,0.0,0.0,0.0,0.0,0.0,0.0,0.0,0.0,0.0,0.0,0.0,0.0,0.0,0.0,0.0,0.0,0.0,0.0,0.0,0.0,0.0,0.0,0.0,0.0,0.0,0.0,0.0,0.0,0.0,0.0,0.0,0.0,0.0,0.0,0.0,0.0,0.0,0.0,0.0,0.0,0.0,0.0,0.0,0.0,0.0,0.0,0.0,0.0,0.0,0.0,0.0,0.0,0.0,0.0,0.0,0.0,0.0,0.0,0.0,0.0,0.0,0.0,0.0,0.0,0.0,0.0,0.0,0.0,0.0,0.0,0.0,0.0,0.0,0.0,0.0,0.0,0.0,0.0,0.0,0.0,0.0,0.0,0.0,0.0,0.0,0.0,0.0,0.0,0.0,0.0,0.0,0.0,0.0,0.0,0.0,0.0,0.0,0.0,0.0,0.0,0.0,0.0,0.0,0.0,0.0,0.0,0.0,0.0,0.0,0.0,0.0,0.0,0.0,0.0,0.0,0.0,0.0,0.0,0.0,0.0,0.0,0.0,0.0,0.0,0.0,0.0,0.0,0.0,0.0,0.0,0.0,0.0,0.0,0.0,0.0,0.0,0.0,0.0,0.0,0.0,0.0,0.0,0.0,0.0,0.0,0.0,0.0,0.0,0.0,0.0,0.0,0.0,0.0,0.0,0.0,0.0,0.0,0.0,0.0,0.0,0.0,0.0,0.0,0.0,0.0,0.0,0.0,0.0,0.0,0.0,0.0,0.0,0.0,0.0,0.0,0.0,0.0,0.0,0.0,0.0,0.0,0.0,0.0,0.0,0.0,0.0,0.0,0.0,0.0,0.0,0.0,0.0,0.0,0.0,0.0,0.0,0.0,0.0,0.0,0.0,0.0,0.0,0.0,0.0,0.0,0.0,0.0,0.0,0.0,0.0,0.0,0.0,0.0,0.0,0.0,0.0,0.0,0.0,0.0,0.0,0.0,0.0,0.0,0.0,0.0,0.0,0.0,0.0,0.0,0.0,0.0,0.0,0.0,0.0,0.0,0.0,0.0,0.0,0.0,0.0,0.0,0.0,0.0,0.0,0.0,0.0,0.0,0.0,0.0,0.0,0.0,0.0,0.0,0.0,0.0,0.0,0.0,0.0,0.0,0.0,0.0,0.0,0.0,0.0,0.0,0.0,0.0,0.0,0.0,0.0,0.0,0.0,0.0,0.0,0.0,0.0,0.0,0.0,0.0,0.0,0.0,0.0,0.0,0.0,0.0,0.0,0.0,0.0,0.0,0.0,0.0,0.0,0.0,0.0,0.0,0.0,0.0,0.0,0.0,0.0,0.0,0.0,0.0,0.0,0.0,0.0,0.0,0.0,0.0,0.0,0.0,0.0,0.0,0.0,0.0,0.0,0.0,0.0,0.0,0.0,0.0,0.0,0.0,0.0,0.0,0.0,0.0,0.0,0.0,0.0,0.0,0.0,0.0,0.0,0.0,0.0,0.0,0.0,0.0,0.0,0.0,0.0,0.0,0.0,0.0,0.0,0.0,0.0,0.0,0.0,0.0,0.0,0.0,0.0,0.0,0.0,0.0,0.0,0.0,0.0,0.0,0.0,0.0,0.0,0.0,0.0,0.0,0.0,0.0,0.0,0.0,0.0,0.0,0.0,0.0,0.0,0.0,0.0,0.0,0.0,0.0,0.0,0.0,0.0,0.0,0.0,0.0,0.0,0.0,0.0,0.0,0.0,0.0,0.0,0.0,0.0,0.0,0.0,0.0,0.0,0.0,0.0,0.0,0.0,0.0,0.0,0.0,0.0,0.0,0.0,0.0,0.0,0.0,0.0,0.0,0.0,0.0,0.0,0.0,0.0,0.0,0.0,0.0,0.0,0.0,0.0,0.0,0.0,0.0,0.0,0.0,0.0,0.0,0.0,0.0,0.0,0.0,0.0,0.0,0.0,0.0,0.0,0.0,0.0,0.0,0.0,0.0,0.0,0.0,0.0,0.0,0.0,0.0,0.0,0.0,0.0,0.0,0.0,0.0,0.0,0.0,0.0,0.0,0.0,0.0,0.0,0.0,0.0,0.0,0.0,0.0,0.0,0.0,0.0,0.0,0.0,0.0,0.0,0.0,0.0,0.0,0.0,0.0,0.0,0.0,0.0,0.0,0.0,0.0,0.0,0.0,0.0,0.0,0.0,0.0,0.0,0.0,0.0,0.0,0.0,0.0,0.0,0.0,0.0,0.0,0.0,0.0,0.0,0.0,0.0,0.0,0.0,0.0,0.0,0.0,0.0,0.0,0.0,0.0,0.0,0.0,0.0,0.0,0.0,0.0,0.0,0.0,0.0,0.0,0.0,0.0,0.0,0.0,0.0,0.0,0.0,0.0,0.0,0.0,0.0,0.0,0.0,0.0,0.0,0.0,0.0,0.0,0.0,0.0,0.0,0.0,0.0,0.0,0.0,0.0,0.0,0.0,0.0,0.0,0.0,0.0,0.0,0.0,0.0,0.0,0.0,0.0,0.0,0.0,0.0,0.0,0.0,0.0,0.0,0.0,0.0,0.0,0.0,0.0,0.0,0.0,0.0,0.0,0.0,0.0,0.0,0.0,0.0,0.0,0.0,0.0,0.0,0.0,0.0,0.0,0.0,0.0,0.0,0.0,0.0,0.0,0.0,0.0,0.0,0.0,0.0,0.0,0.0,0.0,0.0,0.0,0.0,0.0,0.0,0.0,0.0,0.0,0.0,0.0,0.0,0.0,0.0,0.0,0.0,0.0,0.0,0.0,0.0,0.0,0.0,0.0,0.0,0.0,0.0,0.0,0.0,0.0,0.0,0.0,0.0,0.0,0.0,0.0,0.0,0.0,0.0,0.0,0.0,0.0,0.0,0.0,0.0,0.0,0.0,0.0,0.0,0.0,0.0,0.0,0.0,0.0,0.0,0.0,0.0,0.0,0.0,0.0,0.0,0.0,0.0,0.0,0.0,0.0,0.0,0.0,0.0,0.0,0.0,0.0,0.0,0.0,0.0,0.0,0.0,0.0,0.0,0.0,0.0,0.0,0.0,0.0,0.0,0.0,0.0,0.0,0.0,0.0,0.0,0.0,0.0,0.0,0.0,0.0,0.0,0.0,0.0,0.0,0.0,0.0,0.0,0.0,0.0,0.0,0.0,0.0,0.0,0.0,0.0,0.0,0.0,0.0,0.0,0.0,0.0,0.0,0.0,0.0,0.0,0.0,0.0,0.0,0.0,0.0,0.0,0.0,0.0,0.0,0.0,0.0,0.0,0.0,0.0,0.0,0.0,0.0,0.0,0.0,0.0,0.0,0.0,0.0,0.0,0.0,0.0,0.0,0.0,0.0,0.0,0.0,0.0,0.0,0.0,0.0,0.0,0.0,0.0,0.0,0.0,0.0,0.0,0.0,0.0,0.0,0.0,0.0,0.0,0.0,0.0,0.0,0.0,0.0,0.0,0.0,0.0,2.2536,1.5671,0.0,0.0,0.0,0.0,0.0,0.0,0.0,0.0,0.0,0.0,0.0,0.0,0.0,0.0,0.0,0.0,0.0,0.0,0.0,0.0,0.0,0.0,0.0,0.0,0.0,0.0,0.0,0.0,0.0,0.0,0.0,0.0,0.0,0.0,0.0,0.0,0.0,2.2351,2.1643,2.0307,1.8271,1.7274,1.7811,1.9621,0.0,0.0,0.0,0.0,0.0,0.0,0.0,0.0,0.0,0.0,0.0,0.0,0.0,0.0,0.0,0.0,0.0,0.0,0.0,0.0,0.0,0.0,0.0,0.0,0.0,0.0,0.0,0.0,0.0,0.0,0.0,0.0,0.0,0.0,0.0,0.0,0.0,0.0,0.0,0.0,0.0,0.0,0.0,0.0,0.0,0.0,0.0,0.0,0.0,0.0,0.0,0.0,0.0,0.0,0.0,0.0,0.0,0.0,0.0,0.0,0.0,0.0,0.0,0.0,0.0,0.0,0.0,0.0,0.0,0.0,3.0613,2.5125,0.0,0.0,0.0,0.0,0.0,0.0,0.0,0.0,0.0,0.0,0.0,0.0,0.0,0.0,0.0,0.0,0.0,0.0,0.0,0.0,0.0,0.0,0.0,1.9085,1.9154,1.9096,1.9687,2.0183,0.0,0.0,0.0,0.0,0.0,0.0,2.2175,2.2676,2.292,2.2986,2.0838,1.8623,1.6389,1.5669,1.6833,1.9577,1.9027,0.0,0.0,0.0,0.0,0.0,0.0,0.0,0.0,0.0,0.0,0.0,0.0,0.0,0.0,0.0,0.0,0.0,0.0,0.0,0.0,0.0,0.0,0.0,0.0,0.0,0.0,0.0,0.0,0.0,0.0,0.0,0.0,0.0,0.0,0.0,0.0,0.0,0.0,0.0,0.0,0.0,0.0,0.0,0.0,0.0,0.0,0.0,0.0,0.0,0.0,0.0,0.0,0.0,0.0,0.0,0.0,0.0,0.0,0.0,0.0,0.0,0.0,0.0,2.997,2.9858,3.0688,2.9465,2.9204,2.9968,3.4438,3.2245,2.4884,1.6971,0.0,0.0,0.0,0.0,0.0,0.0,0.0,0.0,0.0,0.0,0.0,0.0,0.0,0.0,0.0,0.0,0.0,0.0,0.0,0.0,0.0,1.9832,2.0027,1.9703,2.0464,2.1024,2.1127,0.0,0.0,0.0,0.0,0.0,2.2676,2.3174,2.2676,2.1172,1.8374,1.7154,1.7439,1.652,1.5839,1.5562,1.486,1.4832,1.5436,0.0,0.0,0.0,0.0,0.0,0.0,0.0,0.0,0.0,0.0,0.0,0.0,0.0,0.0,0.0,0.0,0.0,0.0,0.0,0.0,0.0,0.0,0.0,0.0,0.0,0.0,0.0,0.0,0.0,0.0,0.0,0.0,0.0,0.0,0.0,0.0,0.0,0.0,0.0,0.0,0.0,3.7937,3.5247,0.0,0.0,0.0,0.0,0.0,0.0,0.0,0.0,0.0,0.0,0.0,0.0,0.0,2.5871,2.6406,2.5148,2.4026,2.3128,2.2375,2.2583,2.349,2.2509,2.2828,2.4139,2.3742,0.0,2.8507,2.0566,0.0,0.0,0.0,0.0,0.0,0.0,0.0,0.0,0.0,0.0,0.0,0.0,0.0,0.0,0.0,0.0,0.0,0.0,0.0,0.0,0.0,1.9861,1.9573,1.9719,1.9295,1.9489,2.0571,2.0813,0.0,0.0,0.0,2.2397,2.2709,2.2132,2.0646,1.8243,1.6367,1.5102,1.4389,1.2703,1.1657,1.1243,1.0543,1.1828,1.4539,1.4149,0.0,0.0,0.0,0.0,0.0,0.0,0.0,0.0,0.0,0.0,0.0,0.0,0.0,0.0,0.0,0.0,0.0,0.0,0.0,0.0,0.0,0.0,0.0,0.0,0.0,0.0,0.0,0.0,0.0,0.0,0.0,0.0,0.0,0.0,0.0,0.0,0.0,0.0,0.0,4.1259,4.007,3.787,3.6649,3.447,0.0,0.0,0.0,0.0,0.0,0.0,0.0,0.0,0.0,2.1153,1.9029,1.8519,1.9797,1.7665,1.6305,1.5828,1.4703,1.4592,1.5429,1.4556,1.4801,1.5796,1.504,1.6522,1.9235,1.8002,1.5509,1.2446,0.0,0.0,0.0,0.0,1.7417,1.6282,0.0,0.0,0.0,0.0,0.0,0.0,0.0,0.0,0.0,0.0,0.0,0.0,2.0834,1.9641,1.892,1.9135,1.8168,1.8318,1.9991,2.0148,2.0779,2.2101,2.2101,2.2327,2.2703,2.0951,1.8629,1.5957,1.448,1.2967,1.1402,0.9598,0.8568,0.8232,0.7156,0.8068,1.0409,1.0608,1.151,1.2681,0.0,0.0,0.0,0.0,0.0,0.0,0.0,0.0,0.0,0.0,0.0,0.0,0.0,0.0,0.0,0.0,0.0,0.0,0.0,0.0,0.0,0.0,0.0,0.0,0.0,0.0,0.0,0.0,0.0,0.0,0.0,0.0,0.0,0.0,0.0,0.0,0.0,4.2249,4.0804,3.886,3.6307,3.3253,0.0,0.0,0.0,0.0,0.0,0.0,1.6406,1.2281,1.1025,1.359,1.1047,1.0729,1.2892,1.0459,0.9142,0.9053,0.7309,0.722,0.8499,0.7426,0.7717,0.889,0.8582,0.8886,0.9972,1.389,1.3392,1.0499,1.4743,1.3545,1.0521,1.9404,2.1015,1.9319,0.0,0.0,0.0,0.0,0.0,0.0,0.0,0.0,0.0,0.0,0.0,2.041,2.0274,1.9274,1.8468,1.81,1.8023,1.855,1.9825,2.0129,2.0827,2.2327,2.2176,2.2327,2.2703,1.9974,1.7388,1.5007,1.2656,1.0977,1.0009,0.9634,0.8773,0.7524,0.5354,0.3044,0.0634,-0.0185,0.1869,0.5748,0.6807,0.0,0.0,0.0,0.0,0.0,0.0,0.0,0.0,0.0,0.0,0.0,0.0,0.0,0.0,0.0,0.0,0.0,0.0,0.0,0.0,0.0,0.0,0.0,0.0,0.0,0.0,0.0,0.0,0.0,0.0,0.0,0.0,0.0,0.0,0.0,0.0,0.0,0.0,3.6752,3.4046,0.0,0.0,0.0,0.0,1.9835,1.6014,1.3651,1.3611,1.0347,0.8594,0.8747,0.7588,0.6313,0.5016,0.3806,0.3108,0.2819,0.0402,0.0904,0.3823,0.201,0.2808,0.5411,0.4906,0.5101,0.6187,0.9571,1.0665,1.0023,1.0568,1.0233,0.9885,1.4884,1.8576,2.1985,0.0,0.0,0.0,0.0,0.0,0.0,0.0,0.0,2.1006,2.1365,2.0766,2.0201,1.9812,1.8211,1.7171,1.7318,1.6706,1.6944,1.8407,1.9562,2.0643,2.1725,2.2883,2.2776,2.1283,1.8373,1.6316,1.5032,1.2504,1.1144,1.0783,0.9091,0.6691,0.382,0.16,-0.1346,-0.4398,-0.2973,-0.1034,0.1236,0.1938,0.3903,0.0,0.0,0.0,0.0,0.0,0.0,0.0,0.0,0.0,0.0,0.0,0.0,0.0,0.0,0.0,0.0,0.0,0.0,0.0,0.0,0.0,0.0,0.0,0.0,0.0,0.0,0.0,0.0,0.0,0.0,0.0,0.0,0.0,0.0,0.0,0.0,0.0,3.5094,3.2489,0.0,2.489,2.2553,2.0253,1.7832,1.5197,1.3182,1.1986,0.9674,0.811,0.7397,0.6121,0.5129,0.4429,0.2515,0.1409,0.1109,-0.0605,-0.0907,0.0201,-0.0604,-0.0402,0.0602,0.0703,0.1305,0.2405,0.4093,0.5942,0.7654,0.7748,0.8622,1.0241,1.4078,1.7954,2.1781,0.0,0.0,0.0,0.0,0.0,0.0,0.0,0.0,2.1087,2.1275,2.0369,1.9609,1.9179,1.7342,1.6392,1.6656,1.5899,1.6296,1.8292,1.9376,2.069,2.2242,2.3169,2.22,1.9303,1.759,1.5764,1.3717,1.2072,1.0595,0.9283,0.7034,0.4184,0.0709,-0.1779,-0.4424,-0.7024,-0.5918,-0.488,-0.3938,-0.3008,-0.0292,0.3611,0.0,0.0,0.0,0.0,0.0,0.0,0.0,0.0,0.0,0.0,0.0,0.0,0.0,0.0,0.0,0.0,0.0,0.0,0.0,0.0,0.0,0.0,0.0,0.0,0.0,0.0,0.0,0.0,0.0,0.0,0.0,0.0,0.0,0.0,3.9588,3.6821,3.3154,3.0924,2.7951,2.3639,2.2045,2.009,1.7274,1.5298,1.3075,1.0436,0.889,0.722,0.5625,0.463,0.3828,0.3221,0.1107,0.0,-0.0302,-0.1914,-0.2318,-0.1613,-0.2317,-0.2517,-0.2114,-0.1914,-0.1511,-0.0704,0.0201,0.1789,0.3893,0.5259,0.6697,0.8555,1.1749,1.5142,1.8789,0.0,0.0,0.0,0.0,0.0,0.0,0.0,2.0916,2.0907,2.0637,1.9632,1.874,1.8197,1.6914,1.6102,1.6102,1.568,1.6609,1.9556,1.9643,2.0901,2.4032,2.2957,2.0604,1.7122,1.7794,1.5808,1.1068,1.1096,0.9165,0.5432,0.3653,0.1334,-0.1599,-0.4463,-0.634,-0.7377,-0.9503,-1.0177,-0.9706,-0.7987,-0.5178,-0.157,0.0,0.0,0.0,0.0,0.0,0.0,0.0,0.0,0.0,0.0,0.0,0.0,0.0,0.0,0.0,0.0,0.0,0.0,0.0,0.0,0.0,0.0,0.0,0.0,0.0,0.0,0.0,0.0,0.0,0.0,0.0,0.0,0.0,3.9674,3.7552,3.4649,3.1168,2.9299,2.6966,2.3424,2.2385,2.0845,1.8087,1.6035,1.3154,0.906,0.7803,0.5927,0.3331,0.2927,0.2118,0.0806,-0.0503,-0.1309,-0.1613,-0.3827,-0.3726,-0.1815,-0.3327,-0.3527,-0.2516,-0.3021,-0.3224,-0.3123,-0.2116,-0.1495,-0.0881,0.3025,0.4482,0.4789,0.7688,1.0183,1.3315,0.0,0.0,0.0,0.0,0.0,0.0,2.1114,2.1383,2.1275,2.0727,1.9677,1.8764,1.8136,1.6756,1.5952,1.5952,1.5646,1.6288,1.8294,1.9537,2.1242,2.3795,2.0861,1.8849,1.8294,1.6398,1.4518,1.2486,1.094,0.8844,0.6036,0.2755,-0.0089,-0.2573,-0.5977,-0.7778,-0.8458,-1.0686,-1.1478,-1.1384,-1.1184,-0.8583,-0.4424,0.0,0.0,0.0,0.0,0.0,0.0,0.0,0.0,0.0,0.0,0.0,0.0,0.0,0.0,0.0,0.0,0.0,0.0,0.0,0.0,0.0,0.0,0.0,0.0,0.0,0.0,0.0,0.0,0.0,0.0,0.0,3.969,3.9163,3.9768,3.707,3.4251,3.2162,2.9237,2.6326,2.3517,2.1355,1.9007,1.6035,1.4429,1.2206,0.8989,0.7412,0.5927,0.4435,0.3328,0.232,0.1412,-0.0302,-0.151,-0.2219,-0.4531,-0.5338,-0.4832,-0.5636,-0.5837,-0.5534,-0.4732,-0.4331,-0.423,-0.3224,-0.2392,-0.1566,0.0675,0.2076,0.3124,0.5757,1.0086,1.5264,0.0,0.0,0.0,0.0,0.0,0.0,2.1392,2.166,2.1463,2.0266,1.9664,1.8904,1.7658,1.6669,1.6052,1.5928,1.6224,1.7064,1.8699,2.0391,2.1308,2.1192,1.9215,1.7565,1.6075,1.5079,1.3243,1.0661,0.926,0.6974,0.3811,0.0622,-0.2133,-0.4442,-0.6868,-0.8271,-0.8978,-1.0651,-1.1258,-1.1204,-1.1731,-0.9745,-0.6219,-0.4633,-0.0648,0.4185,0.5213,0.6608,0.8455,1.1372,0.0,0.0,0.0,0.0,0.0,0.0,0.0,0.0,0.0,0.0,0.0,0.0,0.0,0.0,0.0,0.0,0.0,0.0,0.0,0.0,0.0,0.0,0.0,0.0,3.8079,3.7432,3.7698,3.5642,3.3267,3.107,2.8311,2.5572,2.263,2.0866,1.853,1.501,1.4075,1.2299,0.9095,0.7717,0.6426,0.5033,0.3729,0.242,0.0907,-0.0503,-0.2012,-0.3626,-0.4832,-0.5839,-0.6539,-0.6339,-0.6739,-0.7431,-0.6034,-0.5734,-0.6029,-0.4626,-0.3801,-0.3261,0.0,0.0,0.0,0.0,0.9004,1.3712,0.0,0.0,0.0,0.0,0.0,0.0,2.1392,2.1839,2.1544,1.9712,1.969,1.9123,1.7175,1.6616,1.6301,1.5994,1.7146,1.8486,2.0042,2.1339,2.0688,1.762,1.7974,1.6359,1.2492,1.3749,1.2184,0.7559,0.6883,0.4408,0.0267,-0.187,-0.4186,-0.659,-0.7489,-0.8292,-0.917,-1.0033,-1.0207,-1.0033,-1.0722,-0.9557,-0.7132,-0.5344,-0.1656,0.2965,0.5284,0.6667,0.7756,1.0157,0.0,0.0,0.0,0.0,0.0,0.0,0.0,0.0,0.0,0.0,0.0,0.0,0.0,0.0,0.0,0.0,0.0,0.0,0.0,0.0,0.0,0.0,0.0,0.0,3.6538,3.4965,3.4563,3.3572,3.1757,2.8833,2.704,2.477,2.1355,2.0634,1.8696,1.4746,1.4402,1.2914,0.9579,0.8513,0.0,0.0,0.0,0.2619,0.0202,-0.0704,-0.2413,-0.4826,-0.4933,-0.5636,-0.7039,-0.6137,-0.6631,-0.812,-0.6933,-0.6933,-0.7726,-0.6029,-0.552,-0.5381,-0.2602,-0.0845,0.0551,0.3931,0.7128,1.0133,0.0,0.0,0.0,0.0,0.0,0.0,2.1392,2.1919,2.1624,1.9712,1.9819,1.9406,1.7416,1.6952,1.663,1.6309,1.735,1.8641,2.0042,1.9303,1.8435,1.754,1.639,1.4942,1.319,1.2917,1.1187,0.8074,0.6377,0.3719,0.0,-0.1959,-0.4537,-0.7552,-0.7925,-0.8894,-1.0289,-1.0722,-1.0722,-1.0549,-1.1068,-0.9781,-0.7616,-0.7248,-0.4835,-0.162,-0.1079,0.027,0.2517,0.6128,0.8063,0.9817,1.433,1.8117,0.0,0.0,0.0,0.0,0.0,0.0,0.0,0.0,0.0,0.0,0.0,0.0,0.0,0.0,0.0,0.0,0.0,0.0,0.0,3.5864,3.511,3.4214,3.2659,3.15,3.0143,2.846,2.6545,2.4111,2.1116,1.9951,1.7922,1.4746,1.4136,1.2942,1.0587,0.9304,0.8011,0.6517,0.5222,0.3621,0.1613,-0.0302,-0.171,-0.2615,-0.473,0.0,-0.6242,-0.6442,-0.6739,-0.7039,-0.6637,-0.6637,-0.7042,-0.6639,-0.6227,-0.557,-0.3526,-0.1301,0.0988,0.1696,0.4257,0.7588,0.0,0.0,0.0,0.0,0.0,0.0,2.1571,2.1998,2.1891,2.0619,2.0962,2.0694,1.9151,1.8881,1.8633,1.8083,1.8508,1.9074,1.9575,1.8461,1.7098,1.5479,1.5032,1.3873,1.1918,1.1386,0.9639,0.6753,0.4617,0.2133,-0.0714,-0.2945,-0.5166,-0.746,-0.8097,-0.9069,-1.0289,-1.0294,-1.0207,-1.012,-0.9854,-0.8615,-0.6943,-0.7204,-0.5429,-0.2772,-0.2058,-0.0537,0.152,0.4343,0.6358,0.8442,1.2637,1.6075,1.9226,0.0,0.0,0.0,0.0,0.0,0.0,0.0,0.0,0.0,0.0,0.0,0.0,0.0,0.0,3.9081,3.8101,0.0,3.6798,3.5061,3.4624,3.3788,3.166,3.0334,2.9035,2.7674,2.5997,2.3721,2.0661,1.9607,1.7984,1.5174,1.4311,1.3286,1.1843,1.0297,0.8612,0.7018,0.5924,0.4323,0.2017,0.0,-0.1508,-0.2612,-0.4528,-0.5839,-0.6639,-0.6339,-0.6736,-0.7531,-0.6734,-0.6734,-0.7329,-0.7072,-0.6497,-0.5797,-0.4862,-0.2843,-0.0357,-0.0178,0.16,0.408,0.0,0.0,0.0,0.0,0.0,0.0,0.0,2.2087,2.2157,2.1427,2.1952,2.1989,2.0851,2.082,2.0695,2.0195,1.95,1.9104,1.927,1.784,1.5913,1.3476,1.3808,1.2948,1.0554,1.0019,0.8432,0.5791,0.3115,0.0713,-0.1432,-0.3844,-0.58,-0.7197,-0.8097,-0.8894,-0.9767,-0.9602,-0.9519,-0.9428,-0.8552,-0.7485,-0.6245,-0.6505,-0.4903,-0.2325,-0.1165,0.0804,0.2935,0.4101,0.6128,0.8632,1.1719,1.4378,1.748,2.3092,2.5762,0.0,0.0,0.0,0.0,0.0,0.0,0.0,0.0,4.0775,4.0563,4.0275,3.9795,3.9085,3.795,3.7453,3.6636,3.483,3.435,3.3467,3.1302,2.9897,2.8534,2.6902,2.546,2.3334,2.043,1.9659,1.8237,1.5841,1.4609,1.3499,1.2635,1.1068,0.9414,0.7617,0.6725,0.5027,0.252,0.0503,-0.1106,-0.2408,-0.3822,-0.5131,-0.6434,-0.5834,-0.6429,-0.7819,-0.6904,-0.6982,-0.7733,-0.7215,-0.6643,-0.6165,-0.6139,-0.4712,-0.2504,-0.2051,-0.0802,0.0802,0.0,0.0,0.0,0.0,0.0,0.0,0.0,0.0,2.2255,2.1695,2.205,2.2101,2.1318,2.1071,2.1109,2.1581,1.9101,1.8089,1.9418,1.648,1.4384,1.3476,1.2875,1.2192,1.1176,0.9767,0.8544,0.7676,0.3739,0.0713,-0.1432,-0.3844,-0.5888,-0.7467,-0.7753,-0.8368,-0.9323,-0.934,-0.917,-0.8911,-0.8636,-0.7749,-0.6688,-0.6071,-0.3753,-0.0896,-0.0717,0.2296,0.6109,0.5409,0.8001,1.1488,1.1519,1.4599,1.8871,2.2049,2.6311,3.0705,3.3893,3.6499,3.8591,3.9756,4.0312,4.0546,0.0,4.0536,4.0262,3.9629,3.8887,3.8118,3.7344,3.6475,3.5548,3.4415,3.3903,3.3151,3.1577,3.0526,2.9059,2.6822,2.4956,2.3147,2.1135,1.9875,1.836,1.6345,1.4648,1.3232,1.2404,1.1569,1.0301,0.8707,0.7617,0.6226,0.4531,0.1913,0.0504,0.0302,-0.2214,-0.3425,-0.3725,-0.5033,-0.5734,-0.5929,-0.6423,-0.6801,-0.6969,-0.7022,-0.7129,-0.7171,-0.7039,-0.6263,-0.5095,-0.3844,-0.241,-0.1069,0.0,0.0,0.0,0.0,0.0,0.0,0.0,0.0,0.0,2.2069,2.2511,2.2756,2.2744,2.2589,2.2672,2.3105,2.0232,1.8647,1.927,1.6585,1.4496,1.3476,1.3137,1.2454,1.1348,0.9593,0.8364,0.7749,0.4186,0.1518,-0.0268,-0.268,-0.4905,-0.6845,-0.7129,-0.8017,-0.9419,-0.9074,-0.8815,-0.864,-0.7933,-0.7319,-0.6618,-0.5549,-0.3941,-0.1882,0.0443,0.4027,0.0,0.7752,0.999,1.2638,1.1638,1.4714,1.9402,2.2399,2.6245,3.0372,3.4292,3.7164,3.9163,4.0002,4.0359,4.0535,4.0722,4.0669,4.0435,3.9948,3.9183,3.8414,3.7698,3.672,3.5664,3.4576,3.3937,3.2977,3.1101,2.9986,2.8652,2.6857,2.4933,2.3073,2.1288,2.044,1.9172,1.7327,1.5935,1.4573,1.3084,1.2215,1.0899,0.8956,0.7773,0.6526,0.5031,0.2215,0.0806,0.0806,-0.131,-0.262,-0.3222,-0.4178,-0.5016,-0.594,-0.6181,-0.647,-0.6719,-0.6752,-0.659,-0.6421,-0.6897,-0.616,-0.4825,-0.4561,-0.3844,-0.2948,0.0,0.0,0.0,0.0,0.0,0.0,0.0,0.0,0.0,0.0,2.2794,2.3238,2.3898,2.3972,2.4017,2.416,2.1457,1.9627,1.9279,1.6667,1.4573,1.3476,1.3052,1.2375,1.1348,0.9419,0.8185,0.7559,0.4457,0.2235,0.0805,-0.1697,-0.3837,-0.5427,-0.6062,-0.7132,-0.8636,-0.8281,-0.8193,-0.8285,-0.7224,-0.67,-0.6355,-0.5015,-0.3123,-0.071,0.2369,0.5823,0.9101,1.0369,1.2757,1.4957,1.3985,1.6557,2.0579,2.3919,2.774,3.1706,3.5469,3.7812,3.9395,4.0118,4.0391,4.0568,4.0778,4.0764,4.0556,4.0077,3.9336,3.8575,3.7869,3.6702,3.5576,3.4719,3.3903,3.2741,3.0881,2.9803,2.8652,2.7098,2.5228,2.3514,2.2027,2.1058,1.986,1.8201,1.6944,1.5569,1.3893,1.2796,1.1437,0.9733,0.8222,0.6813,0.5541,0.2971,0.1588,0.1192,-0.0298,-0.1488,-0.2379,-0.3418,-0.451,-0.5657,-0.5941,-0.6244,-0.6578,-0.6578,-0.634,-0.6163,-0.6874,-0.6071,-0.4734,-0.4739,-0.4563,-0.4117,0.0,0.0,0.0,0.0,0.0,0.0,0.0,0.0,0.0,0.0,0.0,0.0,0.0,2.462,2.4647,2.4411,2.2377,2.0661,1.9603,1.6293,1.4126,1.3398,1.2118,1.1354,1.1262,0.9419,0.8185,0.7562,0.4457,0.2413,0.1342,-0.1519,-0.2949,-0.3038,-0.4469,-0.5455,-0.626,-0.6694,-0.7224,-0.776,-0.6602,-0.6157,-0.598,-0.4289,-0.0353,0.4365,0.5162,0.7777,1.1161,1.327,1.6621,1.986,1.9706,2.1022,2.331,2.6828,3.181,3.6444,3.7845,3.8906,3.9671,4.0101,4.0505,4.0755,4.0644,4.0656,4.0455,3.9605,3.895,3.8285,3.7488,3.6061,3.4925,3.4479,3.3543,3.2468,3.116,3.0375,2.9352,2.7578,2.597,2.4672,2.3806,2.1952,2.0294,1.8957,1.73,1.5818,1.4749,1.2896,1.1768,1.1497,0.9351,0.758,0.6358,0.4752,0.343,0.2198,0.0858,0.0095,-0.0286,-0.2756,-0.4137,-0.4614,-0.5537,-0.6111,-0.6435,-0.6435,-0.67,-0.7051,-0.7051,-0.6517,-0.5542,-0.4645,-0.4293,-0.4107,0.0,0.0,0.0,0.0,0.0,0.0,0.0,0.0,0.0,0.0,0.0,0.0,0.0,0.0,0.0,0.0,2.196,2.0524,1.982,1.6794,1.4796,1.4126,1.2443,1.1338,1.0814,0.889,0.7749,0.7573,0.5641,0.3855,0.2059,0.0268,-0.1342,-0.2949,-0.3396,-0.4378,-0.563,-0.563,-0.5719,-0.5897,-0.5359,-0.4828,-0.3933,-0.0887,0.2202,0.5608,0.0,1.4873,1.6976,1.6121,1.7515,1.954,1.8724,2.0989,2.4933,2.9689,3.3197,3.5815,3.7134,3.8294,3.9301,4.0024,4.0482,4.0727,4.0683,4.0616,4.0423,3.9967,3.9074,3.824,3.7785,3.6243,3.4878,3.4479,3.3559,3.2484,3.1304,3.048,2.9566,2.8427,2.6909,2.5697,2.5181,2.301,2.0914,1.9246,1.8308,1.6826,1.462,1.3873,1.2957,1.161,0.9998,0.8303,0.672,0.4931,0.3518,0.229,0.0761,-0.0094,-0.028,-0.205,-0.2948,-0.325,-0.4338,-0.5041,-0.5361,-0.6074,-0.5808,-0.5095,-0.5897,-0.4825,-0.286,-0.3171,-0.3507,-0.3418,0.0,0.0,0.0,0.0,0.0,0.0,0.0,0.0,0.0,0.0,0.0,0.0,0.0,0.0,0.0,0.0,0.0,2.0759,1.9888,1.749,1.5747,1.4866,1.336,1.226,1.1826,1.0005,0.9135,0.9135,0.659,0.4192,0.2046,0.1163,-0.0537,-0.2685,-0.3042,-0.3666,-0.4554,-0.4828,-0.4461,-0.3735,-0.3204,-0.2134,-0.0533,0.2556,0.5262,0.0,1.3484,1.7129,1.9309,1.8612,1.9418,2.0751,2.0761,2.349,2.7481,3.1485,3.3633,3.4883,3.6041,3.7149,3.8191,3.8915,3.9455,3.9804,3.9838,3.9716,3.9487,3.9088,3.8408,3.7744,3.7234,3.6028,3.4955,3.4431,3.3559,3.2648,3.1679,3.0719,2.9813,2.9219,2.7591,2.6333,2.5963,2.3963,2.1962,2.0236,1.9228,1.7713,1.5538,1.4746,1.3639,1.2063,1.0776,0.9129,0.722,0.5568,0.3999,0.2242,0.1119,0.0463,0.0183,-0.1096,-0.1812,-0.2056,-0.3312,-0.3939,-0.4202,-0.4912,-0.4734,-0.3935,-0.4736,-0.3916,-0.2477,-0.3051,-0.3349,-0.3305,0.0,0.0,0.0,0.0,0.0,0.0,0.0,0.0,0.0,0.0,0.0,0.0,0.0,0.0,0.0,0.0,0.0,0.0,1.9943,1.8213,1.6805,1.5824,1.4629,1.3957,1.3957,1.2583,1.1901,1.1901,0.7302,0.3875,0.1672,0.1247,-0.0,-0.1884,-0.2957,-0.3133,-0.268,-0.384,-0.3109,-0.1235,-0.0177,0.1501,0.3694,0.5706,0.8553,1.155,1.238,1.4957,1.8345,2.0585,2.1996,2.3251,2.5319,2.7902,3.0479,3.2075,3.3084,3.3854,3.4696,3.5612,3.6485,3.7017,3.7656,3.8208,3.828,3.8151,3.7808,3.7147,3.7088,3.6862,3.5934,3.5452,3.4961,3.4219,3.3531,3.2873,3.2256,3.1057,3.0165,2.9875,2.8025,2.6663,2.6252,2.4826,2.3356,2.1985,2.0081,1.8532,1.7415,1.5545,1.4041,1.2845,1.1746,1.0106,0.7918,0.6688,0.4823,0.2333,0.2063,0.1705,0.1166,0.0,-0.0716,-0.1074,-0.2329,-0.2955,-0.313,-0.3218,-0.3484,-0.384,-0.3835,-0.3879,-0.3988,-0.3892,-0.3785,-0.3482,0.0,0.0,0.0,0.0,0.0,0.0,0.0,0.0,0.0,0.0,0.0,0.0,0.0,0.0,0.0,0.0,0.0,0.0,2.0549,1.8524,1.7083,1.6576,1.4304,1.3014,1.3014,1.1214,1.0269,1.0438,0.9161,0.7372,0.4951,0.5336,0.4548,0.2942,0.2402,0.1778,0.1156,0.1154,0.1419,0.1774,0.2392,0.3098,0.4152,0.7198,0.9605,1.1646,1.4275,1.6503,1.8416,1.9441,2.0883,2.2518,2.4186,2.577,2.744,2.9554,3.0997,3.2161,3.3634,3.4853,3.6021,3.7186,3.78,3.8158,3.828,3.8063,3.7715,3.7243,3.6677,3.6004,3.5313,3.4567,3.3751,3.2793,3.2642,3.2404,3.1697,3.1135,3.0793,3.0733,2.9115,2.7947,2.7749,2.6214,2.5098,2.466,2.1824,1.9562,1.831,1.7009,1.5846,1.4678,1.36,1.1638,0.8865,0.6678,0.5179,0.4287,0.4024,0.3401,0.2419,0.1701,0.0985,0.0179,-0.1165,-0.1792,-0.1972,-0.3042,-0.313,-0.2679,-0.2989,-0.2702,-0.1989,-0.1507,-0.131,-0.1369,0.0,0.0,0.0,0.0,0.0,0.0,0.0,0.0,0.0,0.0,0.0,0.0,0.0,0.0,0.0,0.0,0.0,0.0,0.0,1.9393,1.8234,1.766,1.5495,1.424,1.4021,1.2242,1.1397,1.1563,1.0477,0.9056,0.733,0.7302,0.6523,0.5087,0.4273,0.3469,0.2849,0.2663,0.3018,0.0,0.0,0.5577,0.6984,0.9751,1.147,1.2656,1.5274,1.6952,1.7989,1.8647,2.0146,2.2078,2.4469,2.5664,2.6608,2.8763,3.0038,3.104,3.2591,3.3716,3.477,3.612,3.6716,3.7005,3.7167,3.6947,3.6574,3.6156,3.5727,3.5236,3.4478,3.4022,3.3464,3.2496,3.2175,3.1863,3.1337,3.093,3.0615,3.0557,2.9671,2.8853,2.8352,2.7498,2.6599,2.5755,2.2796,2.071,1.9866,1.8443,1.7147,1.607,1.4928,1.2729,0.9209,0.8063,0.675,0.5179,0.5349,0.4816,0.3669,0.313,0.2325,0.1254,0.0358,-0.0269,-0.0808,-0.1703,-0.1782,-0.1413,-0.1746,-0.163,-0.1429,-0.1721,-0.1931,-0.2221,0.0,0.0,0.0,0.0,0.0,0.0,0.0,0.0,0.0,0.0,0.0,0.0,0.0,0.0,0.0,0.0,0.0,0.0,0.0,0.0,1.9679,1.8699,1.7085,1.6047,1.5628,1.4139,1.3392,1.3561,1.1289,0.9798,0.9074,0.8281,0.7241,0.5983,0.4452,0.3829,0.3744,0.2842,0.3459,0.5242,0.6301,0.807,1.0289,0.0,1.319,1.3957,1.5966,1.7009,1.7616,1.8399,1.9669,2.1607,2.4855,2.6062,2.6624,2.8586,2.959,3.0368,3.1652,3.2588,3.3464,3.4675,3.5252,3.5566,3.572,3.5543,3.519,3.4708,3.4703,3.4499,3.3543,3.3609,3.3459,3.248,3.189,3.139,3.1018,3.0608,3.0302,3.0182,3.0,2.951,2.8648,2.8529,2.7893,2.6352,2.3921,2.2243,2.1618,1.9866,1.8364,1.7114,1.5906,1.3555,0.9981,1.0225,0.8926,0.6062,0.6659,0.6219,0.4912,0.4461,0.366,0.2504,0.2236,0.1611,0.0717,0.0537,0.0354,0.0087,-0.0346,-0.0588,-0.0971,-0.2418,-0.3097,-0.3505,0.0,0.0,0.0,0.0,0.0,0.0,0.0,0.0,0.0,0.0,2.3406,2.3319,0.0,0.0,0.0,0.0,0.0,0.0,0.0,0.0,0.0,1.9093,1.7118,1.5701,1.522,1.3626,1.2875,1.2875,1.2009,1.1311,1.0616,0.9854,0.8986,0.8017,0.6943,0.6413,0.6422,0.5877,0.5789,0.6242,0.7566,0.8536,0.9327,1.123,1.2687,0.0,1.6935,1.8355,1.8919,1.9894,1.9887,1.9966,2.2056,2.3549,2.4965,2.6947,2.8655,3.0162,3.1158,3.2487,3.3796,3.4694,3.5258,3.5585,3.5625,3.5549,3.5319,3.4791,3.4458,3.3934,3.2938,3.2685,3.2221,3.1115,3.1371,3.1312,3.0386,3.0811,3.1103,3.0849,3.044,3.0162,3.0151,2.9532,2.9016,2.8698,2.7499,2.5534,2.2754,2.14,1.9778,1.79,1.6003,1.4664,1.373,1.2219,1.0864,0.9666,0.9836,0.8777,0.6669,0.6398,0.5687,0.4714,0.4099,0.4182,0.4606,0.3322,0.2777,0.2585,0.1333,0.1306,0.1855,0.1663,0.1328,0.062,0.0,0.0,0.0,0.0,0.0,0.0,0.0,2.4186,2.4186,2.4186,2.411,2.3937,2.3667,2.3493,2.3232,0.0,0.0,0.0,0.0,0.0,0.0,1.9359,1.7235,1.5705,1.5054,1.3294,1.2369,1.2534,0.0,1.1068,1.0641,0.968,0.8899,0.8201,0.758,0.7139,0.6877,0.6151,0.5888,0.5988,0.677,0.7559,0.8536,1.0274,1.2571,0.0,1.6732,1.7929,1.9016,2.1074,2.0824,2.0024,2.197,2.3802,2.5585,2.6919,2.8742,3.049,3.1261,3.2619,3.399,3.4767,3.5258,3.5566,3.5644,3.5544,3.532,3.4791,3.4386,3.3862,3.3015,3.2634,3.2197,3.138,3.1274,3.1058,3.0412,3.0649,3.0847,3.0717,3.0784,3.0719,3.0409,3.044,3.0162,2.947,2.9199,2.7826,2.4956,2.3239,2.1456,1.9534,1.8399,1.7098,1.5554,1.4906,1.3898,1.2535,1.2802,1.1935,1.0115,0.9933,0.8888,0.7327,0.656,0.601,0.548,0.4355,0.4204,0.4394,0.3175,0.3282,0.4178,0.3426,0.3095,0.2623,0.0,0.0,0.0,0.0,0.0,0.0,0.0,2.4615,2.4615,2.4615,2.4615,2.4529,2.4176,2.3927,2.3841,0.0,0.0,0.0,0.0,0.0,0.0,0.0,0.0,0.0,1.5144,0.0,0.0,1.2277,1.1327,0.0,0.0,0.0,0.0,0.0,0.7238,0.6792,0.6346,0.5354,0.4912,0.0,0.0,0.6142,0.7559,0.0,0.0,0.0,0.0,1.7751,1.9261,2.1922,2.2275,2.1829,2.3375,2.4988,2.6521,2.7436,2.9232,3.1036,3.1514,3.2816,3.4166,3.4842,3.5284,3.5568,3.5664,3.5584,3.536,3.4914,3.4515,3.4043,3.3395,3.2947,3.2553,3.2056,3.1514,3.1016,3.0649,3.0582,3.0545,3.0446,3.1042,3.1257,3.0773,3.1399,3.1407,3.0225,3.036,2.9372,2.6886,2.4897,2.3165,2.1772,2.1131,1.979,1.7586,1.7743,1.7001,1.5308,1.5591,1.4939,1.3348,1.3027,1.205,1.0403,0.9604,0.8599,0.7333,0.6522,0.6551,0.6991,0.5868,0.6398,0.7476,0.6002,0.5732,0.56,0.0,0.0,0.0,0.0,0.0,0.0,0.0,2.5031,2.5115,2.5115,2.5115,2.5115,2.5115,2.4529,2.4206,0.0,0.0,0.0,0.0,0.0,0.0,0.0,0.0,0.0,0.0,0.0,0.0,1.2015,1.1929,0.0,0.0,0.0,0.0,0.0,0.0,0.5458,0.5099,0.3939,0.0,0.0,0.0,0.0,0.0,0.0,0.0,0.0,0.0,1.8955,2.0948,2.2318,2.4412,2.6388,2.6015,2.6102,2.6594,2.7911,2.9894,3.1724,3.1793,3.3095,3.454,3.4921,3.5399,3.5743,3.5622,3.5681,3.5658,3.523,3.4924,3.4557,3.3938,3.3385,3.2947,3.257,3.2179,3.1679,3.106,3.11,3.1057,3.0645,3.137,3.1983,3.2092,3.2683,3.2772,3.2201,3.1447,2.9915,2.7354,2.5689,2.4779,2.4732,2.2783,2.1741,2.1593,2.0322,1.9256,1.8391,1.825,1.6944,1.4717,1.4225,1.4146,1.4367,1.3556,1.3438,1.3831,1.2632,1.2117,1.1934,1.0672,1.1533,1.3342,1.2544,1.2398,1.2525,0.0,0.0,0.0,0.0,0.0,0.0,2.5031,2.5285,2.5369,2.5369,2.5549,2.5549,2.5369,2.5115,2.4786,2.4454,0.0,0.0,0.0,0.0,0.0,0.0,0.0,0.0,0.0,0.0,1.3307,1.2443,1.1843,0.0,0.0,0.0,0.0,0.0,0.0,0.5899,0.5719,0.3846,0.0,0.0,0.0,0.0,0.0,0.0,0.0,0.0,0.0,0.0,2.1131,2.3936,2.5501,2.6657,2.8383,2.8951,2.8981,2.8763,3.0335,3.2126,3.2004,3.3222,3.454,3.4718,3.5245,3.573,3.5673,3.5693,3.5639,3.5262,3.5028,3.4716,3.4284,3.3865,3.3486,3.3178,3.2777,3.235,3.1916,3.1456,3.1145,3.1148,3.1216,3.1334,3.1468,3.1787,3.1848,3.1555,3.1142,3.0422,2.9231,2.8118,2.705,2.6046,2.5037,2.4095,2.3074,2.2407,2.179,2.1375,2.0855,2.0015,1.8953,1.8425,1.785,1.7257,1.6534,1.639,1.6527,1.5421,1.5453,1.6169,1.5606,1.615,1.7313,1.7685,1.777,1.7582,0.0,0.0,0.0,0.0,0.0,2.5211,2.538,2.5622,2.5779,2.5874,2.6135,2.6207,2.603,2.5957,2.5706,2.5041,2.4786,0.0,0.0,0.0,0.0,0.0,0.0,0.0,0.0,0.0,1.3645,1.2705,1.1757,1.0712,0.0,0.0,0.8021,0.6874,0.0,0.0,0.0,0.0,0.0,0.0,0.0,0.0,0.0,0.0,0.0,0.0,0.0,0.0,0.0,0.0,0.0,2.7052,2.9917,3.1166,3.1316,3.0054,3.1057,3.2583,3.2512,3.3486,3.4542,3.4737,3.5252,3.5723,3.5708,3.5714,3.5645,3.5386,3.5143,3.4888,3.4591,3.4274,3.3979,3.3742,3.3372,3.2983,3.2727,3.2004,3.1585,3.1731,3.1748,3.1682,3.1563,3.1613,3.1566,3.1406,3.1292,3.1081,3.0713,3.0392,2.9346,2.7474,2.6882,2.6076,2.4937,2.4607,2.4333,2.4033,2.3477,2.297,2.246,2.1989,2.1285,2.0522,2.0074,1.9878,1.9737,1.9219,1.9525,2.032,2.0273,2.0919,2.1868,2.2576,2.3128,2.3414,0.0,0.0,0.0,0.0,0.0,0.0,2.5895,2.6207,2.661,2.6809,2.7033,2.7185,2.7185,2.7044,2.6715,2.6196,2.5359,0.0,0.0,0.0,0.0,0.0,0.0,0.0,0.0,0.0,1.4183,1.2705,1.1757,1.0539,0.9231,0.8807,0.7841,0.6428,0.0,0.0,0.0,0.0,0.0,0.0,0.0,0.0,0.0,0.0,0.0,0.0,0.0,0.0,0.0,0.0,0.0,0.0,0.0,3.2154,3.3123,3.1854,3.223,3.3142,3.3332,3.3924,3.4604,3.5095,3.5493,3.5773,3.5712,3.5747,3.5756,3.5611,3.5386,3.5133,3.4925,3.4612,3.434,3.4221,3.3921,3.3625,3.3411,3.2854,3.2451,3.2417,3.3248,3.3653,3.3127,3.2797,3.2486,3.2311,3.2266,3.1974,3.1342,3.1987,3.1454,2.9411,2.7997,2.7493,2.7868,2.7228,2.6652,2.6284,2.6389,2.5714,2.4268,2.4073,2.4125,2.4426,2.4572,2.453,2.4381,2.4829,2.484,2.4657,2.4657,2.5899,2.768,2.7366,2.8777,3.0843,0.0,0.0,0.0,0.0,0.0,0.0,0.0,2.7174,2.7185,2.7278,2.7534,2.7615,2.7441,2.736,2.7115,2.6715,2.6052,0.0,0.0,0.0,0.0,0.0,0.0,0.0,0.0,0.0,1.4888,1.3237,1.2445,1.123,0.9666,0.9235,0.8277,0.6874,0.5902,0.5458,0.0,0.0,0.0,0.0,0.0,0.0,0.8777,0.0,0.0,0.0,0.0,0.0,0.0,0.0,0.0,0.0,0.0,0.0,0.0,3.282,3.3135,3.3732,3.3739,3.4306,3.4964,3.521,3.5571,3.5857,3.5837,3.5815,3.5742,3.5572,3.5463,3.5326,3.5018,3.4851,3.4691,3.4517,3.4197,3.3947,3.3884,3.3171,3.2677,3.2822,3.2738,3.2557,3.2312,3.2115,3.1941,3.1776,3.1736,3.1597,3.1174,3.1316,3.1095,3.0359,2.9867,2.9312,2.8718,2.848,2.8256,2.794,2.7733,2.7512,2.7218,2.685,2.666,2.6608,2.6621,2.692,2.7503,2.7581,2.7984,2.8517,2.909,2.977,3.0413,3.1078,3.187,3.2653,0.0,0.0,0.0,0.0,0.0,0.0,0.0,2.7834,2.7846,2.7995,2.8179,2.8259,2.8007,2.7926,2.7696,2.7301,2.6715,0.0,0.0,0.0,0.0,0.0,0.0,0.0,1.8353,1.6883,1.5571,1.4222,1.2895,1.163,1.0304,0.9178,0.8097,0.7051,0.5811,0.528,0.0,0.0,0.0,0.0,0.0,0.0,0.9405,0.0,0.0,0.0,0.0,0.0,0.0,0.0,0.0,0.0,0.0,0.0,0.0,0.0,3.3894,3.4364,3.4203,3.4623,3.5143,3.5284,3.5593,3.5907,3.5895,3.5879,3.5807,3.5629,3.556,3.5477,3.5219,3.5088,3.4963,3.4771,3.4524,3.4344,3.4269,3.3643,3.3309,3.3569,3.3109,3.2834,3.2907,3.2525,3.2144,3.1878,3.195,3.1914,3.1605,3.1735,3.1785,3.1675,3.1067,3.0392,2.9715,2.9804,2.973,2.9507,2.948,2.9534,2.9636,2.9479,2.9329,2.9097,2.9243,2.9615,0.0,3.0408,3.0834,3.1392,3.2054,3.2469,3.2748,3.3482,3.393,3.4302,0.0,0.0,0.0,0.0,0.0,0.0,0.0,2.8327,2.8486,2.887,2.904,2.9118,2.8882,2.8736,2.8431,2.7962,0.0,0.0,0.0,0.0,0.0,0.0,0.0,0.0,1.9575,1.756,1.6147,1.5328,1.3248,1.1793,1.098,0.8911,0.7687,0.7064,0.5644,0.4926,0.0,0.0,0.0,0.0,0.0,0.0,0.0,0.0,0.0,0.0,0.0,0.0,0.0,0.0,0.0,0.0,0.0,0.0,0.0,0.0,0.0,0.0,0.0,3.4886,3.5172,3.5309,3.5628,3.591,3.5891,3.5891,0.0,3.5827,3.5713,3.559,3.5514,3.535,3.5184,3.5037,3.4908,3.4753,3.4561,3.4245,3.4197,3.4582,3.4202,3.4127,3.4645,3.3873,3.3172,3.2773,3.2983,3.2948,3.257,3.3068,3.328,3.3154,3.1759,3.0997,3.0853,3.1062,3.1141,3.1062,3.1509,3.1617,3.1438,3.1899,3.195,3.176,3.2191,3.2378,3.2411,3.3092,3.3385,3.3374,3.3715,3.4167,3.4664,3.4664,3.5114,3.5688,0.0,0.0,0.0,0.0,0.0,0.0,0.0,0.0,0.0,0.0,3.0024,2.9871,2.9561,2.9484,2.9106,0.0,0.0,0.0,0.0,0.0,0.0,0.0,0.0,0.0,2.0129,1.8324,1.6806,1.5643,1.3991,1.2507,1.1227,1.0168,0.8786,0.7305,0.6037,0.4542,0.0,0.0,0.0,0.0,0.0,0.0,0.0,0.0,0.0,0.0,1.7072,2.0876,0.0,0.0,0.0,0.0,0.0,0.0,0.0,0.0,3.4401,3.4925,3.4959,0.0,3.5577,3.5659,3.5781,3.5903,0.0,3.5894,3.5903,3.5875,3.5814,3.5724,3.5601,3.5512,3.5378,3.5184,3.5083,3.4961,3.4753,3.4435,3.4445,3.4989,3.4426,3.4455,3.5697,3.5054,3.472,3.5072,3.5305,3.508,3.4287,3.4458,3.4271,3.3595,3.3423,3.3052,3.2471,3.2608,3.2639,3.2577,3.2697,3.2715,3.2684,3.3015,3.3114,3.3067,3.3221,3.344,3.3764,3.4141,3.4469,3.4741,3.4982,3.516,3.5281,3.5359,3.5504,3.5713,0.0,0.0,0.0,0.0,0.0,0.0,0.0,0.0,0.0,0.0,0.0,3.0908,3.0152,3.0012,0.0,0.0,0.0,0.0,0.0,0.0,0.0,0.0,0.0,2.1454,2.0619,1.8787,1.7323,1.6494,1.4266,1.2668,1.1734,1.0427,0.912,0.8011,0.6199,0.4589,0.0,0.0,0.0,0.0,0.5166,0.0,0.0,0.0,0.0,0.0,1.6316,2.0073,0.0,2.8085,3.2059,3.4851,0.0,0.0,0.0,0.0,3.4489,3.4943,3.5133,3.5418,3.5679,3.5776,3.5846,3.5899,3.5947,3.5957,3.5932,3.5907,3.588,3.5813,3.5702,3.566,3.5568,3.5325,3.5268,3.5159,3.498,3.5075,3.5281,3.5595,3.552,3.5764,3.6538,3.6196,3.5972,3.6119,3.6441,3.6329,3.565,3.5931,3.5728,3.4864,3.507,3.4645,3.3415,3.3681,3.3783,3.3758,3.3808,3.387,3.3934,3.4113,3.4205,3.4191,3.4229,3.4353,3.4529,3.4808,3.5064,3.5306,3.5574,3.5671,3.569,3.5713,3.5724,3.5718,0.0,0.0,0.0,0.0,0.0,0.0,0.0,0.0,0.0,0.0,0.0,0.0,0.0,0.0,0.0,0.0,0.0,0.0,0.0,0.0,0.0,0.0,2.2706,2.182,2.1096,1.9147,1.7848,1.7296,1.4415,1.2825,1.2441,1.0364,0.9243,0.8738,0.6626,0.509,0.0,0.0,0.0,0.0,0.4372,0.0,0.0,0.0,0.0,0.0,0.0,0.0,0.0,2.787,3.2609,3.5497,3.4961,0.0,0.0,0.0,0.0,0.0,3.5426,3.5707,3.5927,3.5818,3.584,3.5894,3.5977,3.6009,3.5976,3.5927,3.5918,3.588,3.584,3.5806,3.5724,3.5481,3.5515,3.5512,3.5353,3.5964,3.6445,3.652,3.6967,3.7354,3.7555,3.7416,3.7202,3.6961,3.7347,3.7426,3.6991,3.7446,3.7335,3.6537,3.6658,3.5982,3.4357,3.4538,3.4621,3.4641,3.4718,3.4826,3.4952,3.5021,3.5057,3.5051,3.5086,3.5076,3.5053,3.527,3.5407,3.5507,3.5797,3.5916,3.591,3.5916,3.5829,3.5722,0.0,0.0,0.0,0.0,0.0,0.0,0.0,0.0,0.0,0.0,0.0,0.0,0.0,0.0,0.0,0.0,0.0,0.0,0.0,0.0,0.0,2.4628,2.3202,2.1998,2.1392,1.9621,1.8226,1.7296,1.4899,1.3369,1.2705,1.121,0.9934,0.8707,0.7976,0.691,0.5619,0.5144,0.0,0.0,0.4552,0.0,0.0,0.0,0.0,0.0,0.0,0.0,0.0,2.8929,3.3551,3.6319,3.6238,0.0,0.0,0.0,0.0,0.0,3.6255,3.6964,3.7321,3.6027,3.5767,3.5855,3.5977,3.5991,3.5995,3.5996,3.5971,3.5957,3.5903,3.5839,3.5764,3.5669,3.6068,3.6407,3.6358,3.7012,3.7731,3.8383,3.7963,3.8174,3.9586,3.9052,3.8861,3.9485,3.97,3.9482,3.8761,3.895,3.8723,3.7917,3.7927,3.7428,3.6376,3.5633,3.5268,3.5268,3.5111,3.5085,3.5172,3.5218,3.529,3.5356,3.5514,3.5629,3.5677,3.5713,3.5763,3.5834,3.5936,3.5987,3.5987,3.5986,3.5932,3.5797,0.0,0.0,0.0,0.0,0.0,0.0,0.0,0.0,0.0,0.0,0.0,0.0,0.0,0.0,0.0,0.0,0.0,0.0,0.0,0.0,2.6472,2.4542,2.3714,2.2599,2.1024,1.9347,1.7956,1.7117,1.4841,1.3426,1.2764,1.1389,1.0253,0.9368,0.8427,0.7367,0.6264,0.5023,0.431,0.3906,0.0,0.0,0.0,0.0,0.0,0.0,0.0,0.0,0.0,0.0,3.5094,3.709,3.6805,0.0,0.0,0.0,0.0,0.0,3.7268,3.768,3.7874,3.7239,3.674,3.6331,3.6009,3.5977,3.6122,3.6601,3.6699,3.6832,3.724,3.7284,3.7229,3.7123,3.7328,3.7527,3.7527,3.8132,3.8681,3.9032,3.908,3.939,4.0138,3.9851,3.9755,4.0133,4.0307,4.0251,3.9883,4.0048,3.9791,3.9023,3.8979,3.8565,3.7735,3.6812,3.609,3.5553,3.5514,3.5532,3.5624,3.5587,3.5636,3.5739,3.5759,3.5793,3.584,3.586,3.5872,3.5898,3.5934,3.5968,3.5996,3.5875,3.5807,3.5669,0.0,0.0,0.0,0.0,0.0,0.0,0.0,0.0,0.0,0.0,0.0,0.0,0.0,0.0,0.0,0.0,0.0,0.0,0.0,2.8371,2.6964,2.4628,2.4135,2.2921,2.0826,1.9347,1.8141,1.721,1.5032,1.3516,1.2764,1.1585,1.0895,1.0485,0.9263,0.8101,0.6963,0.5076,0.3788,0.2743,0.0,0.0,0.0,0.0,0.0,0.0,0.0,0.0,0.0,0.0,0.0,0.0,0.0,0.0,0.0,3.7593,3.7597,3.7757,3.8232,3.8464,3.8584,3.8559,3.7899,3.7102,3.6635,3.6567,3.6771,3.7456,3.7595,3.7793,3.8389,3.8486,3.8444,3.8341,3.8472,3.8606,3.8584,3.9194,3.9634,3.9572,4.0073,4.0408,4.0386,4.0367,4.0358,4.0395,4.0526,4.061,4.0616,4.0768,4.0597,4.0056,3.9984,3.9572,3.881,3.8139,3.7223,3.606,3.589,3.5871,3.5972,3.5859,3.5859,3.5974,3.5873,3.5854,3.5917,3.5917,3.5918,3.5914,3.5916,3.595,3.5946,3.5702,3.5533,3.5387,0.0,0.0,0.0,0.0,0.0,0.0,0.0,0.0,0.0,0.0,0.0,0.0,0.0,0.0,0.0,0.0,0.0,0.0,0.0,2.9094,2.7706,2.6025,2.3892,2.2189,2.0997,2.0464,1.9446,1.8048,1.6163,1.4465,1.2764,1.2175,1.2078,1.217,1.1375,0.9987,0.8247,0.6532,0.4166,0.1522,0.1165,0.0,0.0,0.0,0.0,0.0,0.0,0.0,0.0,0.0,0.0,0.0,0.0,0.0,3.8134,3.8417,3.859,3.8747,3.9032,3.9711,4.0162,3.9496,3.8769,3.8244,3.8362,3.8358,3.8358,3.8489,3.851,3.8512,3.8496,3.8444,3.8404,3.8381,3.9019,3.9489,3.9417,4.0145,4.0681,4.0681,4.0739,4.0796,4.0849,4.0859,4.0878,4.094,4.0901,4.0896,4.0964,4.0978,4.0994,4.1007,4.0986,4.058,3.9715,3.9647,3.8769,3.7084,3.6277,3.5908,3.5895,3.5839,3.5836,3.5907,3.5893,3.5935,3.5996,3.5986,3.5979,3.5985,3.5994,3.5955,3.5858,3.5469,3.5201,3.4999,0.0,0.0,0.0,0.0,0.0,0.0,0.0,0.0,0.0,0.0,0.0,0.0,0.0,0.0,0.0,0.0,0.0,0.0,0.0,3.0152,2.8548,2.588,2.5031,2.3491,2.1078,1.992,1.8912,1.8071,1.6257,1.4651,1.3232,1.2754,1.2175,1.158,1.1149,0.9844,0.7702,0.5531,0.3682,0.2002,-0.0629,0.2113,0.0,0.0,0.0,0.0,0.0,0.0,0.0,0.0,3.8255,3.8711,3.8894,3.8968,3.9008,3.9274,3.9466,3.9681,3.998,3.9957,3.9893,4.0242,3.9733,3.9004,3.8575,3.8491,3.8665,3.9285,3.9405,3.9546,4.0039,4.0091,4.0076,4.0023,4.0281,4.0454,4.0441,4.0684,4.0882,4.0924,4.0924,4.0932,4.0964,4.0953,4.0981,4.1061,4.1042,4.1035,4.106,4.1012,4.1033,4.109,4.1068,4.0901,4.0602,4.007,3.9427,3.8674,3.7304,3.6387,3.59,3.5797,3.5774,3.5833,3.5846,3.5878,3.5938,3.5947,3.5919,3.5864,3.5833,3.5807,3.5745,3.556,3.532,3.51,0.0,0.0,0.0,0.0,0.0,0.0,0.0,0.0,0.0,0.0,0.0,0.0,0.0,0.0,0.0,0.0,0.0,0.0,3.1609,3.0706,2.8995,2.6438,2.5557,2.3846,2.1168,2.0175,1.9363,1.8542,1.6828,1.5589,1.4651,1.3896,1.3227,1.2624,1.1622,0.9858,0.7495,0.5014,0.4291,0.4466,0.1927,0.5727,0.0,0.0,0.0,0.0,0.0,0.0,0.0,0.0,3.9401,3.9219,3.9272,3.9427,3.9604,3.9816,4.0002,4.0233,4.0527,4.0207,3.994,4.0692,4.0442,3.9868,3.9345,3.9268,3.9486,4.0137,4.0277,4.0459,4.0996,4.1094,4.1073,4.1043,4.1016,4.1007,4.1007,4.0935,4.092,4.0961,4.0961,4.0986,4.1022,4.1022,4.1061,4.114,4.1107,4.1092,4.1074,4.1004,4.0996,4.1048,4.1012,4.1013,4.1074,4.0506,4.0013,3.9579,3.8162,3.7014,3.6163,3.5823,3.5708,3.5771,3.5773,3.5826,3.5905,3.5903,3.5858,3.5794,3.5668,3.564,3.5602,3.54,3.5209,3.5018,0.0,0.0,0.0,0.0,0.0,0.0,0.0,0.0,0.0,0.0,0.0,0.0,0.0,0.0,0.0,0.0,0.0,0.0,3.2947,3.0703,2.8959,2.808,2.5335,2.3008,2.1329,2.1606,2.0979,1.9637,1.8048,1.7296,1.7296,1.5697,1.5324,1.5684,1.3119,1.0496,0.7756,0.5527,0.6331,0.9103,0.9746,1.0694,1.2279,0.0,0.0,0.0,0.0,0.0,0.0,0.0,3.967,3.9526,3.9651,3.9717,3.9743,3.9941,4.0139,4.0342,4.0543,4.0579,4.0629,4.0754,4.083,4.091,4.0986,4.1006,4.1011,4.1081,4.1108,4.1091,4.1097,4.1094,4.1101,4.1093,4.1033,4.1009,4.1003,4.0929,4.0901,4.0905,4.09,4.0959,4.1088,4.1091,4.1121,4.1191,4.1142,4.1072,4.0999,4.0949,4.0905,4.0901,4.0964,4.0998,4.0998,4.1056,4.0591,3.9593,3.8723,3.7763,3.6775,3.5977,3.5649,3.5707,3.5707,3.5784,3.5905,3.5898,3.5859,3.5787,3.5579,3.55,3.5437,3.4906,3.4753,3.4733,0.0,0.0,0.0,0.0,0.0,0.0,0.0,0.0,0.0,0.0,0.0,0.0,0.0,0.0,0.0,0.0,0.0,0.0,3.5149,3.2751,3.0684,2.9365,2.6504,2.4211,2.2394,2.2217,2.1418,1.9803,1.8988,1.8241,1.7591,1.6741,1.5859,1.4875,1.3792,1.0832,0.6944,1.0308,1.1037,1.0459,1.7624,2.2072,2.5203,0.0,0.0,0.0,0.0,0.0,0.0,0.0,0.0,0.0,3.9164,3.9416,3.9935,4.01,4.0252,4.0411,4.0549,4.0191,3.9895,4.0568,4.0354,4.0166,4.0851,4.1047,4.1074,4.1108,4.1108,4.1111,4.1091,4.1091,4.1094,4.1103,4.1084,4.1068,4.1073,4.1054,4.1035,4.1035,4.1033,4.1053,4.1094,4.1092,4.1086,4.1055,4.1046,4.1022,4.1008,4.0948,4.0898,4.0896,4.0918,4.0904,4.0849,4.0924,4.0704,4.021,3.8788,3.7648,3.6779,3.5925,3.5546,3.5546,3.5657,3.5708,3.5752,3.5706,3.5678,3.5631,3.5445,3.5418,3.5463,3.5212,3.4963,3.4713,0.0,0.0,0.0,0.0,0.0,0.0,0.0,0.0,0.0,0.0,3.9418,3.9295,0.0,0.0,0.0,0.0,0.0,0.0,0.0,3.482,3.2809,3.0855,2.8488,2.6248,2.4211,2.2989,2.2189,2.1728,2.052,1.9712,1.9422,1.8411,1.7383,1.6385,1.6049,1.411,1.1261,1.4751,1.6807,1.832,2.438,2.9696,3.4428,0.0,0.0,0.0,0.0,0.0,0.0,0.0,0.0,0.0,3.9385,3.9596,4.0038,4.0158,4.0304,4.0476,4.0593,4.0288,4.0048,4.0632,4.0442,4.0271,4.0894,4.1074,4.1108,4.1108,4.1108,4.1108,4.1108,4.1108,4.1108,4.1108,4.1108,4.1091,4.1094,4.1085,4.1058,4.1069,4.1003,4.0996,4.1019,4.1027,4.0998,4.0969,4.0961,4.0945,4.0918,4.0878,4.0858,4.0849,4.0809,4.0776,4.0754,4.0776,4.0694,4.0469,3.9148,3.8064,3.7203,3.6015,3.5476,3.5496,3.5581,3.5618,3.559,3.5516,3.5492,3.5512,3.534,3.5262,3.5239,3.5047,3.4794,3.4486,0.0,0.0,0.0,0.0,0.0,0.0,0.0,0.0,0.0,0.0,3.9901,3.9952,0.0,0.0,0.0,0.0,0.0,0.0,0.0,3.6899,3.511,3.2982,3.0976,2.8874,2.664,2.4204,2.3547,2.4745,2.2454,2.1606,2.2227,2.0692,1.9847,1.9607,1.9475,1.9027,1.8485,1.9312,2.3385,2.945,3.027,3.4393,4.0058,4.0304,0.0,0.0,0.0,0.0,0.0,0.0,0.0,0.0,3.9922,3.996,4.0039,4.0176,4.0353,4.0519,4.0673,4.0694,4.0718,4.084,4.0896,4.0926,4.107,4.1108,4.1108,4.1108,4.1108,4.1108,4.1108,4.1108,4.1108,4.1108,4.1108,4.1108,4.1108,4.1033,4.1,4.0992,4.0882,4.0824,4.0882,4.0901,4.0875,4.0875,4.0867,4.0829,4.0779,4.0769,4.0778,4.0746,4.0642,4.0623,4.0668,4.061,4.054,4.0473,3.958,3.8708,3.783,3.6228,3.5512,3.5496,3.547,3.5438,3.5393,3.5325,3.5331,3.5336,3.5223,3.5053,3.4813,3.4574,3.4379,3.4171,0.0,0.0,0.0,0.0,0.0,0.0,0.0,0.0,0.0,0.0,0.0,0.0,0.0,0.0,0.0,0.0,0.0,0.0,0.0,3.8889,3.7576,3.7269,3.2911,3.0268,2.977,2.7837,2.6932,2.7198,2.4639,2.3491,2.3664,2.3268,2.2663,2.1971,2.3045,2.1995,1.9903,2.6886,2.9794,3.0242,3.5494,3.8694,4.0233,4.0288,4.0234,0.0,0.0,0.0,0.0,0.0,0.0,0.0,3.9357,3.9604,4.0177,4.0321,4.0389,4.0454,4.064,4.066,4.0626,4.0655,4.0779,4.0929,4.1,4.1066,4.1108,4.1108,4.1108,4.1108,4.1108,4.1108,4.1108,4.1108,4.1108,4.1108,4.1108,4.1033,4.0994,4.1,4.0887,4.0807,4.0818,4.0781,4.0742,4.074,4.0699,4.0629,4.0574,4.0564,4.0519,4.0419,4.0427,4.0412,4.0392,4.0419,4.0408,4.0308,3.8776,3.797,3.7797,3.6861,3.6089,3.5483,3.5278,3.5234,3.5307,3.5316,3.5162,3.4925,3.4963,3.4812,3.4593,3.4529,3.4375,3.4179,0.0,0.0,0.0,0.0,0.0,0.0,0.0,0.0,0.0,0.0,0.0,0.0,0.0,0.0,0.0,0.0,0.0,0.0,0.0,0.0,4.0023,3.8817,3.4829,3.2577,3.2393,3.1083,3.0242,2.9985,2.8607,2.722,2.597,2.5766,2.53,2.485,2.6879,2.7166,2.6537,3.205,3.4411,3.483,3.8484,4.006,4.0214,4.0307,4.0271,4.0196,4.0233,0.0,0.0,0.0,0.0,0.0,0.0,0.0,4.0177,4.0302,4.0403,4.0485,4.0612,4.0673,4.07,4.0655,4.0759,4.0894,4.0898,4.098,4.1057,4.1057,4.1078,4.1108,4.1108,4.1108,4.1108,4.1108,4.1108,4.1085,4.1061,4.0968,4.0882,4.0858,4.074,4.0672,4.0711,4.0674,4.0649,4.0642,4.0615,4.053,4.037,4.0438,4.0422,4.021,4.0247,4.0248,4.0252,4.0214,4.0234,4.0234,3.8898,3.7849,3.701,3.6374,3.5786,3.5247,3.5095,3.5047,3.5051,3.5047,3.5015,3.4945,3.4983,3.4753,3.4401,3.4483,3.4274,3.3972,0.0,0.0,0.0,0.0,0.0,0.0,0.0,0.0,0.0,0.0,0.0,0.0,0.0,0.0,0.0,0.0,0.0,0.0,0.0,0.0,0.0,3.9812,3.7005,3.5393,3.5122,3.4015,3.3207,3.2709,3.2737,3.1559,2.9402,2.8716,2.8201,2.811,3.0768,3.2585,3.376,3.5719,3.7704,3.9651,3.9962,4.0101,4.0158,4.0342,4.0342,4.0271,4.0325,4.0307,4.0271,4.0233,0.0,0.0,0.0,0.0,4.0138,4.0267,4.0403,4.05,4.0569,4.07,4.0769,4.0699,4.077,4.0867,4.0801,4.0882,4.0981,4.0981,4.1057,4.1108,4.1081,4.1078,4.1078,4.1051,4.1051,4.1037,4.0961,4.0866,4.077,4.0706,4.0574,4.0523,4.0573,4.0573,4.0573,4.0573,4.0549,4.0415,4.0175,4.0302,4.0248,4.0024,4.0042,4.0061,4.0158,4.0058,4.0077,4.0196,3.9147,3.77,3.5951,3.5479,3.5155,3.4962,3.4907,3.4851,3.4773,3.4812,3.4889,3.4983,3.4983,3.4653,3.426,3.4321,3.4074,3.3698,0.0,0.0,0.0,0.0,0.0,0.0,0.0,0.0,0.0,0.0,4.1796,4.2216,0.0,0.0,0.0,0.0,0.0,0.0,4.3582,0.0,0.0,4.2977,4.0242,3.8639,3.8347,3.6428,3.5362,3.5281,3.513,3.51,3.5142,3.3229,3.2019,3.1637,3.4826,3.5915,3.5545,3.7978,3.9458,4.0101,4.0042,4.012,4.0288,4.0425,4.0342,4.0157,4.0398,4.0363,4.0215,4.0271,4.0215,0.0,0.0,0.0,4.0138,4.0325,4.0394,4.0427,4.0564,4.0662,4.0713,4.0629,4.0711,4.081,4.0809,4.0869,4.0902,4.0902,4.1017,4.1078,4.1017,4.1006,4.0987,4.0863,4.0846,4.0846,4.0829,4.0759,4.0718,4.0694,4.0574,4.0504,4.0504,4.0504,4.0504,4.0504,4.0356,4.0195,4.0023,3.9878,3.9788,3.9766,3.9743,3.9829,4.0019,4.0017,4.0077,4.0177,3.8422,3.671,3.5077,3.4812,3.4754,3.4812,3.4567,3.4567,3.4733,3.4773,3.4711,3.4583,3.4442,3.426,3.4005,3.3788,3.3671,3.3587,0.0,0.0,0.0,0.0,0.0,0.0,0.0,0.0,0.0,0.0,0.0,4.2476,0.0,0.0,0.0,4.3652,4.3786,4.3818,4.3804,4.3753,4.3495,4.3014,4.1795,4.0722,3.978,3.8805,3.7923,3.7148,3.6958,3.7121,3.7566,3.7028,3.6026,3.4807,3.7055,3.7817,3.7475,3.8973,3.9857,4.0195,4.025,4.0304,4.036,4.0457,4.0392,4.029,4.0396,4.0379,4.0308,4.0271,4.0196,4.0158,4.0272,0.0,0.0,0.0,4.0396,4.0492,4.0615,4.0615,4.0607,4.0635,4.07,4.0738,4.0694,4.0776,4.082,4.08,4.089,4.0968,4.0898,4.089,4.0874,4.082,4.081,4.0616,4.0089,3.9995,3.9953,3.9913,3.986,3.9988,4.045,4.0408,4.0339,4.0339,4.012,3.9901,3.9724,3.9698,3.967,3.9599,3.967,3.9781,3.9933,3.9933,3.954,3.8728,3.7791,3.642,3.4656,3.4505,3.4502,3.4628,3.4517,3.4476,3.4524,3.4545,3.4564,3.4539,3.4367,3.4136,3.3921,3.378,3.3605,3.3452,0.0,0.0,0.0,0.0,0.0,0.0,0.0,0.0,0.0,0.0,0.0,0.0,0.0,0.0,0.0,0.0,4.3883,4.3897,4.3851,4.3719,4.3339,4.2655,4.2418,4.1803,4.0689,4.0417,3.9766,3.8728,3.858,3.875,3.9218,3.9733,3.9163,3.7751,3.8854,3.9174,3.8906,3.9561,4.0043,4.0302,4.0469,4.0454,4.0356,4.0457,4.0392,4.0271,4.0342,4.0342,4.0307,4.0233,4.0177,4.0158,4.0215,4.0253,0.0,0.0,0.0,4.0469,4.0574,4.0559,4.0549,4.064,4.0687,4.0713,4.0668,4.0713,4.0761,4.0718,4.0776,4.08,4.0759,4.0751,4.0761,4.0729,4.0729,4.0483,3.9767,3.9676,3.9656,3.96,3.9554,3.9753,4.0367,4.0232,4.0101,4.0101,3.9859,3.966,3.9508,3.9532,3.9532,3.9502,3.9599,3.9717,3.9889,3.9911,3.9098,3.747,3.7308,3.623,3.4398,3.425,3.4245,3.434,3.4386,3.4363,3.434,3.4316,3.4386,3.445,3.4203,3.3979,3.377,3.368,3.3444,3.3274,0.0,0.0,0.0,0.0,0.0,0.0,0.0,0.0,0.0,0.0,0.0,0.0,4.2976,4.3123,4.3358,4.3771,4.3929,4.4005,4.4005,4.3495,4.316,4.2976,4.2251,0.0,4.1346,4.0707,4.0336,4.0188,3.9935,4.0187,4.0879,4.0926,4.0732,4.0399,4.0738,4.0274,3.9296,3.9986,4.0383,4.0574,4.0596,4.0438,4.0241,4.0419,4.0213,3.987,4.0196,4.0215,4.0118,4.0177,4.0119,4.0017,4.0077,4.0117,4.0137,0.0,0.0,0.0,4.0323,4.0438,4.0574,4.0526,4.0654,4.079,4.079,4.0746,4.07,4.07,4.066,4.0617,4.0603,4.0662,4.0668,4.0549,4.0519,4.05,4.0446,4.0427,4.0446,4.0446,4.0264,4.0157,4.0195,3.9983,3.9819,3.9819,3.9632,3.9508,3.9502,3.9272,3.9245,3.9483,3.9526,3.9623,3.9889,3.9954,3.9018,3.714,3.7047,3.5997,3.4105,3.3921,3.3868,3.3947,3.4074,3.4148,3.4197,3.4148,3.4124,3.4099,3.368,3.3542,3.3486,3.325,3.3117,3.3117,0.0,0.0,0.0,0.0,0.0,0.0,0.0,0.0,0.0,0.0,0.0,0.0,0.0,4.3744,4.3905,4.4048,4.4288,4.4412,4.4318,4.398,4.3609,4.323,4.2752,4.2274,4.1709,4.1265,4.0896,4.0628,4.0628,4.0866,4.1391,4.1753,4.1561,4.0918,4.0844,4.0401,3.9762,4.0043,4.0364,4.0655,4.0629,4.0521,4.0396,4.0476,4.0342,4.0119,4.0099,4.0138,4.0139,3.9979,4.0038,4.0137,4.0117,4.0117,4.0117,4.0176,4.0196,4.0196,4.0289,4.0304,4.0353,4.0367,4.053,4.0668,4.0621,4.07,4.0746,4.07,4.0673,4.0646,4.0622,4.0583,4.0564,4.0504,4.0489,4.0315,3.9796,3.9719,3.9719,3.9719,3.9517,3.9584,4.0138,3.9835,3.9609,3.9609,3.9383,3.9245,3.9245,3.9137,3.9165,3.9376,3.9452,3.9623,3.9889,3.9739,3.8822,3.7099,3.6721,3.5655,3.4023,3.378,3.3726,3.3842,3.3895,3.3998,3.4148,3.4148,3.4099,3.3947,3.368,3.3455,3.3291,3.3117,3.3011,3.2961,0.0,0.0,0.0,0.0,0.0,0.0,0.0,0.0,4.3568,4.3615,0.0,0.0,0.0,0.0,4.4401,4.4447,4.461,4.4655,4.4572,4.427,4.3912,4.3453,4.3087,4.2616,4.2092,4.1727,4.1356,4.1111,4.1202,4.1472,4.1899,4.2378,4.2123,4.1274,4.1151,4.0697,4.0043,4.0172,4.0438,4.073,4.0723,4.063,4.0472,4.0545,4.0438,4.0233,4.0081,4.0021,3.9962,3.9702,3.9698,3.9743,3.9807,3.9935,4.0077,4.0098,4.0077,4.0077,4.0119,4.0139,4.0177,4.0248,4.0367,4.0515,4.053,4.0626,4.07,4.0668,4.0668,4.064,4.0622,4.0558,4.0489,4.0489,4.0489,4.0296,3.9777,3.97,3.9685,3.9602,3.9373,3.9394,3.9924,3.9585,3.9376,3.9376,3.9192,3.9101,3.9101,3.9101,3.9165,3.9298,3.9427,3.9599,3.9826,3.9623,3.8657,3.6963,3.6586,3.5514,3.3834,3.3671,3.3643,3.3726,3.378,3.3921,3.4099,3.3998,3.3895,3.378,3.3473,3.3268,3.3086,3.3011,3.2948,3.2916,0.0,0.0,0.0,0.0,0.0,0.0,0.0,0.0,4.3769,4.3916,0.0,0.0,0.0,0.0,0.0,4.4916,4.4787,4.4745,4.4726,4.4346,4.3998,4.374,4.3159,4.2734,4.2458,4.199,4.1735,4.1735,4.1753,4.2015,4.2523,4.2865,4.2509,4.1593,4.1827,4.1255,4.0137,4.0389,4.061,4.0798,4.0941,4.0752,4.0444,4.0622,4.0439,4.0119,4.01,3.9886,3.9576,3.9364,3.908,3.8896,3.9205,3.9632,3.9975,3.9911,3.9954,3.9975,0.0,0.0,0.0,4.0158,4.025,4.0353,4.0539,4.0534,4.0511,4.0574,4.0607,4.0593,4.0588,4.0539,4.0489,4.0489,4.0489,4.0489,4.0473,4.0473,4.0389,4.0214,3.9943,3.9705,3.9508,3.9245,3.9101,3.9101,3.9101,3.9101,3.9101,3.9101,3.9165,3.9298,3.9427,3.9575,3.9693,3.9551,3.8534,3.6682,3.6597,3.5478,3.3509,3.3549,3.3605,3.3605,3.3726,3.3895,3.4049,3.3671,3.352,3.353,3.3073,3.2884,3.2884,3.2884,3.2884,3.2916,0.0,0.0,0.0,0.0,0.0,4.4509,4.4539,4.458,4.4624,0.0,0.0,0.0,4.5023,4.5128,4.5285,4.5449,4.5399,4.5342,4.5343,4.5036,4.4757,4.458,4.4175,4.3781,4.3422,4.3087,4.2792,4.2501,4.2693,4.277,4.2734,4.3266,4.2825,4.1622,4.1969,4.144,4.0329,4.0448,4.0648,4.0869,4.0869,4.0809,4.0742,4.061,4.0481,4.0336,3.9943,3.9838,3.9797,3.9152,3.9216,3.9537,3.9628,3.9807,3.9975,3.9911,3.9911,3.9911,3.9889,0.0,0.0,0.0,0.0,0.0,4.0251,4.0356,4.0454,4.0519,4.0534,4.0534,4.0588,4.0422,4.0283,4.0286,4.0286,4.0195,3.9963,3.9924,3.9882,3.9775,3.9566,3.9433,3.9376,3.9129,3.895,3.895,3.9007,3.9036,3.9036,3.9073,3.9165,3.9298,3.935,3.935,3.9331,3.9073,3.7987,3.6174,3.5987,3.5006,3.3352,3.3422,3.3481,3.352,3.3577,3.3541,3.3447,3.3494,3.3437,3.3262,3.2894,3.2719,3.2672,3.2672,3.2787,3.2884,0.0,0.0,0.0,0.0,0.0,4.4881,4.4962,4.5071,4.5203,0.0,0.0,0.0,4.5572,4.5607,4.5703,4.5854,4.5761,4.5688,4.5665,4.5417,4.5184,4.4992,4.4682,4.4355,4.3924,4.3638,4.3369,4.3177,4.3284,4.332,4.3318,4.3421,4.2909,4.1855,4.1841,4.1341,4.0457,4.0578,4.0721,4.0897,4.0926,4.0918,4.0888,4.0759,4.068,4.0596,4.0024,3.984,3.9738,3.9027,3.9119,3.9483,3.9414,3.9604,3.9867,3.9845,3.9845,3.9848,3.9804,3.9867,3.9911,3.9933,0.0,0.0,4.0177,4.0195,4.0232,4.0356,4.0302,4.0248,4.0267,4.0138,4.0023,3.992,3.9878,3.9835,3.9709,3.9687,3.9618,3.9494,3.9364,3.9245,3.9137,3.9007,3.891,3.891,3.895,3.9007,3.9036,3.9045,3.9101,3.9219,3.9156,3.9082,3.911,3.8748,3.7699,3.5987,3.576,3.4808,3.3214,3.3274,3.3286,3.3345,3.3422,3.3298,3.3045,3.3105,3.3045,3.289,3.2619,3.2521,3.2454,3.2454,3.2555,3.2639,0.0,0.0,4.4966,4.4943,4.5099,4.5285,4.547,4.5524,4.5603,0.0,4.588,4.5948,4.6072,4.6049,4.6033,4.6088,4.593,4.5836,4.5825,4.566,4.5433,4.5187,4.495,4.4638,4.4243,4.393,4.3794,4.3804,4.367,4.3717,4.3899,4.3446,4.281,4.2057,4.1622,4.1086,4.0535,4.0743,4.0871,4.0924,4.1039,4.1012,4.0914,4.0974,4.0933,4.0789,4.0221,3.9848,3.9547,3.9017,3.8931,3.9027,3.8915,3.9189,3.9623,3.9665,3.9712,3.9735,3.9712,3.9781,3.9889,3.9975,3.9954,0.0,4.0196,4.0081,3.9962,4.0158,4.0041,3.9901,3.984,3.9797,3.9728,3.9532,3.9427,3.9408,3.959,3.9552,3.9427,3.9227,3.9219,3.911,3.8862,3.8833,3.8833,3.8862,3.8921,3.9007,3.9073,3.9036,3.9036,3.9101,3.8892,3.8833,3.8931,3.8541,3.7585,3.6024,3.5864,3.4862,3.3229,3.314,3.3086,3.3117,3.3304,3.3117,3.2699,3.2621,3.2504,3.2417,3.2266,3.2214,3.2249,3.2249,3.2249,3.2283,0.0,4.5186,4.5285,4.5227,4.534,4.5442,4.5494,4.5636,4.5796,4.5949,4.6014,4.6046,4.6028,4.6009,4.6024,4.6092,4.6011,4.5981,4.6033,4.5901,4.5769,4.5675,4.5568,4.5323,4.4992,4.4905,4.4762,4.4501,4.4419,4.4064,4.3417,4.3348,4.2599,4.1402,4.1457,4.1184,4.066,4.0882,4.0967,4.0981,4.1007,4.1003,4.098,4.0948,4.0848,4.0692,4.0315,4.0005,3.969,3.9279,3.8942,3.8778,3.9173,3.9181,3.9136,3.9508,3.9502,3.9452,3.9693,3.9758,3.9758,3.9889,3.9954,0.0,3.9975,3.9977,4.0017,4.0118,4.0098,4.0058,4.0041,3.9876,3.9675,3.9599,3.9245,3.9017,3.9055,3.8998,3.8884,3.8676,3.8646,3.8615,3.851,3.8478,3.851,3.8572,3.8743,3.8892,3.9007,3.9007,3.9036,3.9101,3.8892,3.8713,3.851,3.8219,3.7496,3.6323,3.5747,3.4957,3.396,3.336,3.3086,3.3086,3.3147,3.2766,3.2162,3.2231,3.2197,3.2074,3.1765,3.1763,3.1893,3.1893,3.2037,3.2179,4.5449,4.5525,4.5601,4.5563,4.5667,4.5753,4.5794,4.5874,4.5961,4.6049,4.6074,4.6065,4.6,4.5975,4.5952,4.6,4.5992,4.6035,4.6106,4.6002,4.592,4.5911,4.5796,4.5634,4.5399,4.5264,4.5096,4.4896,4.4426,4.3975,4.3534,4.2773,4.2031,4.1399,4.1159,4.0949,4.0761,4.0922,4.1012,4.1058,4.1043,4.1058,4.1051,4.1008,4.0928,4.0801,4.0428,4.0024,3.9566,3.9137,3.9027,3.9045,3.9017,3.9073,3.9181,3.9357,3.935,3.9376,3.9661,3.9731,3.9712,3.9781,3.9848,0.0,0.0,3.9848,3.9781,3.987,3.9735,3.9599,3.9609,3.9408,3.9245,3.9192,3.8884,3.8603,3.8442,3.8554,3.8603,3.851,3.8478,3.8446,3.8415,3.8382,3.8465,3.8609,3.8701,3.8713,3.8658,3.8815,3.8737,3.84,3.8373,3.8249,3.8034,3.7774,3.7184,3.6256,3.5614,3.4829,3.3995,3.3305,3.2898,3.2719,3.2734,3.2317,3.164,3.175,3.164,3.1449,3.1389,3.1483,3.1651,3.1651,3.1726,3.1837,4.5643,4.5788,4.5854,4.5827,4.591,4.6,4.6065,4.6054,4.6046,4.6016,4.6014,4.6013,4.5988,4.5885,4.5849,4.592,4.593,4.5928,4.5847,4.5801,4.5779,4.5766,4.5686,4.5634,4.5679,4.5297,4.5055,4.4954,4.4092,4.3573,4.3357,4.2125,4.1493,4.1387,4.0848,4.0703,4.0846,4.0964,4.1052,4.1105,4.1094,4.1093,4.1101,4.1097,4.1051,4.0961,4.0532,4.0023,3.9532,3.911,3.9173,3.9338,3.8943,3.8999,3.9234,3.9253,3.9227,3.9272,3.9583,3.9679,3.9708,3.9665,3.9712,3.9781,0.0,0.0,0.0,3.9647,3.9383,3.9156,3.9101,3.8979,3.8803,3.8743,3.8528,3.8234,3.7998,3.8132,3.8281,3.83,3.835,3.835,3.8285,3.8285,3.8401,3.8614,3.8515,3.8415,3.836,3.8473,3.831,3.7805,3.7825,3.7756,3.765,3.7392,3.6902,3.6266,3.5457,3.4694,3.3935,3.3082,3.2521,3.2231,3.2231,3.1842,3.1257,3.1338,3.1162,3.0912,3.1117,3.1291,3.1385,3.1385,3.1402,3.144,4.5429,4.5932,4.6033,4.5918,4.5954,4.5985,4.5921,4.5871,4.5802,4.5747,4.575,4.5789,4.5886,4.5689,4.5664,4.5968,4.5832,4.5517,4.4981,4.4938,4.4948,4.4934,4.4976,4.53,4.5936,4.5179,4.4679,4.4476,4.3605,4.2755,4.1932,4.1752,4.1366,4.0808,4.0718,4.0801,4.0987,4.107,4.1088,4.1094,4.111,4.1092,4.1091,4.109,4.1055,4.0933,4.0481,4.0114,3.9857,3.9721,3.9464,3.9197,3.9489,3.9125,3.8715,3.9364,3.9181,3.8876,3.9383,3.9613,3.9674,3.9551,3.9526,3.9551,3.9532,0.0,3.9427,3.9526,0.0,3.9401,3.9137,0.0,0.0,3.8572,3.83,3.8135,3.8083,3.7791,3.7578,3.7523,3.7984,3.8189,3.781,3.7827,3.8018,3.834,3.7791,3.7808,3.8609,3.7962,3.7754,3.8227,3.7738,3.745,3.7413,3.7164,3.6974,3.6869,3.5447,3.4708,3.4549,3.2789,3.202,3.2039,3.1735,3.1418,3.1123,3.1123,3.0982,3.0733,3.0912,3.0952,3.0952,3.0952,3.1072,3.119,4.3772,4.4187,4.4382,4.4842,4.4934,4.5094,4.5539,4.5492,4.5391,4.5351,4.5245,4.5227,4.5378,4.4766,4.4651,4.5468,4.5021,4.4639,4.4466,4.4628,4.454,4.4078,4.4061,4.4243,4.4611,4.4172,4.3889,4.3814,4.2957,4.2305,4.1909,4.1409,4.1042,4.075,4.081,4.0874,4.0994,4.1074,4.1097,4.1105,4.109,4.1112,4.1152,4.1112,4.101,4.0843,4.0525,4.0166,3.9819,3.966,3.9561,3.9439,3.9227,3.9189,3.9212,3.92,3.9165,3.9146,3.9388,3.9136,3.8925,3.9324,3.9044,3.8832,3.9338,3.935,3.9298,3.9376,0.0,0.0,0.0,0.0,0.0,0.0,3.7984,3.7739,3.7541,3.7487,3.7487,3.7577,3.7595,3.7468,3.7152,3.7266,3.7451,3.7827,3.7506,3.7506,3.7931,3.7542,3.7287,3.7155,3.7114,3.7073,3.7009,3.6869,3.6846,3.6829,3.5787,3.5016,3.4414,3.3112,3.2182,3.1582,3.1244,3.0948,3.0699,3.0699,3.0634,3.0609,3.0651,3.0773,3.0912,3.0912,3.0773,3.0576,4.0962,4.1948,4.278,4.34,4.357,4.3789,4.4397,4.4345,4.4255,4.4255,4.4159,4.4185,4.4486,4.3824,4.3775,4.4801,4.4198,4.3752,4.367,4.3808,4.3666,4.3195,4.3146,4.3298,4.3615,4.3275,4.3085,4.3069,4.2218,4.1772,4.1731,4.1121,4.0859,4.084,4.0918,4.0974,4.1028,4.1085,4.1105,4.1091,4.1091,4.113,4.1171,4.1112,4.1003,4.0836,4.0643,4.0312,3.9926,3.9735,3.9683,0.0,3.9173,3.9216,3.9364,3.9064,3.8998,3.9064,3.9175,3.882,3.8571,3.9129,3.881,3.8511,3.9146,3.9183,3.9101,3.9183,3.9055,0.0,0.0,0.0,3.8186,3.788,0.0,3.7392,3.7108,3.7147,3.7206,3.7226,3.6995,3.6821,3.6706,3.6843,3.7038,3.7358,3.7058,3.702,3.7301,3.7038,3.6706,3.6409,3.6557,3.6615,3.652,3.652,3.652,3.6502,3.5884,3.5027,3.4012,3.3137,3.2132,3.1061,3.0723,3.0493,3.0375,3.0375,3.0359,3.0443,3.0443,3.0526,3.0692,3.079,3.0551,3.0225,3.6783,3.956,4.1756,4.1782,4.194,4.2063,4.2115,4.2102,4.2102,4.2102,4.2146,4.2479,4.3265,4.3141,4.3315,4.4073,4.3589,4.2967,4.2393,4.2019,4.1957,4.232,4.2279,4.269,4.3672,4.2792,4.2304,4.2236,4.1425,4.0972,4.0846,4.0942,4.0968,4.0898,4.1031,4.1097,4.1097,4.1108,4.1091,4.1091,4.1108,4.1105,4.1101,4.111,4.1058,4.0983,4.084,4.0599,4.0354,4.0138,3.9943,0.0,0.0,0.0,3.8793,3.9026,3.8663,3.8216,3.8609,3.8836,3.8989,3.9007,3.8979,3.8979,3.9007,3.891,3.8851,3.891,3.8755,3.8554,3.8354,3.8138,3.788,3.7485,3.7372,0.0,0.0,3.6846,3.6544,3.6037,3.6105,3.634,3.6666,3.6661,3.6736,3.7108,3.6343,3.6199,3.6981,3.6266,3.6088,3.658,3.6241,3.6019,3.6019,3.6019,3.6019,3.6002,3.5317,3.4463,3.338,3.2487,3.15,3.051,3.0189,3.0103,3.0189,3.0189,3.0189,3.0189,3.0189,3.0189,3.0248,3.0443,3.0551,3.0609,3.4383,3.5839,3.7476,3.9422,3.9958,4.0332,4.1089,4.1213,4.1169,4.1088,4.1056,4.1212,4.1656,4.0983,4.0983,4.2217,4.152,4.1124,4.1348,4.1399,4.1386,4.1247,4.1227,4.1427,4.1908,4.1566,4.1411,4.1461,4.1205,4.1038,4.0996,4.1049,4.1046,4.1031,4.1077,4.1416,4.1958,4.1964,4.23,4.2768,4.2181,4.196,4.1894,4.132,4.1052,4.0998,4.0894,4.0641,0.0,4.021,4.0002,3.9766,3.9623,3.9489,3.9301,3.9008,3.8847,3.8722,0.0,0.0,3.7957,3.8597,0.0,3.7959,3.8737,3.8822,3.878,3.8881,3.8725,3.8523,3.8219,3.8086,3.7845,3.7392,3.7241,3.7031,0.0,3.5864,3.5191,3.488,3.5035,3.5266,3.5464,3.5498,3.5705,3.6249,3.5854,3.581,3.6516,3.5985,3.5827,3.6199,3.6062,3.6019,3.6019,3.6019,3.6019,3.6019,3.5762,3.5044,3.3832,3.2981,3.1945,3.08,3.0185,2.9973,3.006,3.006,3.0103,3.0189,3.0189,3.0189,3.0189,3.0274,3.013,2.9766,3.2476,3.3323,3.4636,3.7149,3.7948,3.8528,3.942,3.9549,3.9533,3.9427,3.9355,3.9428,3.9806,3.932,3.9409,4.0571,4.0107,4.0118,4.1061,4.0862,4.0858,4.1222,4.0897,4.0811,4.1037,4.0989,4.1012,4.1108,4.1093,4.1094,4.1093,4.1093,4.1091,4.1107,4.1092,4.158,4.2399,4.2397,4.2905,4.3628,4.2746,4.2407,4.2337,4.1782,4.1342,4.1033,0.0,4.0742,4.0447,4.029,4.0101,3.9895,3.958,3.9489,3.9414,3.8931,3.8748,3.8663,3.8446,3.7911,0.0,3.8314,3.8032,0.0,3.8523,3.864,3.8546,3.8442,3.8442,3.8231,3.756,3.765,3.7631,3.7069,3.6992,3.6816,0.0,3.5157,3.4366,3.4168,3.4301,3.4496,3.4787,3.4835,3.5131,3.5749,3.5515,3.556,3.5975,3.5728,3.5639,3.5817,3.5861,3.5844,3.5844,3.5844,3.5844,3.5844,3.5905,3.5216,3.3831,3.3333,3.2274,3.0647,3.0183,2.9846,2.9665,2.9665,2.971,2.9798,2.9798,2.9798,2.9842,2.9913,2.9483,2.8826,3.0822,3.2063,3.3348,3.4948,3.6019,3.6768,3.7137,3.7212,3.723,3.7212,3.712,3.7249,3.7761,3.8153,3.861,3.9211,3.9283,3.9887,4.1266,4.0233,4.033,4.2033,4.1186,4.082,4.1081,4.1081,4.1086,4.109,4.1099,4.1108,4.1091,4.1091,4.1093,4.1094,4.109,4.1578,4.2401,4.2402,4.2908,4.363,4.2802,4.2461,4.2454,4.2454,4.1947,4.1202,4.1109,4.0937,4.0762,4.0419,4.026,4.012,3.9675,3.932,3.909,3.8873,3.8415,3.8052,3.8223,3.8156,3.8036,3.8223,3.8274,0.0,0.0,0.0,3.8138,3.7667,3.7808,3.7685,3.6556,3.6865,3.7129,3.6498,3.6591,3.6492,3.5742,3.4769,3.3984,3.3783,3.3885,3.4152,3.4594,3.4706,3.4975,3.5532,3.5367,3.5354,3.5446,3.5492,3.5492,3.5492,3.5549,3.5577,3.5577,3.5622,3.5622,3.5622,3.5728,3.4964,3.3448,3.3541,3.2317,3.0164,3.0148,2.9753,2.9122,2.9091,2.9075,2.9075,2.9075,2.9075,2.9075,2.9287,2.8748,2.7849,2.8688,3.0616,3.225,3.2961,3.4365,3.5627,3.6105,3.6316,3.6357,3.6256,3.6399,3.6527,3.6617,3.6693,3.6887,3.7364,3.7711,3.8236,3.9086,3.9328,3.9816,4.0681,4.0616,4.0648,4.0869,4.0869,4.0929,4.1033,4.1085,4.1111,4.1097,4.1097,4.1099,4.1101,4.1105,4.1578,4.2401,4.2401,4.29,4.3674,4.3456,4.3375,4.3372,0.0,4.3235,4.2936,4.2116,4.1382,4.0762,4.0516,4.0336,4.0139,3.9816,3.9566,3.9313,3.8921,3.8559,3.8252,3.8138,3.7898,3.7757,3.7951,3.7916,3.7915,0.0,0.0,0.0,0.0,0.0,0.0,0.0,3.6568,3.6539,3.6696,3.6241,3.5677,3.4971,3.4333,3.3678,3.3018,3.3266,3.3697,3.405,3.4134,3.4333,3.4883,3.4994,3.4994,3.5041,3.5152,3.5245,3.5354,3.5475,3.552,3.552,3.5594,3.5622,3.5622,3.5622,3.5031,3.386,3.3581,3.2692,3.133,3.0478,3.0022,2.9817,2.9327,2.9075,2.9075,2.9075,2.8873,2.8496,2.8701,2.8192,2.7449,2.7683,2.9648,3.1261,3.1916,3.2855,3.3788,3.4638,3.5518,3.6056,3.5886,3.6118,3.6348,3.627,3.6041,3.6079,3.6568,3.7076,3.7864,3.9013,3.9266,3.9735,4.0652,4.0559,4.0602,4.0798,4.0867,4.0926,4.1,4.1066,4.1104,4.1101,4.1108,4.1108,4.1111,4.1099,4.1576,4.2458,4.3154,4.3517,4.3631,4.3955,4.4079,0.0,4.4079,4.4079,4.4007,4.3394,4.2392,4.1296,4.0752,4.0403,4.0158,3.9882,3.966,3.9427,3.9045,3.8664,3.835,3.8219,3.788,3.7631,3.7739,3.7685,3.7703,3.7862,3.7739,3.7468,0.0,3.6847,3.6528,0.0,0.0,3.6207,3.6409,3.5941,3.5345,3.4847,3.4136,3.3455,3.2749,3.2819,3.2926,3.3156,3.3781,3.43,3.4691,3.4594,3.4643,3.4899,3.4723,3.4818,3.5198,3.5291,3.5337,3.54,3.5475,3.5458,3.5458,3.5178,3.4625,3.3802,3.3365,3.2538,3.142,3.0789,3.0157,2.9583,2.9211,2.8885,2.8621,2.8621,2.835,2.7978,2.8091,2.773,2.7122,2.7564,2.9156,3.0495,3.136,3.1504,3.183,3.3051,3.4574,3.5596,3.5547,3.5841,3.6117,3.6164,3.5828,3.5793,3.6388,3.6999,3.8061,3.9694,3.9454,3.9816,4.1017,4.0652,4.0546,4.0771,4.0906,4.0968,4.0967,4.1046,4.1085,4.1085,4.1101,4.1108,4.1108,4.1097,4.1574,4.248,4.3876,4.4091,4.3557,4.4297,4.4607,4.4607,4.4724,4.4762,4.4752,4.4576,4.3451,4.1946,4.1125,4.0562,4.0158,3.9882,3.966,3.9452,3.9183,3.8737,3.835,3.835,3.7949,3.7503,3.7503,3.7503,3.754,3.7595,3.7449,3.7185,3.6724,3.6586,3.6138,0.0,0.0,3.5907,3.5898,3.5526,3.5128,3.4688,3.3786,3.3039,3.261,3.2312,0.0,3.2191,3.3439,3.4382,3.4546,3.425,3.43,3.4787,3.4317,3.4301,3.4994,3.5041,3.5088,3.5245,3.5245,3.5245,3.5245,3.4642,3.407,3.3547,3.3039,3.2168,3.1131,3.104,3.0342,2.9249,2.9082,2.8612,2.8005,2.7905,2.774,2.7509,2.7408,2.71,2.6788,2.796,2.9149,3.0007,3.0822,3.0807,3.0925,3.158,3.2382,3.3208,3.4048,3.4332,3.4611,3.5129,3.5265,3.5532,3.5977,3.6746,3.7504,3.8178,3.8803,3.935,3.9879,4.0021,4.0247,4.0626,4.0723,4.0759,4.0749,4.0933,4.1031,4.1025,4.1061,4.1101,4.1108,4.1097,4.1543,4.2334,4.2612,4.2999,4.3481,4.4287,4.4607,4.4685,4.5394,4.5666,4.5578,4.477,4.3389,4.1906,4.1677,4.0984,4.0158,3.9882,3.966,3.9452,3.9101,3.8634,3.8135,3.8032,3.7559,3.7105,3.7105,3.7105,3.7087,3.7126,3.6987,3.6708,3.6308,3.6054,3.5776,3.5078,0.0,0.0,3.5261,3.4911,3.4169,3.2739,3.2237,3.1881,3.1519,3.1474,3.163,3.2074,3.2826,3.3387,3.3694,3.3848,3.405,3.4399,3.4184,3.4234,3.4594,3.4691,3.4851,3.4947,3.4994,3.5041,3.5152,3.4431,3.3836,3.3427,3.2795,3.229,3.1784,3.1238,3.0873,3.0555,2.9462,2.8612,2.7955,2.7458,2.724,2.7071,2.6269,2.5892,2.5906,2.7908,2.8958,2.9588,2.9456,2.9917,3.0312,3.0329,3.1101,3.2256,3.3821,3.4436,3.5005,3.5685,3.5462,3.5487,3.5968,3.6746,3.7377,3.7773,3.8609,3.9234,3.9529,3.984,4.0195,4.0588,4.0674,4.0726,4.0746,4.0885,4.0974,4.0994,4.1037,4.1061,4.113,4.1572,4.1972,4.2353,4.3189,0.0,4.4039,4.4808,4.5128,4.5167,4.5573,4.5742,4.5689,4.5229,4.4238,4.3011,4.2066,4.1226,4.0511,3.9924,3.9489,3.9156,3.9007,3.8634,3.8267,3.798,3.7596,3.7241,3.7066,3.6987,3.6987,3.6987,3.6788,3.6544,3.636,3.5915,3.5453,3.4911,3.4894,0.0,0.0,3.4544,3.4202,3.2801,3.1992,3.1357,3.094,3.0881,3.1013,3.1232,3.2018,3.2711,3.3282,3.3487,3.3848,3.4349,3.3949,3.3949,3.4497,3.4497,3.4546,3.4691,0.0,3.4578,3.4284,3.3649,3.3114,3.2579,3.2018,3.1667,3.1524,3.121,3.0866,3.0492,2.9436,2.8891,2.8629,2.798,2.7571,2.721,2.6543,2.5946,2.5522,2.7497,2.856,2.9135,2.8285,2.917,2.9898,2.9766,3.0585,3.1856,3.363,3.4571,3.5349,3.6192,3.5689,3.5549,3.6097,3.6803,3.7377,3.7826,3.8597,3.9173,3.9505,3.9797,4.0139,4.0588,4.0642,4.0792,4.1064,4.0937,4.1007,4.1247,4.1085,4.113,4.1411,4.2089,4.2527,0.0,0.0,4.4684,4.4781,4.5368,4.5586,4.5586,4.5586,4.5586,4.5568,4.5513,4.5035,4.4193,4.2565,4.1565,4.0844,3.9962,3.9324,3.891,3.8862,3.8664,3.8346,3.8013,3.7703,3.7374,3.7048,3.6891,3.6829,3.6829,3.6609,3.6402,3.6402,3.5827,3.5178,3.4771,3.4706,0.0,0.0,0.0,3.3971,3.2992,3.1855,3.0983,3.0646,3.0497,3.054,3.06,3.148,3.2272,3.2633,3.2964,3.3487,3.4349,3.3694,3.3642,3.425,3.425,3.425,3.4349,0.0,3.4118,3.3531,3.2986,3.2407,3.1834,3.1278,3.1073,3.1087,3.1087,3.0719,3.007,2.954,2.9286,2.9163,2.8523,2.8031,2.759,2.7003,2.6272,2.5558,2.6637,2.7815,2.8546,2.8204,2.8925,2.9837,3.0343,3.097,3.1721,3.2695,3.3507,3.4267,3.5141,3.5295,3.5532,3.6216,3.6843,3.7414,3.7949,3.851,3.9064,3.9576,3.9687,3.9985,4.0593,4.0602,4.1034,4.1892,4.1156,4.1246,0.0,4.1337,4.1456,4.2283,0.0,0.0,0.0,4.4475,4.4906,4.5505,4.5584,4.5586,4.5586,4.5586,4.5568,4.5476,4.5222,4.5058,4.4741,4.3485,4.2108,4.0774,3.9981,3.9324,3.8881,3.8822,3.8523,3.8198,3.8117,3.7542,3.6956,3.6917,3.6591,3.6251,3.6251,3.6165,3.6062,3.6062,3.5498,3.5115,3.5283,3.4496,3.3901,0.0,0.0,3.254,3.1769,3.1056,3.0526,3.0495,3.048,3.06,3.0896,3.1823,3.1962,3.1028,3.1987,3.3033,3.3899,3.3642,3.3503,3.3607,3.3797,3.3899,3.3761,3.4,3.3917,3.3391,3.2734,3.2216,3.1679,3.1102,3.0955,3.1087,3.1087,3.0719,3.0115,3.0041,2.9658,2.9042,2.8438,2.8182,2.7997,2.6818,2.6324,2.6155,2.4425,2.5477,2.6392,2.6819,2.8115,2.9303,0.0,3.1287,3.2454,3.3255,3.3735,3.4333,3.5135,3.5337,3.5684,3.6326,3.6882,3.7414,3.7895,3.846,3.9036,3.9576,3.9645,3.9984,4.0583,4.0593,4.1045,4.1994,4.1152,4.1241,4.2185,4.1875,0.0,0.0,0.0,4.4118,4.4686,4.5098,4.5399,4.5586,4.5586,4.5586,4.5586,4.5419,4.5322,4.5222,4.4962,4.48,4.4543,4.354,4.2355,4.1162,4.0323,3.9463,3.878,3.875,3.864,3.8415,3.8119,3.7614,3.7058,3.6799,3.6385,3.6079,3.6079,3.5993,3.5905,3.5905,3.5605,3.5224,3.4657,3.4529,3.4136,3.3077,0.0,0.0,3.1377,3.0555,3.0086,3.0208,3.036,3.0585,3.0778,3.1637,3.1951,3.1435,3.2272,3.2888,3.3077,3.3208,3.3346,3.3607,0.0,3.3797,3.3797,3.4,3.3815,3.3287,3.2695,3.2104,3.1537,3.0984,3.0702,3.0821,3.0821,3.0675,3.0514,3.0441,3.028,3.006,2.9406,2.8958,2.8507,2.7285,2.6607,2.6193,2.2655,2.3939,2.5035,2.5763,2.7591,2.915,3.0018,3.16,3.2939,3.3684,3.4219,3.4706,3.5245,3.5446,3.5773,3.6374,3.6921,3.7414,3.7929,3.8566,3.9127,3.9576,3.9754,4.0082,4.0603,4.0593,4.1195,4.2375,4.1525,4.1759,0.0,0.0,0.0,0.0,4.4543,4.4857,4.5052,4.5543,4.5684,4.5586,4.5513,4.5495,4.5438,4.518,4.503,4.4938,4.465,4.4484,4.4252,4.3539,4.247,4.1319,4.055,3.9568,3.8707,3.8658,3.8546,3.8401,3.8034,3.7524,3.702,3.6678,3.6259,3.5932,3.5932,3.5861,3.5728,3.5728,3.5667,3.5316,3.4415,3.4464,3.4219,3.2788,0.0,0.0,3.1552,3.0777,3.0297,3.0389,3.0733,3.0955,3.0896,3.1652,3.191,3.1407,3.2079,3.2563,3.2524,3.2888,3.3187,0.0,0.0,0.0,3.3523,3.3848,3.3662,3.3093,3.2641,3.2048,3.1495,3.0866,3.0568,3.0568,3.0568,3.0642,3.0702,3.0642,3.0642,3.0718,3.0236,2.9812,2.9354,2.8019,2.7305,2.6823,2.1816,2.3636,2.5189,2.5426,2.7617,2.958,3.0556,3.1814,3.2939,3.3684,3.4642,3.5291,3.5291,3.5446,3.5817,3.6539,3.696,3.7451,3.8068,3.8847,3.9389,3.9599,3.9983,4.0319,4.0588,4.0588,4.1479,4.3285,4.2474,0.0,4.4754,0.0,4.4084,4.4773,4.4731,4.5099,4.578,4.5651,4.5603,4.5568,4.5322,4.5201,4.518,4.4915,4.4726,4.4565,4.4308,4.4121,4.3955,4.3597,4.2415,4.1029,4.0452,3.9568,3.8658,3.8541,3.8198,3.7911,3.7808,3.7228,3.662,3.658,3.6199,3.5817,3.5817,3.5711,3.5622,3.5622,3.5622,3.5424,3.488,3.4252,3.3836,3.3987,0.0,0.0,3.225,3.1679,3.1278,3.1278,3.1796,3.1966,3.1336,3.1951,3.1751,3.0251,3.1131,3.1951,3.2586,0.0,0.0,3.2641,3.2904,0.0,3.2602,3.3314,3.3419,3.2788,3.2547,3.2048,3.1495,3.0866,3.0568,3.0568,3.0568,3.0568,3.0568,3.0568,3.0568,3.0568,3.0568,3.0568,3.0433,2.8989,2.8478,2.8285,1.9556,2.159,2.3609,2.5216,2.7433,2.9529,3.117,3.2392,3.3531,3.4545,3.5024,3.5458,3.5827,3.5958,3.6326,0.0,3.7377,3.7877,0.0,3.8844,3.9227,3.9664,3.984,4.0139,4.0583,4.0593,4.1465,4.3239,0.0,0.0,0.0,4.4668,4.4972,4.5676,4.557,4.5631,4.58,4.5651,4.5495,4.5322,4.5222,4.5096,4.4896,4.4572,4.4402,4.426,4.3936,4.373,4.3649,4.3532,4.2433,4.1056,4.0909,3.969,3.8252,3.8132,3.7825,3.7452,3.7285,3.6882,3.6457,3.6409,3.6045,3.5667,3.5667,3.5622,3.5622,3.5622,3.5622,3.5424,3.4818,3.4561,3.4086,3.3198,3.2586,0.0,3.1694,3.1437,3.1336,3.1567,3.1853,3.1925,3.1495,3.1853,3.1796,3.097,3.1509,3.1781,0.0,0.0,0.0,0.0,3.2711,0.0,3.292,3.324,3.3346,3.3118,3.2617,3.1936,3.1146,3.0747,3.0568,3.0568,3.0568,3.0568,3.0568,3.0568,3.0568,3.0568,3.0568,3.0568,3.0507,2.9608,2.8953,2.8363,1.9643,2.1525,2.3464,2.5832,2.7996,2.999,3.1611,3.2839,3.3919,3.4977,3.535,3.5694,3.6054,3.6516,0.0,3.7414,3.7667,3.8099,3.8762,3.9027,3.932,3.9687,3.9963,4.0248,4.0583,4.0607,0.0,4.3284,4.353,4.425,4.5429,4.5479,4.5675,4.6013,4.593,4.5828,4.568,4.5601,4.5438,4.5243,4.5052,4.4872,4.4676,4.4279,4.406,4.3936,4.3697,4.3548,4.3442,4.3149,4.2176,4.1024,4.0698,3.9306,3.7826,3.7843,3.7542,3.7117,3.6803,3.6416,3.6097,3.6045,3.5844,3.5622,3.5622,3.5622,3.5577,3.5549,3.5549,3.5412,3.4994,3.4691,3.4202,3.3355,3.2749,3.2272,3.1977,3.1667,3.1552,3.1879,3.1951,3.1796,3.1437,3.1625,3.1582,3.1176,3.1467,0.0,0.0,0.0,0.0,3.2342,3.2398,3.2523,3.2757,3.2958,3.2958,3.2834,3.2201,3.1465,3.0687,3.0522,3.0401,3.0401,3.0462,3.0507,3.0507,3.0568,3.0568,3.0568,3.0568,3.0568,3.0507,2.987,2.9156,2.8427,2.146,2.3014,2.4625,0.0,2.9108,0.0,3.1992,3.3171,3.4169,3.5024,3.5588,3.5994,3.6182,3.7094,3.7756,3.7826,0.0,0.0,0.0,3.9301,3.9641,3.9731,4.0267,4.0583,4.0588,4.0681,4.1598,4.3408,4.5288,4.623,4.6293,4.6284,4.6144,4.5899,4.5889,4.575,4.5495,4.5457,4.5419,4.5302,4.4776,4.4565,4.4484,4.3974,4.3719,4.3582,4.3582,4.3548,4.3369,4.258,4.1739,4.0899,4.0014,3.8597,3.7342,3.7667,3.736,3.6843,3.6367,3.5915,3.5622,3.5622,3.5622,3.5622,3.5577,3.5577,3.5594,3.5492,3.5492,3.5446,3.5291,3.4723,3.4235,3.4185,3.3214,3.2602,3.2949,3.2256,3.1879,3.2241,0.0,0.0,3.1336,3.1278,3.1176,0.0,3.1014,0.0,0.0,0.0,3.2094,3.1996,3.1996,3.2038,3.2191,3.2437,3.2367,3.2018,3.1334,3.0658,3.0111,3.0111,3.0111,3.0111,3.0205,3.0266,3.0326,3.0507,3.0582,3.0582,3.0582,3.0582,3.0507,2.987,2.9156,2.8363,0.0,0.0,2.6314,2.7419,2.9577,3.1315,3.2118,3.3499,3.4785,3.5599,3.5924,3.6374,3.7226,3.7578,3.7948,3.8281,3.8364,3.8597,3.9137,3.9305,3.9566,4.0062,4.0212,4.0383,4.0607,4.0715,4.1684,4.3557,4.5327,4.6229,4.6303,4.6206,4.6068,4.5906,4.579,4.5623,4.5419,4.5201,4.4985,4.4751,4.443,4.4181,4.3974,4.3716,4.3634,4.3582,4.3548,4.3513,4.3369,4.2512,4.1446,4.0346,3.9462,3.8186,3.7097,3.7173,3.6643,3.6045,3.5827,3.5694,3.5622,3.5622,3.5622,3.5577,3.552,3.552,3.5492,3.5383,3.5354,3.5291,3.5198,3.4977,3.4739,3.4234,3.3729,3.3245,3.2895,3.2382,3.2135,3.2231,3.2079,3.1811,3.1336,3.1278,3.1292,0.0,0.0,3.1351,3.1625,3.1769,3.1898,3.1841,3.1841,3.1883,3.2053,3.2094,3.1951,3.1652,3.1014,3.0628,3.0462,3.0233,3.0111,3.0111,3.0111,3.0172,3.0172,3.0172,3.0233,3.0233,3.0233,3.0233,3.0172,3.0036,2.917,2.8117,2.4151,2.5928,2.7604,2.8933,3.0778,3.2228,3.2861,3.4203,3.5419,3.6105,3.6522,3.6999,3.7667,3.7982,3.8263,3.864,3.8737,3.8942,3.9272,3.9489,3.9794,4.0176,4.0317,4.0466,4.0635,4.0751,4.1721,4.3593,4.4979,4.5824,4.6162,4.6086,4.5949,4.5764,4.5699,4.547,4.5161,4.503,4.4776,4.4484,4.4221,4.4017,4.3865,4.36,4.3497,4.3463,4.316,4.285,4.2377,4.1343,4.0291,3.926,3.8362,3.745,3.6724,3.6701,3.635,3.5975,3.5667,3.5622,3.5577,3.5549,3.5549,3.552,3.5429,3.54,3.5383,3.5245,3.5198,3.5152,3.5041,3.4994,3.4804,3.4201,3.3848,3.3523,3.3055,3.2819,3.2578,3.2231,3.2231,3.2007,3.1292,3.1117,3.1058,3.1058,3.1058,0.0,3.1409,3.1539,3.1597,3.167,3.167,3.1727,3.1898,3.1437,3.1116,3.094,3.0115,2.9775,2.9898,2.9727,2.9665,2.9665,2.9851,2.9775,2.9526,2.9927,2.9988,2.9865,3.005,3.0111,3.0111,3.0111,2.9387,2.8468,2.6726,2.7761,2.885,3.0808,3.2164,3.3208,3.3872,3.4998,3.6002,3.6603,3.719,3.765,3.7928,3.8328,3.8688,3.8971,3.9127,3.9279,3.9408,3.9794,4.0082,4.0247,4.0481,4.0648,4.0707,4.0907,4.1871,4.3613,4.4557,4.5333,4.599,4.5974,4.5828,4.5568,4.5519,4.5266,4.4872,4.48,4.4599,4.4318,4.4048,4.391,4.3878,4.3463,4.3305,4.3178,4.2492,4.1851,4.1094,3.9736,3.885,3.81,3.7206,3.6603,3.6266,3.6199,3.6174,3.6088,3.5711,3.5577,3.5594,3.5537,3.5492,3.5446,3.5291,3.5245,3.5245,3.5088,3.5041,3.5058,3.4899,3.4787,3.4626,3.43,3.3899,3.3523,3.3319,0.0,3.2904,3.2145,3.2256,3.2104,3.1249,3.0955,3.0881,3.0821,3.0881,3.094,3.1132,3.1234,3.1409,3.1482,3.1482,3.1597,3.1799,3.0837,3.0329,3.0329,2.9261,2.8908,2.9162,2.9099,2.9099,2.9099,2.9449,2.931,2.8867,2.9602,2.9741,2.954,2.9803,2.9865,2.9865,2.9865,2.9463,2.8753,2.7551,2.899,3.0422,3.1489,3.2578,3.354,3.4154,3.5425,3.6481,3.7038,3.7432,3.7929,3.8645,3.8839,3.9054,3.9383,3.9683,3.9859,3.988,4.0024,4.0229,4.0523,4.0626,4.0732,4.0779,4.1627,4.2596,4.3674,4.4579,4.5343,4.601,4.589,4.5725,4.55,4.5166,4.4943,4.4776,4.4318,4.4091,4.4048,4.3716,4.3532,4.3446,4.2995,4.2732,4.249,4.1372,4.093,4.0534,3.8938,3.8111,3.7572,3.6676,3.6071,3.5739,3.5694,3.5711,3.5711,3.5622,3.5549,3.5537,3.5492,3.54,3.5308,3.5152,3.5135,3.5088,3.4947,3.4947,3.4947,3.4899,3.4399,3.4169,3.4691,3.385,3.323,3.3575,0.0,3.2398,3.2038,3.1811,3.1567,3.1292,3.1219,3.1176,3.1073,3.1176,3.1234,3.1292,3.1409,3.1467,3.1482,3.1482,3.1597,3.1799,3.0999,3.0613,3.0703,2.9822,2.9477,2.9477,2.9226,2.9099,2.9099,2.8908,2.8908,2.9022,2.8908,2.8972,2.9162,2.8908,2.8844,2.8844,2.8844,2.8365,2.7683,2.935,3.0557,3.1687,3.2786,3.3671,3.451,3.5301,3.6246,3.7079,3.7805,3.8176,3.8573,3.9163,3.9249,3.9402,3.9702,3.992,4.012,4.0267,4.03,4.0419,4.0646,4.0713,4.0791,4.0914,4.1364,4.2051,4.2994,4.3802,4.453,4.5209,4.5492,4.5552,4.5381,4.5011,4.4751,4.4546,4.4084,4.3795,4.3667,4.3428,4.3178,4.2902,4.2616,4.2074,4.1327,4.0463,3.9643,3.8839,3.7784,3.7025,3.6473,3.6061,3.5783,3.5577,3.5549,3.5566,3.5566,3.5566,3.5475,3.5383,3.5291,3.5245,3.5152,3.4994,3.4756,3.4546,3.4497,3.4218,3.3935,3.3885,3.3614,3.3391,3.3407,3.2986,0.0,3.2508,3.2492,3.2287,3.1697,3.1853,3.1796,3.1336,3.1278,3.1292,3.1234,3.119,3.1234,3.1292,3.1351,3.1409,3.1482,3.1482,3.1467,3.1351,3.0658,3.0237,3.0129,2.9401,2.9162,2.9352,2.9162,2.9099,2.9099,2.9099,2.8908,2.8587,2.878,2.8716,2.8522,2.8587,2.8587,2.8587,2.8587,2.8379,2.7973,3.1315,3.2173,3.3019,3.4252,3.4951,3.5691,3.6614,3.7177,3.7787,3.8487,3.882,3.9144,3.9537,3.9614,3.9712,3.9983,4.0139,4.0302,4.0526,4.0554,4.0615,4.072,4.0801,4.0896,4.099,4.1014,4.1461,4.2349,4.2916,4.3637,4.4465,4.497,4.5207,4.5173,4.4819,4.4519,4.4242,4.3836,4.3529,4.334,4.3105,4.2808,4.2444,4.1984,4.1191,4.0184,3.933,3.8305,3.7247,3.6707,3.6113,3.5594,3.5594,3.5549,3.5503,3.5475,3.5446,3.54,3.5446,3.5354,3.5245,3.5152,3.4994,3.4851,3.4739,3.4234,3.3815,3.3815,3.3423,3.3024,3.2917,3.2826,3.261,3.2281,0.0,3.1977,3.1625,3.2048,3.2104,3.1336,3.1724,3.191,3.1292,3.1292,3.1278,3.1278,3.1234,3.1249,3.1351,3.1351,3.1409,3.1482,3.1482,3.1351,3.097,3.0404,2.9979,2.9665,2.9099,2.8972,2.9226,2.9162,2.9099,2.9099,2.9289,2.8972,2.8341,2.8716,2.8587,2.821,2.8327,2.8327,2.8327,2.8327,2.8327,2.8197,3.2835,3.389,3.4858,3.5702,3.6249,3.6823,3.7594,3.8196,3.8649,3.8849,3.9099,3.9408,3.9838,3.9922,4.0062,4.0336,4.0492,4.0607,4.0676,4.0742,4.0781,4.0789,4.0914,4.0982,4.0994,4.1052,4.1468,4.2201,4.2276,4.2984,4.4322,4.4369,4.4556,4.4819,4.4484,4.4173,4.3804,4.3408,4.3232,4.316,4.2714,4.2501,4.2208,4.0587,3.9909,3.9508,3.7694,3.6949,3.6717,3.5943,3.5599,3.5492,3.5492,3.5446,3.5337,3.5291,3.5245,3.5152,3.5291,3.5198,3.5088,3.5088,3.4643,3.4151,3.4151,3.3594,3.3108,3.3108,3.2917,3.2725,3.2725,3.221,3.2003,3.2579,0.0,0.0,3.1834,3.1694,3.1437,3.1132,3.1132,3.119,3.1132,3.1234,3.1278,3.1278,3.1409,3.1467,3.1467,3.1482,3.1482,3.1482,3.1482,3.1278,3.0837,3.0613,3.0312,2.9808,2.9588,2.954,2.954,2.9226,2.9099,2.9099,2.878,2.878,2.8972,2.8406,2.8341,2.8536,2.7855,2.7603,2.7603,2.7603,2.7603,2.7523,3.3956,3.4591,3.5335,3.6249,3.6724,3.7253,3.8158,3.8596,3.8962,3.9287,3.9524,3.9775,4.0101,4.0281,4.0408,4.053,4.0641,4.0752,4.0824,4.089,4.0925,4.0916,4.0974,4.0996,4.0994,4.0988,4.1065,4.1276,4.1695,4.2135,4.2629,4.289,4.3057,4.3202,4.3183,4.3126,4.3005,4.3103,4.2703,4.199,4.174,4.1001,3.9974,3.9328,3.8608,3.7797,3.7068,3.6439,3.5954,3.5621,3.5475,3.54,3.54,3.5337,3.5291,3.5198,3.5088,3.4899,3.4643,3.4497,3.4497,3.4497,3.4018,3.3527,3.3527,3.3055,3.2641,3.2641,3.2256,3.1921,3.1766,3.1495,3.1379,3.1522,0.0,3.0984,3.1321,3.1219,3.1043,3.0955,3.1014,3.1073,3.0955,3.1073,3.119,3.119,3.1249,3.1307,3.1351,3.1467,3.1482,3.1482,3.1087,3.0703,3.0329,3.0269,2.9794,2.9085,2.9022,2.8972,2.8972,2.8844,2.8908,2.9099,2.8972,2.8972,2.9099,2.8844,2.8522,2.8276,2.8,2.7736,2.7523,2.7523,2.7523,2.739,3.5199,3.5664,3.6229,3.7163,3.7524,3.7954,3.881,3.9109,3.9345,3.9739,3.9962,4.0157,4.0372,4.0544,4.0672,4.0679,4.079,4.087,4.0925,4.0965,4.1015,4.1035,4.1015,4.0982,4.0967,4.0889,4.0781,4.0609,4.1075,4.1308,4.1399,4.1661,4.1838,4.1908,4.2013,4.1991,4.1934,4.2069,4.1607,4.0817,4.0481,3.9606,3.857,3.8167,3.7502,3.6709,3.6472,3.5975,3.5446,3.5446,3.5354,3.5245,3.5245,3.5198,3.5105,3.4851,3.4691,3.4546,3.3968,3.3713,3.361,3.3764,3.3387,3.2949,3.2949,3.2477,3.2064,3.2064,3.1682,3.1307,3.1073,3.1014,3.0955,3.0762,3.0642,3.0702,3.0895,3.0821,3.0762,3.0762,3.0895,3.0895,3.0762,3.0895,3.1014,3.1014,3.1073,3.1132,3.1234,3.1351,3.1351,3.1102,3.0718,3.0208,2.9532,2.9656,2.931,2.8471,2.8522,2.8587,2.8587,2.8587,2.8716,2.8908,2.8908,2.8908,2.8908,2.8844,2.8522,2.8079,2.7947,2.7736,2.7523,2.7523,2.7523,2.739,3.6666,3.7228,3.7773,3.856,3.8828,3.909,3.9628,3.9826,3.9975,4.0176,4.0372,4.0521,4.059,4.0729,4.0829,4.089,4.0896,4.093,4.0999,4.0999,4.1022,4.1097,4.1022,4.0961,4.0909,4.0829,4.0653,4.0392,4.0392,4.0558,4.0882,4.0863,4.102,4.1268,4.1156,4.0936,4.0634,4.0107,3.9899,3.9822,3.8963,3.857,3.8456,3.7257,3.6726,3.6468,3.5761,3.54,3.5291,3.5291,3.5198,3.5088,3.5088,3.4994,3.4787,3.425,3.4101,3.3984,3.3355,3.2788,3.2547,3.3039,3.2788,3.2398,3.2398,3.1838,3.1278,3.1278,3.1176,3.1014,3.0821,3.0821,3.0762,3.0642,3.0568,3.0568,3.0568,3.0568,3.0568,3.0568,3.0568,3.0568,3.0568,3.0702,3.0821,3.0821,3.0955,3.1087,3.1087,3.1234,3.0984,3.0312,3.0404,2.9842,2.8481,2.8894,2.878,2.8079,2.8406,2.8587,2.8587,2.8587,2.8587,2.8587,2.8587,2.8587,2.8587,2.821,2.8079,2.8079,2.7669,2.7523,2.7523,2.7523,2.7523,2.7523,3.7434,3.7801,3.824,3.8859,3.9122,3.9376,3.9785,4.0042,4.0192,4.0264,4.0538,4.071,4.0751,4.0859,4.0953,4.0964,4.1013,4.1035,4.0994,4.0964,4.0915,4.0879,4.0874,4.0772,4.0614,4.0546,4.0338,3.9985,3.9924,3.9819,3.9631,3.9444,3.9386,3.9412,3.9761,3.9868,3.9802,3.9854,3.9402,3.8571,3.7949,3.7192,3.6373,3.5942,3.5719,3.5639,3.5421,3.5291,3.5152,3.5152,3.5088,3.4947,3.4947,3.4691,3.4399,3.4594,3.4102,3.3423,3.3251,3.2788,3.2437,3.2586,3.2231,3.1739,3.1739,3.1509,3.1278,3.1278,3.1176,3.1014,3.0821,3.0821,3.0762,3.0642,3.0568,3.0568,3.0568,3.0568,3.0568,3.0568,3.0568,3.0568,3.0568,3.0642,3.0642,3.0642,3.0821,3.0895,3.0895,3.1073,3.0807,3.0086,2.9704,2.9079,2.8352,2.8546,2.8365,2.7669,2.7802,2.7855,2.7855,2.7855,2.8,2.8276,2.8276,2.8406,2.8587,2.8471,2.8341,2.8079,2.7947,2.7736,2.7456,2.7403,2.7335,2.7188,3.8279,3.8598,3.8973,3.9406,3.9618,3.9808,4.0082,4.0277,4.0414,4.0486,4.0703,4.0848,4.0882,4.0983,4.1023,4.0996,4.0984,4.0955,4.0894,4.079,4.0722,4.0672,4.0642,4.0557,4.0448,4.0277,4.0024,3.9705,3.9543,3.9249,3.8896,3.873,3.8585,3.8451,3.8576,3.86,3.8546,3.8451,3.7942,3.7193,3.6696,3.6073,3.54,3.5337,3.5245,3.5198,3.5198,3.5135,3.4994,3.4994,3.4851,3.4594,3.4851,3.4382,3.3799,3.4152,3.3511,3.2718,3.2571,3.2201,3.1894,3.1951,3.1739,3.1482,3.1409,3.1351,3.1278,3.1234,3.1132,3.1014,3.0821,3.0821,3.0762,3.0642,3.0568,3.0568,3.0568,3.0568,3.0568,3.0568,3.0568,3.0568,3.0568,3.0568,3.0568,3.0568,3.0702,3.0702,3.0702,3.0895,3.0493,2.9594,2.9192,2.8634,2.7776,2.7973,2.7842,2.7523,2.7523,2.7523,2.7523,2.7523,2.7603,2.7868,2.7868,2.8,2.8197,2.8197,2.8066,2.7868,2.7868,2.7736,2.7469,2.7335,2.7268,2.7134,3.9188,3.9501,3.9772,4.008,4.0187,4.0303,4.0491,4.052,4.0599,4.079,4.0851,4.0929,4.0971,4.1033,4.1068,4.0992,4.0867,4.0752,4.0649,4.0526,4.0453,4.0412,4.0285,4.025,4.0293,3.9965,3.9705,3.9526,3.9197,3.8868,3.8554,3.8554,3.8415,3.8106,3.7667,3.7396,3.7193,3.6399,3.5994,3.5864,3.5441,3.5291,3.5291,3.5245,3.5198,3.5088,3.5088,3.4994,3.4899,3.4835,3.4497,3.4151,3.4594,3.3986,3.313,3.313,3.261,3.1921,3.1625,3.1307,3.1132,3.1234,3.1351,3.1424,3.1292,3.1292,3.1234,3.1073,3.1073,3.1014,3.0821,3.0762,3.0762,3.0642,3.0568,3.0568,3.0568,3.0568,3.0568,3.0568,3.0568,3.0568,3.0568,3.0568,3.0568,3.0568,3.0568,3.0568,3.0568,3.0702,3.019,2.8803,2.8889,2.8325,2.7011,2.7146,2.7335,2.7469,2.7456,2.7523,2.7523,2.7523,2.7523,2.7523,2.7523,2.7523,2.7523,2.7523,2.7523,2.7523,2.7523,2.7523,2.7469,2.7335,2.7268,2.7201,3.9852,4.0095,4.0268,4.0385,4.0571,4.0672,4.066,4.0704,4.074,4.0789,4.0897,4.0945,4.0851,4.0905,4.0925,4.0852,4.0772,4.0583,4.0258,4.0216,4.0043,3.9738,3.9599,3.9524,3.9543,3.9656,3.9445,3.8905,3.8759,3.8554,3.8307,3.8307,3.807,3.7632,3.7451,3.7155,3.6768,3.619,3.595,3.5864,3.535,3.5135,3.5135,3.5041,3.4947,3.4947,3.4947,3.4947,3.4851,3.4399,3.4201,3.4034,3.3578,3.2933,3.2391,3.2741,3.213,3.1394,3.1694,3.1437,3.1087,3.1146,3.119,3.119,3.1132,3.1014,3.0881,3.0895,3.0762,3.0702,3.0642,3.0642,3.0642,3.0568,3.0568,3.0568,3.0568,3.0568,3.0568,3.0568,3.0568,3.0568,3.0568,3.0568,3.0568,3.0568,3.0568,3.0568,3.0568,3.0642,2.9993,2.8634,2.862,2.7986,2.6794,2.6794,2.6998,2.7335,2.7469,2.7523,2.7523,2.7523,2.7523,2.7523,2.7523,2.7523,2.7523,2.7523,2.7523,2.7523,2.7523,2.7523,2.7469,2.7335,2.7214,2.6863,4.0422,4.0544,4.0634,4.0636,4.0758,4.0847,4.0797,4.0796,4.0818,4.0848,4.0871,4.0877,4.0813,4.0801,4.076,4.0665,4.0458,4.0202,3.9929,3.9787,3.9611,3.9358,3.9282,3.9171,3.9036,3.9154,3.9027,3.8658,3.8478,3.8303,3.8088,3.788,3.7614,3.734,3.6847,3.6487,3.6197,3.5732,3.5498,3.5407,3.5118,3.4994,3.4994,3.4947,3.4899,3.4899,3.4899,3.4675,3.4301,3.363,3.3251,3.3039,3.2917,3.2296,3.1709,3.2155,3.1679,3.1058,3.1437,3.1219,3.0895,3.0955,3.0895,3.0895,3.0955,3.0895,3.0762,3.0702,3.0642,3.0568,3.0568,3.0568,3.0568,3.0568,3.0568,3.0568,3.0568,3.0568,3.0568,3.0568,3.0568,3.0568,3.0568,3.0568,3.0568,3.0568,3.0568,3.0568,3.0568,3.0568,2.9979,2.8556,2.8492,2.7855,2.6589,2.6658,2.6794,2.6998,2.7201,2.7268,2.7268,2.7335,2.7335,2.7268,2.7335,2.7335,2.7268,2.7268,2.7268,2.7268,2.7268,2.7268,2.7268,2.7066,2.6645,2.6013,4.0828,4.0877,4.0896,4.084,4.0855,4.0894,4.0909,4.0823,4.0805,4.0843,4.0816,4.0752,4.066,4.0556,4.0442,4.0312,3.9985,3.9731,3.9552,3.9333,3.9152,3.9044,3.9063,3.8896,3.8609,3.8579,3.8566,3.8541,3.8289,3.8088,3.7862,3.747,3.7155,3.6943,3.6215,3.5776,3.5582,3.5211,3.4994,3.4899,3.4899,3.4899,3.4899,3.4899,3.4851,3.4851,3.4723,3.4235,3.3515,3.2779,3.225,3.1931,3.225,3.1736,3.1117,3.1564,3.1233,3.0821,3.0955,3.0821,3.0642,3.0762,3.0702,3.0642,3.0762,3.0762,3.0702,3.0642,3.0568,3.0568,3.0568,3.0568,3.0568,3.0568,3.0568,3.0568,3.0568,3.0568,3.0568,3.0568,3.0568,3.0568,3.0568,3.0568,3.0568,3.0568,3.0568,3.0568,3.0568,3.0568,2.9993,2.8762,2.8556,2.792,2.6658,2.6658,2.6658,2.6658,2.6807,2.6943,2.7024,2.7146,2.7146,2.7024,2.7214,2.7146,2.7024,2.7024,2.7024,2.7024,2.7024,2.7024,2.6956,2.6794,2.6013,2.5087,4.0968,4.0928,4.0917,4.0956,4.0887,4.084,4.0894,4.0801,4.0704,4.0637,4.0684,4.0557,4.0137,3.9846,3.963,3.9486,3.9408,3.9231,3.8924,3.8886,3.873,3.8433,3.8433,3.835,3.8183,3.8135,3.8171,3.8241,3.8104,3.7809,3.7379,3.7285,3.6825,3.6062,3.583,3.5509,3.5165,3.4994,3.4899,3.4899,3.4899,3.4899,3.4899,3.4787,3.4756,3.4643,3.402,3.3375,3.2779,3.221,3.1931,3.1777,3.1248,3.0984,3.0821,3.0807,3.0687,3.0642,3.0642,3.0642,3.0568,3.0642,3.0628,3.0568,3.0642,3.0642,3.0642,3.0568,3.0568,3.0568,3.0568,3.0568,3.0568,3.0568,3.0568,3.0568,3.0568,3.0568,3.0568,3.0568,3.0568,3.0568,3.0568,3.0568,3.0568,3.0568,3.0568,3.0568,3.0568,3.0568,3.0251,2.9484,2.8826,2.8117,2.7351,2.6782,2.6521,2.6521,2.6521,2.6739,2.7024,2.7024,2.7024,2.7024,2.7024,2.7024,2.7024,2.7024,2.7024,2.7024,2.7024,2.7024,2.6956,2.6794,2.5791,2.4492,4.0954,4.0884,4.084,4.0827,4.0785,4.0742,4.0742,4.052,4.0346,4.0319,4.0152,3.9927,3.969,3.9481,3.9282,3.9205,3.9044,3.8868,3.8573,3.8455,3.8267,3.8072,3.8072,3.7933,3.7596,3.7578,3.7451,3.7248,3.7451,3.7285,3.6808,3.6487,3.613,3.5749,3.5391,3.5148,3.4994,3.4851,3.4804,3.4804,3.4707,3.4707,3.4643,3.4251,3.4086,3.3969,3.2902,3.2376,3.2043,3.1392,3.1175,3.1131,3.0807,3.0702,3.0702,3.0642,3.0568,3.0568,3.0568,3.0568,3.0568,3.0568,3.0568,3.0568,3.0568,3.0568,3.0568,3.0568,3.0568,3.0568,3.0568,3.0507,3.0447,3.0447,3.0401,3.0355,3.0355,3.0355,3.0355,3.0355,3.0355,3.0355,3.0355,3.0355,3.0355,3.0355,3.0387,3.0447,3.0447,3.0507,3.0312,2.9623,2.8889,2.8182,2.7484,2.685,2.6533,2.6533,2.6533,2.6602,2.6739,2.6807,2.6794,2.6739,2.6794,2.6794,2.6739,2.6739,2.6739,2.6739,2.6739,2.6739,2.6739,2.6589,2.5861,2.4862]}]]